<?xml version="1.0" encoding="UTF-8" standalone="no" ?>
<gpx xmlns="http://www.topografix.com/GPX/1/1" xmlns:xsi="http://www.w3.org/2001/XMLSchema-instance" xsi:schemaLocation="http://www.topografix.com/GPX/1/1 http://www.topografix.com/GPX/1/1/gpx.xsd" version="1.1" creator="VisuGPX - https://www.visugpx.com">
  <metadata>
    <name>balade au départ de Peures</name>
    <desc><![CDATA[Balade vallonnée; Attention GR sur terrain et carte IGN parfois différent. ]]></desc>
  </metadata>
  <trk>
    <name><![CDATA[PREURES24 04:45:39 PM]]></name>
    <trkseg>
      <trkpt lat="50.57278" lon="1.87725">
        <ele>40.51</ele>
        <time>2014-05-03T08:12:19Z</time>
      </trkpt>
      <trkpt lat="50.573" lon="1.87747">
        <ele>68.39</ele>
        <time>2014-05-03T08:15:20Z</time>
      </trkpt>
      <trkpt lat="50.57287" lon="1.8776">
        <ele>65.99</ele>
        <time>2014-05-03T08:15:32Z</time>
      </trkpt>
      <trkpt lat="50.57272" lon="1.87775">
        <ele>67.43</ele>
        <time>2014-05-03T08:15:47Z</time>
      </trkpt>
      <trkpt lat="50.57259" lon="1.87784">
        <ele>67.91</ele>
        <time>2014-05-03T08:15:56Z</time>
      </trkpt>
      <trkpt lat="50.57245" lon="1.87789">
        <ele>65.99</ele>
        <time>2014-05-03T08:16:08Z</time>
      </trkpt>
      <trkpt lat="50.5723" lon="1.87788">
        <ele>66.47</ele>
        <time>2014-05-03T08:16:18Z</time>
      </trkpt>
      <trkpt lat="50.57225" lon="1.87765">
        <ele>66.95</ele>
        <time>2014-05-03T08:16:28Z</time>
      </trkpt>
      <trkpt lat="50.57218" lon="1.87749">
        <ele>66.47</ele>
        <time>2014-05-03T08:16:36Z</time>
      </trkpt>
      <trkpt lat="50.57211" lon="1.87735">
        <ele>65.51</ele>
        <time>2014-05-03T08:16:43Z</time>
      </trkpt>
      <trkpt lat="50.57204" lon="1.87723">
        <ele>65.99</ele>
        <time>2014-05-03T08:16:50Z</time>
      </trkpt>
      <trkpt lat="50.57197" lon="1.87708">
        <ele>65.03</ele>
        <time>2014-05-03T08:16:58Z</time>
      </trkpt>
      <trkpt lat="50.57188" lon="1.8769">
        <ele>64.55</ele>
        <time>2014-05-03T08:17:05Z</time>
      </trkpt>
      <trkpt lat="50.57183" lon="1.87674">
        <ele>65.99</ele>
        <time>2014-05-03T08:17:11Z</time>
      </trkpt>
      <trkpt lat="50.57178" lon="1.87658">
        <ele>66.47</ele>
        <time>2014-05-03T08:17:18Z</time>
      </trkpt>
      <trkpt lat="50.57175" lon="1.87639">
        <ele>66.47</ele>
        <time>2014-05-03T08:17:26Z</time>
      </trkpt>
      <trkpt lat="50.57173" lon="1.87625">
        <ele>64.55</ele>
        <time>2014-05-03T08:17:32Z</time>
      </trkpt>
      <trkpt lat="50.57171" lon="1.87611">
        <ele>64.55</ele>
        <time>2014-05-03T08:17:38Z</time>
      </trkpt>
      <trkpt lat="50.57172" lon="1.87596">
        <ele>64.07</ele>
        <time>2014-05-03T08:17:44Z</time>
      </trkpt>
      <trkpt lat="50.57173" lon="1.87581">
        <ele>65.51</ele>
        <time>2014-05-03T08:17:50Z</time>
      </trkpt>
      <trkpt lat="50.57176" lon="1.87565">
        <ele>65.03</ele>
        <time>2014-05-03T08:17:58Z</time>
      </trkpt>
      <trkpt lat="50.57175" lon="1.87551">
        <ele>64.55</ele>
        <time>2014-05-03T08:18:04Z</time>
      </trkpt>
      <trkpt lat="50.57175" lon="1.87533">
        <ele>65.51</ele>
        <time>2014-05-03T08:18:12Z</time>
      </trkpt>
      <trkpt lat="50.57176" lon="1.87518">
        <ele>65.51</ele>
        <time>2014-05-03T08:18:20Z</time>
      </trkpt>
      <trkpt lat="50.57177" lon="1.87499">
        <ele>65.51</ele>
        <time>2014-05-03T08:18:30Z</time>
      </trkpt>
      <trkpt lat="50.57179" lon="1.87481">
        <ele>65.51</ele>
        <time>2014-05-03T08:18:39Z</time>
      </trkpt>
      <trkpt lat="50.57178" lon="1.87459">
        <ele>64.55</ele>
        <time>2014-05-03T08:18:49Z</time>
      </trkpt>
      <trkpt lat="50.57178" lon="1.8744">
        <ele>64.07</ele>
        <time>2014-05-03T08:18:56Z</time>
      </trkpt>
      <trkpt lat="50.5718" lon="1.8742">
        <ele>65.99</ele>
        <time>2014-05-03T08:19:05Z</time>
      </trkpt>
      <trkpt lat="50.5718" lon="1.874">
        <ele>66.47</ele>
        <time>2014-05-03T08:19:14Z</time>
      </trkpt>
      <trkpt lat="50.5718" lon="1.87382">
        <ele>65.51</ele>
        <time>2014-05-03T08:19:22Z</time>
      </trkpt>
      <trkpt lat="50.5718" lon="1.87364">
        <ele>66.47</ele>
        <time>2014-05-03T08:19:29Z</time>
      </trkpt>
      <trkpt lat="50.57179" lon="1.87348">
        <ele>67.43</ele>
        <time>2014-05-03T08:19:35Z</time>
      </trkpt>
      <trkpt lat="50.57179" lon="1.8733">
        <ele>67.91</ele>
        <time>2014-05-03T08:19:45Z</time>
      </trkpt>
      <trkpt lat="50.57178" lon="1.87312">
        <ele>67.91</ele>
        <time>2014-05-03T08:19:52Z</time>
      </trkpt>
      <trkpt lat="50.57177" lon="1.87294">
        <ele>69.83</ele>
        <time>2014-05-03T08:20:00Z</time>
      </trkpt>
      <trkpt lat="50.57174" lon="1.87275">
        <ele>70.31</ele>
        <time>2014-05-03T08:20:09Z</time>
      </trkpt>
      <trkpt lat="50.57173" lon="1.87258">
        <ele>70.79</ele>
        <time>2014-05-03T08:20:16Z</time>
      </trkpt>
      <trkpt lat="50.57172" lon="1.87242">
        <ele>70.79</ele>
        <time>2014-05-03T08:20:23Z</time>
      </trkpt>
      <trkpt lat="50.57171" lon="1.87224">
        <ele>70.79</ele>
        <time>2014-05-03T08:20:31Z</time>
      </trkpt>
      <trkpt lat="50.57168" lon="1.87206">
        <ele>71.27</ele>
        <time>2014-05-03T08:20:38Z</time>
      </trkpt>
      <trkpt lat="50.57165" lon="1.87192">
        <ele>72.24</ele>
        <time>2014-05-03T08:20:45Z</time>
      </trkpt>
      <trkpt lat="50.57163" lon="1.87178">
        <ele>71.76</ele>
        <time>2014-05-03T08:20:51Z</time>
      </trkpt>
      <trkpt lat="50.57161" lon="1.87161">
        <ele>71.76</ele>
        <time>2014-05-03T08:20:59Z</time>
      </trkpt>
      <trkpt lat="50.57159" lon="1.87146">
        <ele>72.72</ele>
        <time>2014-05-03T08:21:06Z</time>
      </trkpt>
      <trkpt lat="50.57154" lon="1.8713">
        <ele>73.2</ele>
        <time>2014-05-03T08:21:13Z</time>
      </trkpt>
      <trkpt lat="50.57148" lon="1.87118">
        <ele>72.72</ele>
        <time>2014-05-03T08:21:20Z</time>
      </trkpt>
      <trkpt lat="50.5714" lon="1.87108">
        <ele>73.2</ele>
        <time>2014-05-03T08:21:26Z</time>
      </trkpt>
      <trkpt lat="50.57132" lon="1.87101">
        <ele>73.68</ele>
        <time>2014-05-03T08:21:33Z</time>
      </trkpt>
      <trkpt lat="50.57122" lon="1.87095">
        <ele>75.12</ele>
        <time>2014-05-03T08:21:40Z</time>
      </trkpt>
      <trkpt lat="50.57111" lon="1.87093">
        <ele>75.6</ele>
        <time>2014-05-03T08:21:47Z</time>
      </trkpt>
      <trkpt lat="50.57102" lon="1.87089">
        <ele>75.12</ele>
        <time>2014-05-03T08:21:54Z</time>
      </trkpt>
      <trkpt lat="50.57093" lon="1.87082">
        <ele>75.12</ele>
        <time>2014-05-03T08:22:02Z</time>
      </trkpt>
      <trkpt lat="50.57087" lon="1.87066">
        <ele>77.04</ele>
        <time>2014-05-03T08:22:10Z</time>
      </trkpt>
      <trkpt lat="50.57085" lon="1.8705">
        <ele>76.08</ele>
        <time>2014-05-03T08:22:18Z</time>
      </trkpt>
      <trkpt lat="50.57081" lon="1.87032">
        <ele>76.56</ele>
        <time>2014-05-03T08:22:27Z</time>
      </trkpt>
      <trkpt lat="50.57079" lon="1.87014">
        <ele>78</ele>
        <time>2014-05-03T08:22:34Z</time>
      </trkpt>
      <trkpt lat="50.57077" lon="1.86999">
        <ele>78</ele>
        <time>2014-05-03T08:22:41Z</time>
      </trkpt>
      <trkpt lat="50.57076" lon="1.86985">
        <ele>78.48</ele>
        <time>2014-05-03T08:22:49Z</time>
      </trkpt>
      <trkpt lat="50.57075" lon="1.8697">
        <ele>78.97</ele>
        <time>2014-05-03T08:22:56Z</time>
      </trkpt>
      <trkpt lat="50.57073" lon="1.86952">
        <ele>78.48</ele>
        <time>2014-05-03T08:23:04Z</time>
      </trkpt>
      <trkpt lat="50.57073" lon="1.86938">
        <ele>78.48</ele>
        <time>2014-05-03T08:23:31Z</time>
      </trkpt>
      <trkpt lat="50.57068" lon="1.8692">
        <ele>78.97</ele>
        <time>2014-05-03T08:24:18Z</time>
      </trkpt>
      <trkpt lat="50.57068" lon="1.86904">
        <ele>78.97</ele>
        <time>2014-05-03T08:24:25Z</time>
      </trkpt>
      <trkpt lat="50.57066" lon="1.86885">
        <ele>77.52</ele>
        <time>2014-05-03T08:24:32Z</time>
      </trkpt>
      <trkpt lat="50.57063" lon="1.8687">
        <ele>78.48</ele>
        <time>2014-05-03T08:24:52Z</time>
      </trkpt>
      <trkpt lat="50.57061" lon="1.86855">
        <ele>78.48</ele>
        <time>2014-05-03T08:25:00Z</time>
      </trkpt>
      <trkpt lat="50.5706" lon="1.86838">
        <ele>78</ele>
        <time>2014-05-03T08:25:07Z</time>
      </trkpt>
      <trkpt lat="50.57058" lon="1.86823">
        <ele>78</ele>
        <time>2014-05-03T08:25:13Z</time>
      </trkpt>
      <trkpt lat="50.57058" lon="1.86806">
        <ele>78</ele>
        <time>2014-05-03T08:25:19Z</time>
      </trkpt>
      <trkpt lat="50.57056" lon="1.86789">
        <ele>78</ele>
        <time>2014-05-03T08:25:25Z</time>
      </trkpt>
      <trkpt lat="50.57055" lon="1.86773">
        <ele>77.52</ele>
        <time>2014-05-03T08:25:31Z</time>
      </trkpt>
      <trkpt lat="50.57053" lon="1.86757">
        <ele>77.04</ele>
        <time>2014-05-03T08:25:36Z</time>
      </trkpt>
      <trkpt lat="50.57052" lon="1.86744">
        <ele>77.04</ele>
        <time>2014-05-03T08:25:41Z</time>
      </trkpt>
      <trkpt lat="50.57051" lon="1.86727">
        <ele>77.04</ele>
        <time>2014-05-03T08:25:47Z</time>
      </trkpt>
      <trkpt lat="50.57051" lon="1.8671">
        <ele>76.56</ele>
        <time>2014-05-03T08:25:53Z</time>
      </trkpt>
      <trkpt lat="50.57048" lon="1.86695">
        <ele>76.08</ele>
        <time>2014-05-03T08:25:58Z</time>
      </trkpt>
      <trkpt lat="50.57047" lon="1.86681">
        <ele>76.08</ele>
        <time>2014-05-03T08:26:03Z</time>
      </trkpt>
      <trkpt lat="50.57048" lon="1.86667">
        <ele>75.12</ele>
        <time>2014-05-03T08:26:08Z</time>
      </trkpt>
      <trkpt lat="50.57048" lon="1.86654">
        <ele>75.12</ele>
        <time>2014-05-03T08:26:13Z</time>
      </trkpt>
      <trkpt lat="50.57047" lon="1.8664">
        <ele>74.64</ele>
        <time>2014-05-03T08:26:19Z</time>
      </trkpt>
      <trkpt lat="50.57047" lon="1.86624">
        <ele>74.16</ele>
        <time>2014-05-03T08:26:25Z</time>
      </trkpt>
      <trkpt lat="50.57047" lon="1.86608">
        <ele>73.2</ele>
        <time>2014-05-03T08:26:30Z</time>
      </trkpt>
      <trkpt lat="50.57047" lon="1.86593">
        <ele>72.72</ele>
        <time>2014-05-03T08:26:35Z</time>
      </trkpt>
      <trkpt lat="50.57047" lon="1.86578">
        <ele>72.72</ele>
        <time>2014-05-03T08:26:41Z</time>
      </trkpt>
      <trkpt lat="50.57045" lon="1.86563">
        <ele>72.24</ele>
        <time>2014-05-03T08:26:47Z</time>
      </trkpt>
      <trkpt lat="50.57045" lon="1.86547">
        <ele>71.27</ele>
        <time>2014-05-03T08:26:53Z</time>
      </trkpt>
      <trkpt lat="50.57045" lon="1.86531">
        <ele>71.27</ele>
        <time>2014-05-03T08:26:59Z</time>
      </trkpt>
      <trkpt lat="50.57045" lon="1.86514">
        <ele>70.79</ele>
        <time>2014-05-03T08:27:05Z</time>
      </trkpt>
      <trkpt lat="50.57045" lon="1.86498">
        <ele>70.79</ele>
        <time>2014-05-03T08:27:11Z</time>
      </trkpt>
      <trkpt lat="50.57042" lon="1.8648">
        <ele>69.83</ele>
        <time>2014-05-03T08:27:18Z</time>
      </trkpt>
      <trkpt lat="50.5704" lon="1.86462">
        <ele>69.35</ele>
        <time>2014-05-03T08:27:24Z</time>
      </trkpt>
      <trkpt lat="50.57039" lon="1.86447">
        <ele>69.35</ele>
        <time>2014-05-03T08:27:29Z</time>
      </trkpt>
      <trkpt lat="50.57039" lon="1.86433">
        <ele>68.87</ele>
        <time>2014-05-03T08:27:34Z</time>
      </trkpt>
      <trkpt lat="50.57039" lon="1.86417">
        <ele>68.39</ele>
        <time>2014-05-03T08:27:40Z</time>
      </trkpt>
      <trkpt lat="50.57039" lon="1.86403">
        <ele>67.91</ele>
        <time>2014-05-03T08:27:45Z</time>
      </trkpt>
      <trkpt lat="50.57039" lon="1.86388">
        <ele>67.43</ele>
        <time>2014-05-03T08:27:52Z</time>
      </trkpt>
      <trkpt lat="50.57038" lon="1.86373">
        <ele>67.43</ele>
        <time>2014-05-03T08:27:57Z</time>
      </trkpt>
      <trkpt lat="50.57037" lon="1.86358">
        <ele>66.47</ele>
        <time>2014-05-03T08:28:02Z</time>
      </trkpt>
      <trkpt lat="50.57038" lon="1.86343">
        <ele>65.99</ele>
        <time>2014-05-03T08:28:08Z</time>
      </trkpt>
      <trkpt lat="50.57039" lon="1.86328">
        <ele>65.99</ele>
        <time>2014-05-03T08:28:15Z</time>
      </trkpt>
      <trkpt lat="50.57039" lon="1.86313">
        <ele>65.03</ele>
        <time>2014-05-03T08:28:21Z</time>
      </trkpt>
      <trkpt lat="50.57038" lon="1.86298">
        <ele>65.03</ele>
        <time>2014-05-03T08:28:26Z</time>
      </trkpt>
      <trkpt lat="50.57039" lon="1.86283">
        <ele>64.55</ele>
        <time>2014-05-03T08:28:32Z</time>
      </trkpt>
      <trkpt lat="50.5704" lon="1.86266">
        <ele>64.55</ele>
        <time>2014-05-03T08:28:38Z</time>
      </trkpt>
      <trkpt lat="50.57041" lon="1.8625">
        <ele>64.07</ele>
        <time>2014-05-03T08:28:44Z</time>
      </trkpt>
      <trkpt lat="50.57041" lon="1.86234">
        <ele>64.55</ele>
        <time>2014-05-03T08:28:50Z</time>
      </trkpt>
      <trkpt lat="50.57042" lon="1.86219">
        <ele>64.07</ele>
        <time>2014-05-03T08:28:56Z</time>
      </trkpt>
      <trkpt lat="50.57042" lon="1.86201">
        <ele>63.58</ele>
        <time>2014-05-03T08:29:02Z</time>
      </trkpt>
      <trkpt lat="50.57043" lon="1.86185">
        <ele>63.58</ele>
        <time>2014-05-03T08:29:08Z</time>
      </trkpt>
      <trkpt lat="50.57042" lon="1.86169">
        <ele>63.1</ele>
        <time>2014-05-03T08:29:14Z</time>
      </trkpt>
      <trkpt lat="50.57041" lon="1.86155">
        <ele>62.62</ele>
        <time>2014-05-03T08:29:20Z</time>
      </trkpt>
      <trkpt lat="50.57039" lon="1.86139">
        <ele>62.62</ele>
        <time>2014-05-03T08:29:26Z</time>
      </trkpt>
      <trkpt lat="50.57035" lon="1.86126">
        <ele>62.62</ele>
        <time>2014-05-03T08:29:31Z</time>
      </trkpt>
      <trkpt lat="50.57032" lon="1.86111">
        <ele>62.14</ele>
        <time>2014-05-03T08:29:36Z</time>
      </trkpt>
      <trkpt lat="50.57029" lon="1.86096">
        <ele>62.62</ele>
        <time>2014-05-03T08:29:41Z</time>
      </trkpt>
      <trkpt lat="50.57026" lon="1.86083">
        <ele>61.66</ele>
        <time>2014-05-03T08:29:46Z</time>
      </trkpt>
      <trkpt lat="50.57023" lon="1.86068">
        <ele>61.66</ele>
        <time>2014-05-03T08:29:51Z</time>
      </trkpt>
      <trkpt lat="50.57019" lon="1.86055">
        <ele>61.66</ele>
        <time>2014-05-03T08:29:56Z</time>
      </trkpt>
      <trkpt lat="50.57016" lon="1.86041">
        <ele>61.18</ele>
        <time>2014-05-03T08:30:01Z</time>
      </trkpt>
      <trkpt lat="50.57013" lon="1.86029">
        <ele>60.7</ele>
        <time>2014-05-03T08:30:06Z</time>
      </trkpt>
      <trkpt lat="50.5701" lon="1.86015">
        <ele>61.18</ele>
        <time>2014-05-03T08:30:11Z</time>
      </trkpt>
      <trkpt lat="50.57007" lon="1.86003">
        <ele>60.7</ele>
        <time>2014-05-03T08:30:16Z</time>
      </trkpt>
      <trkpt lat="50.57005" lon="1.85989">
        <ele>60.7</ele>
        <time>2014-05-03T08:30:21Z</time>
      </trkpt>
      <trkpt lat="50.57001" lon="1.85975">
        <ele>60.7</ele>
        <time>2014-05-03T08:30:26Z</time>
      </trkpt>
      <trkpt lat="50.56997" lon="1.85962">
        <ele>60.22</ele>
        <time>2014-05-03T08:30:31Z</time>
      </trkpt>
      <trkpt lat="50.56994" lon="1.85949">
        <ele>60.7</ele>
        <time>2014-05-03T08:30:36Z</time>
      </trkpt>
      <trkpt lat="50.56992" lon="1.85935">
        <ele>60.7</ele>
        <time>2014-05-03T08:30:41Z</time>
      </trkpt>
      <trkpt lat="50.56989" lon="1.85922">
        <ele>60.22</ele>
        <time>2014-05-03T08:30:46Z</time>
      </trkpt>
      <trkpt lat="50.56987" lon="1.85908">
        <ele>60.22</ele>
        <time>2014-05-03T08:30:51Z</time>
      </trkpt>
      <trkpt lat="50.56984" lon="1.85893">
        <ele>60.7</ele>
        <time>2014-05-03T08:30:56Z</time>
      </trkpt>
      <trkpt lat="50.56981" lon="1.8588">
        <ele>60.22</ele>
        <time>2014-05-03T08:31:01Z</time>
      </trkpt>
      <trkpt lat="50.56978" lon="1.85865">
        <ele>60.22</ele>
        <time>2014-05-03T08:31:07Z</time>
      </trkpt>
      <trkpt lat="50.56974" lon="1.85851">
        <ele>60.7</ele>
        <time>2014-05-03T08:31:13Z</time>
      </trkpt>
      <trkpt lat="50.56971" lon="1.85836">
        <ele>60.22</ele>
        <time>2014-05-03T08:31:18Z</time>
      </trkpt>
      <trkpt lat="50.56969" lon="1.85823">
        <ele>59.74</ele>
        <time>2014-05-03T08:31:23Z</time>
      </trkpt>
      <trkpt lat="50.56966" lon="1.8581">
        <ele>60.7</ele>
        <time>2014-05-03T08:31:28Z</time>
      </trkpt>
      <trkpt lat="50.56963" lon="1.85795">
        <ele>60.22</ele>
        <time>2014-05-03T08:31:33Z</time>
      </trkpt>
      <trkpt lat="50.5696" lon="1.85781">
        <ele>60.7</ele>
        <time>2014-05-03T08:31:38Z</time>
      </trkpt>
      <trkpt lat="50.56958" lon="1.85767">
        <ele>60.22</ele>
        <time>2014-05-03T08:31:43Z</time>
      </trkpt>
      <trkpt lat="50.56955" lon="1.85751">
        <ele>60.22</ele>
        <time>2014-05-03T08:31:49Z</time>
      </trkpt>
      <trkpt lat="50.56952" lon="1.85736">
        <ele>61.18</ele>
        <time>2014-05-03T08:31:55Z</time>
      </trkpt>
      <trkpt lat="50.5695" lon="1.85722">
        <ele>60.22</ele>
        <time>2014-05-03T08:32:00Z</time>
      </trkpt>
      <trkpt lat="50.56948" lon="1.85707">
        <ele>61.18</ele>
        <time>2014-05-03T08:32:06Z</time>
      </trkpt>
      <trkpt lat="50.56947" lon="1.85691">
        <ele>60.7</ele>
        <time>2014-05-03T08:32:12Z</time>
      </trkpt>
      <trkpt lat="50.56945" lon="1.85676">
        <ele>60.7</ele>
        <time>2014-05-03T08:32:18Z</time>
      </trkpt>
      <trkpt lat="50.56944" lon="1.85661">
        <ele>61.18</ele>
        <time>2014-05-03T08:32:24Z</time>
      </trkpt>
      <trkpt lat="50.56943" lon="1.85645">
        <ele>61.18</ele>
        <time>2014-05-03T08:32:30Z</time>
      </trkpt>
      <trkpt lat="50.56942" lon="1.85629">
        <ele>61.66</ele>
        <time>2014-05-03T08:32:36Z</time>
      </trkpt>
      <trkpt lat="50.56942" lon="1.85613">
        <ele>62.62</ele>
        <time>2014-05-03T08:32:42Z</time>
      </trkpt>
      <trkpt lat="50.56941" lon="1.85598">
        <ele>62.14</ele>
        <time>2014-05-03T08:32:48Z</time>
      </trkpt>
      <trkpt lat="50.56941" lon="1.85581">
        <ele>62.62</ele>
        <time>2014-05-03T08:32:54Z</time>
      </trkpt>
      <trkpt lat="50.56942" lon="1.85567">
        <ele>62.62</ele>
        <time>2014-05-03T08:32:59Z</time>
      </trkpt>
      <trkpt lat="50.56941" lon="1.85552">
        <ele>62.62</ele>
        <time>2014-05-03T08:33:04Z</time>
      </trkpt>
      <trkpt lat="50.5694" lon="1.85538">
        <ele>63.1</ele>
        <time>2014-05-03T08:33:09Z</time>
      </trkpt>
      <trkpt lat="50.5694" lon="1.85521">
        <ele>62.62</ele>
        <time>2014-05-03T08:33:15Z</time>
      </trkpt>
      <trkpt lat="50.5694" lon="1.85504">
        <ele>63.1</ele>
        <time>2014-05-03T08:33:21Z</time>
      </trkpt>
      <trkpt lat="50.56938" lon="1.85488">
        <ele>63.1</ele>
        <time>2014-05-03T08:33:27Z</time>
      </trkpt>
      <trkpt lat="50.56937" lon="1.8547">
        <ele>62.62</ele>
        <time>2014-05-03T08:33:33Z</time>
      </trkpt>
      <trkpt lat="50.56938" lon="1.85452">
        <ele>63.1</ele>
        <time>2014-05-03T08:33:39Z</time>
      </trkpt>
      <trkpt lat="50.56938" lon="1.85437">
        <ele>62.14</ele>
        <time>2014-05-03T08:33:44Z</time>
      </trkpt>
      <trkpt lat="50.56938" lon="1.85422">
        <ele>62.14</ele>
        <time>2014-05-03T08:33:49Z</time>
      </trkpt>
      <trkpt lat="50.56939" lon="1.85406">
        <ele>61.66</ele>
        <time>2014-05-03T08:33:54Z</time>
      </trkpt>
      <trkpt lat="50.5694" lon="1.85391">
        <ele>61.18</ele>
        <time>2014-05-03T08:34:00Z</time>
      </trkpt>
      <trkpt lat="50.56941" lon="1.85376">
        <ele>61.18</ele>
        <time>2014-05-03T08:34:06Z</time>
      </trkpt>
      <trkpt lat="50.56942" lon="1.85361">
        <ele>60.7</ele>
        <time>2014-05-03T08:34:12Z</time>
      </trkpt>
      <trkpt lat="50.56943" lon="1.85347">
        <ele>60.22</ele>
        <time>2014-05-03T08:34:18Z</time>
      </trkpt>
      <trkpt lat="50.56944" lon="1.85331">
        <ele>60.22</ele>
        <time>2014-05-03T08:34:24Z</time>
      </trkpt>
      <trkpt lat="50.56947" lon="1.85315">
        <ele>59.74</ele>
        <time>2014-05-03T08:34:30Z</time>
      </trkpt>
      <trkpt lat="50.56948" lon="1.85299">
        <ele>59.74</ele>
        <time>2014-05-03T08:34:36Z</time>
      </trkpt>
      <trkpt lat="50.5695" lon="1.85283">
        <ele>59.74</ele>
        <time>2014-05-03T08:34:42Z</time>
      </trkpt>
      <trkpt lat="50.5695" lon="1.85265">
        <ele>59.26</ele>
        <time>2014-05-03T08:34:48Z</time>
      </trkpt>
      <trkpt lat="50.56953" lon="1.85251">
        <ele>58.78</ele>
        <time>2014-05-03T08:34:53Z</time>
      </trkpt>
      <trkpt lat="50.56956" lon="1.85234">
        <ele>58.3</ele>
        <time>2014-05-03T08:34:59Z</time>
      </trkpt>
      <trkpt lat="50.56957" lon="1.85217">
        <ele>58.3</ele>
        <time>2014-05-03T08:35:05Z</time>
      </trkpt>
      <trkpt lat="50.56959" lon="1.852">
        <ele>57.82</ele>
        <time>2014-05-03T08:35:11Z</time>
      </trkpt>
      <trkpt lat="50.56961" lon="1.85182">
        <ele>57.34</ele>
        <time>2014-05-03T08:35:17Z</time>
      </trkpt>
      <trkpt lat="50.56966" lon="1.85167">
        <ele>57.34</ele>
        <time>2014-05-03T08:35:23Z</time>
      </trkpt>
      <trkpt lat="50.56966" lon="1.85149">
        <ele>56.86</ele>
        <time>2014-05-03T08:35:29Z</time>
      </trkpt>
      <trkpt lat="50.56966" lon="1.85133">
        <ele>56.86</ele>
        <time>2014-05-03T08:35:35Z</time>
      </trkpt>
      <trkpt lat="50.56964" lon="1.85115">
        <ele>56.86</ele>
        <time>2014-05-03T08:35:41Z</time>
      </trkpt>
      <trkpt lat="50.56961" lon="1.85099">
        <ele>56.86</ele>
        <time>2014-05-03T08:35:47Z</time>
      </trkpt>
      <trkpt lat="50.56959" lon="1.85083">
        <ele>57.34</ele>
        <time>2014-05-03T08:35:53Z</time>
      </trkpt>
      <trkpt lat="50.56957" lon="1.85065">
        <ele>57.34</ele>
        <time>2014-05-03T08:35:59Z</time>
      </trkpt>
      <trkpt lat="50.56955" lon="1.85049">
        <ele>56.86</ele>
        <time>2014-05-03T08:36:05Z</time>
      </trkpt>
      <trkpt lat="50.56952" lon="1.85033">
        <ele>55.41</ele>
        <time>2014-05-03T08:36:10Z</time>
      </trkpt>
      <trkpt lat="50.5695" lon="1.85016">
        <ele>55.89</ele>
        <time>2014-05-03T08:36:16Z</time>
      </trkpt>
      <trkpt lat="50.56946" lon="1.85002">
        <ele>55.89</ele>
        <time>2014-05-03T08:36:21Z</time>
      </trkpt>
      <trkpt lat="50.56945" lon="1.84985">
        <ele>55.89</ele>
        <time>2014-05-03T08:36:27Z</time>
      </trkpt>
      <trkpt lat="50.56943" lon="1.84968">
        <ele>55.41</ele>
        <time>2014-05-03T08:36:33Z</time>
      </trkpt>
      <trkpt lat="50.56942" lon="1.84954">
        <ele>54.45</ele>
        <time>2014-05-03T08:36:39Z</time>
      </trkpt>
      <trkpt lat="50.56941" lon="1.84936">
        <ele>55.41</ele>
        <time>2014-05-03T08:36:46Z</time>
      </trkpt>
      <trkpt lat="50.5694" lon="1.84918">
        <ele>55.89</ele>
        <time>2014-05-03T08:36:52Z</time>
      </trkpt>
      <trkpt lat="50.56939" lon="1.84901">
        <ele>55.41</ele>
        <time>2014-05-03T08:36:57Z</time>
      </trkpt>
      <trkpt lat="50.56937" lon="1.84884">
        <ele>55.41</ele>
        <time>2014-05-03T08:37:03Z</time>
      </trkpt>
      <trkpt lat="50.56938" lon="1.84866">
        <ele>54.93</ele>
        <time>2014-05-03T08:37:10Z</time>
      </trkpt>
      <trkpt lat="50.56937" lon="1.84845">
        <ele>54.93</ele>
        <time>2014-05-03T08:37:18Z</time>
      </trkpt>
      <trkpt lat="50.56938" lon="1.84829">
        <ele>55.41</ele>
        <time>2014-05-03T08:37:24Z</time>
      </trkpt>
      <trkpt lat="50.5694" lon="1.84812">
        <ele>54.93</ele>
        <time>2014-05-03T08:37:30Z</time>
      </trkpt>
      <trkpt lat="50.5694" lon="1.84794">
        <ele>54.93</ele>
        <time>2014-05-03T08:37:36Z</time>
      </trkpt>
      <trkpt lat="50.56941" lon="1.84778">
        <ele>54.93</ele>
        <time>2014-05-03T08:37:42Z</time>
      </trkpt>
      <trkpt lat="50.56941" lon="1.84761">
        <ele>55.41</ele>
        <time>2014-05-03T08:37:48Z</time>
      </trkpt>
      <trkpt lat="50.56942" lon="1.84746">
        <ele>55.89</ele>
        <time>2014-05-03T08:37:53Z</time>
      </trkpt>
      <trkpt lat="50.56942" lon="1.84728">
        <ele>55.89</ele>
        <time>2014-05-03T08:37:59Z</time>
      </trkpt>
      <trkpt lat="50.56942" lon="1.84711">
        <ele>55.89</ele>
        <time>2014-05-03T08:38:05Z</time>
      </trkpt>
      <trkpt lat="50.56942" lon="1.84695">
        <ele>56.37</ele>
        <time>2014-05-03T08:38:11Z</time>
      </trkpt>
      <trkpt lat="50.56942" lon="1.84677">
        <ele>56.37</ele>
        <time>2014-05-03T08:38:17Z</time>
      </trkpt>
      <trkpt lat="50.56942" lon="1.84662">
        <ele>56.37</ele>
        <time>2014-05-03T08:38:22Z</time>
      </trkpt>
      <trkpt lat="50.56943" lon="1.84645">
        <ele>55.89</ele>
        <time>2014-05-03T08:38:28Z</time>
      </trkpt>
      <trkpt lat="50.56945" lon="1.84627">
        <ele>55.41</ele>
        <time>2014-05-03T08:38:34Z</time>
      </trkpt>
      <trkpt lat="50.56946" lon="1.84611">
        <ele>55.41</ele>
        <time>2014-05-03T08:38:40Z</time>
      </trkpt>
      <trkpt lat="50.56947" lon="1.84593">
        <ele>55.89</ele>
        <time>2014-05-03T08:38:46Z</time>
      </trkpt>
      <trkpt lat="50.56947" lon="1.84578">
        <ele>55.41</ele>
        <time>2014-05-03T08:38:52Z</time>
      </trkpt>
      <trkpt lat="50.56947" lon="1.84563">
        <ele>55.41</ele>
        <time>2014-05-03T08:38:58Z</time>
      </trkpt>
      <trkpt lat="50.56949" lon="1.84547">
        <ele>55.41</ele>
        <time>2014-05-03T08:39:04Z</time>
      </trkpt>
      <trkpt lat="50.56949" lon="1.8453">
        <ele>55.41</ele>
        <time>2014-05-03T08:39:10Z</time>
      </trkpt>
      <trkpt lat="50.56949" lon="1.84515">
        <ele>55.41</ele>
        <time>2014-05-03T08:39:16Z</time>
      </trkpt>
      <trkpt lat="50.56949" lon="1.84499">
        <ele>55.41</ele>
        <time>2014-05-03T08:39:22Z</time>
      </trkpt>
      <trkpt lat="50.5695" lon="1.8448">
        <ele>55.41</ele>
        <time>2014-05-03T08:39:29Z</time>
      </trkpt>
      <trkpt lat="50.5695" lon="1.84464">
        <ele>54.93</ele>
        <time>2014-05-03T08:39:35Z</time>
      </trkpt>
      <trkpt lat="50.5695" lon="1.84446">
        <ele>54.93</ele>
        <time>2014-05-03T08:39:41Z</time>
      </trkpt>
      <trkpt lat="50.56951" lon="1.84429">
        <ele>54.93</ele>
        <time>2014-05-03T08:39:47Z</time>
      </trkpt>
      <trkpt lat="50.56952" lon="1.84412">
        <ele>54.93</ele>
        <time>2014-05-03T08:39:54Z</time>
      </trkpt>
      <trkpt lat="50.56953" lon="1.84394">
        <ele>54.93</ele>
        <time>2014-05-03T08:40:01Z</time>
      </trkpt>
      <trkpt lat="50.56955" lon="1.84375">
        <ele>54.93</ele>
        <time>2014-05-03T08:40:08Z</time>
      </trkpt>
      <trkpt lat="50.56956" lon="1.84358">
        <ele>54.93</ele>
        <time>2014-05-03T08:40:14Z</time>
      </trkpt>
      <trkpt lat="50.56959" lon="1.84341">
        <ele>53.97</ele>
        <time>2014-05-03T08:40:20Z</time>
      </trkpt>
      <trkpt lat="50.56961" lon="1.84324">
        <ele>54.45</ele>
        <time>2014-05-03T08:40:26Z</time>
      </trkpt>
      <trkpt lat="50.56961" lon="1.84304">
        <ele>53.49</ele>
        <time>2014-05-03T08:40:33Z</time>
      </trkpt>
      <trkpt lat="50.56964" lon="1.84287">
        <ele>53.01</ele>
        <time>2014-05-03T08:40:39Z</time>
      </trkpt>
      <trkpt lat="50.56965" lon="1.84271">
        <ele>53.01</ele>
        <time>2014-05-03T08:40:45Z</time>
      </trkpt>
      <trkpt lat="50.56967" lon="1.84253">
        <ele>53.01</ele>
        <time>2014-05-03T08:40:51Z</time>
      </trkpt>
      <trkpt lat="50.56969" lon="1.84236">
        <ele>52.53</ele>
        <time>2014-05-03T08:40:58Z</time>
      </trkpt>
      <trkpt lat="50.5697" lon="1.8422">
        <ele>52.53</ele>
        <time>2014-05-03T08:41:04Z</time>
      </trkpt>
      <trkpt lat="50.56972" lon="1.84202">
        <ele>53.01</ele>
        <time>2014-05-03T08:41:11Z</time>
      </trkpt>
      <trkpt lat="50.56973" lon="1.84185">
        <ele>52.05</ele>
        <time>2014-05-03T08:41:17Z</time>
      </trkpt>
      <trkpt lat="50.56974" lon="1.84167">
        <ele>52.05</ele>
        <time>2014-05-03T08:41:23Z</time>
      </trkpt>
      <trkpt lat="50.56976" lon="1.84151">
        <ele>51.57</ele>
        <time>2014-05-03T08:41:29Z</time>
      </trkpt>
      <trkpt lat="50.56979" lon="1.84135">
        <ele>51.57</ele>
        <time>2014-05-03T08:41:35Z</time>
      </trkpt>
      <trkpt lat="50.56981" lon="1.84118">
        <ele>51.09</ele>
        <time>2014-05-03T08:41:42Z</time>
      </trkpt>
      <trkpt lat="50.56985" lon="1.841">
        <ele>50.61</ele>
        <time>2014-05-03T08:41:49Z</time>
      </trkpt>
      <trkpt lat="50.5699" lon="1.84087">
        <ele>50.61</ele>
        <time>2014-05-03T08:41:55Z</time>
      </trkpt>
      <trkpt lat="50.56996" lon="1.84072">
        <ele>50.13</ele>
        <time>2014-05-03T08:42:01Z</time>
      </trkpt>
      <trkpt lat="50.57001" lon="1.84056">
        <ele>49.65</ele>
        <time>2014-05-03T08:42:07Z</time>
      </trkpt>
      <trkpt lat="50.57005" lon="1.84038">
        <ele>50.13</ele>
        <time>2014-05-03T08:42:14Z</time>
      </trkpt>
      <trkpt lat="50.5701" lon="1.84021">
        <ele>49.65</ele>
        <time>2014-05-03T08:42:21Z</time>
      </trkpt>
      <trkpt lat="50.57014" lon="1.84004">
        <ele>49.65</ele>
        <time>2014-05-03T08:42:28Z</time>
      </trkpt>
      <trkpt lat="50.57017" lon="1.83986">
        <ele>49.16</ele>
        <time>2014-05-03T08:42:34Z</time>
      </trkpt>
      <trkpt lat="50.57021" lon="1.83972">
        <ele>48.68</ele>
        <time>2014-05-03T08:42:40Z</time>
      </trkpt>
      <trkpt lat="50.57026" lon="1.83956">
        <ele>49.16</ele>
        <time>2014-05-03T08:42:47Z</time>
      </trkpt>
      <trkpt lat="50.57029" lon="1.83941">
        <ele>48.68</ele>
        <time>2014-05-03T08:42:54Z</time>
      </trkpt>
      <trkpt lat="50.57033" lon="1.83924">
        <ele>47.24</ele>
        <time>2014-05-03T08:43:00Z</time>
      </trkpt>
      <trkpt lat="50.57036" lon="1.83906">
        <ele>46.76</ele>
        <time>2014-05-03T08:43:05Z</time>
      </trkpt>
      <trkpt lat="50.57042" lon="1.83889">
        <ele>48.2</ele>
        <time>2014-05-03T08:43:13Z</time>
      </trkpt>
      <trkpt lat="50.57048" lon="1.83875">
        <ele>48.2</ele>
        <time>2014-05-03T08:43:30Z</time>
      </trkpt>
      <trkpt lat="50.57055" lon="1.83859">
        <ele>48.2</ele>
        <time>2014-05-03T08:43:37Z</time>
      </trkpt>
      <trkpt lat="50.57061" lon="1.83843">
        <ele>47.72</ele>
        <time>2014-05-03T08:43:44Z</time>
      </trkpt>
      <trkpt lat="50.57068" lon="1.83829">
        <ele>48.2</ele>
        <time>2014-05-03T08:43:51Z</time>
      </trkpt>
      <trkpt lat="50.57073" lon="1.83815">
        <ele>48.2</ele>
        <time>2014-05-03T08:44:28Z</time>
      </trkpt>
      <trkpt lat="50.57078" lon="1.83798">
        <ele>48.2</ele>
        <time>2014-05-03T08:44:36Z</time>
      </trkpt>
      <trkpt lat="50.57081" lon="1.83783">
        <ele>48.2</ele>
        <time>2014-05-03T08:44:43Z</time>
      </trkpt>
      <trkpt lat="50.57079" lon="1.83767">
        <ele>48.68</ele>
        <time>2014-05-03T08:44:51Z</time>
      </trkpt>
      <trkpt lat="50.57074" lon="1.83753">
        <ele>48.2</ele>
        <time>2014-05-03T08:44:57Z</time>
      </trkpt>
      <trkpt lat="50.57068" lon="1.8374">
        <ele>48.2</ele>
        <time>2014-05-03T08:45:03Z</time>
      </trkpt>
      <trkpt lat="50.57062" lon="1.83727">
        <ele>48.2</ele>
        <time>2014-05-03T08:45:09Z</time>
      </trkpt>
      <trkpt lat="50.57055" lon="1.83715">
        <ele>48.68</ele>
        <time>2014-05-03T08:45:15Z</time>
      </trkpt>
      <trkpt lat="50.57048" lon="1.83702">
        <ele>47.72</ele>
        <time>2014-05-03T08:45:21Z</time>
      </trkpt>
      <trkpt lat="50.57041" lon="1.83691">
        <ele>48.68</ele>
        <time>2014-05-03T08:45:27Z</time>
      </trkpt>
      <trkpt lat="50.57034" lon="1.83678">
        <ele>47.72</ele>
        <time>2014-05-03T08:45:33Z</time>
      </trkpt>
      <trkpt lat="50.57026" lon="1.83667">
        <ele>47.72</ele>
        <time>2014-05-03T08:45:38Z</time>
      </trkpt>
      <trkpt lat="50.5702" lon="1.83654">
        <ele>47.72</ele>
        <time>2014-05-03T08:45:44Z</time>
      </trkpt>
      <trkpt lat="50.57013" lon="1.83641">
        <ele>47.24</ele>
        <time>2014-05-03T08:45:50Z</time>
      </trkpt>
      <trkpt lat="50.57006" lon="1.83628">
        <ele>47.24</ele>
        <time>2014-05-03T08:45:56Z</time>
      </trkpt>
      <trkpt lat="50.56998" lon="1.83617">
        <ele>47.72</ele>
        <time>2014-05-03T08:46:02Z</time>
      </trkpt>
      <trkpt lat="50.56992" lon="1.83606">
        <ele>47.24</ele>
        <time>2014-05-03T08:46:07Z</time>
      </trkpt>
      <trkpt lat="50.56986" lon="1.83594">
        <ele>47.72</ele>
        <time>2014-05-03T08:46:13Z</time>
      </trkpt>
      <trkpt lat="50.5698" lon="1.83581">
        <ele>47.24</ele>
        <time>2014-05-03T08:46:19Z</time>
      </trkpt>
      <trkpt lat="50.56975" lon="1.83565">
        <ele>47.72</ele>
        <time>2014-05-03T08:46:25Z</time>
      </trkpt>
      <trkpt lat="50.5697" lon="1.83551">
        <ele>47.72</ele>
        <time>2014-05-03T08:46:31Z</time>
      </trkpt>
      <trkpt lat="50.56965" lon="1.83535">
        <ele>48.2</ele>
        <time>2014-05-03T08:46:38Z</time>
      </trkpt>
      <trkpt lat="50.56958" lon="1.83521">
        <ele>47.72</ele>
        <time>2014-05-03T08:46:44Z</time>
      </trkpt>
      <trkpt lat="50.56951" lon="1.8351">
        <ele>47.72</ele>
        <time>2014-05-03T08:46:49Z</time>
      </trkpt>
      <trkpt lat="50.56944" lon="1.835">
        <ele>46.76</ele>
        <time>2014-05-03T08:46:54Z</time>
      </trkpt>
      <trkpt lat="50.56938" lon="1.83486">
        <ele>46.76</ele>
        <time>2014-05-03T08:47:00Z</time>
      </trkpt>
      <trkpt lat="50.56934" lon="1.83476">
        <ele>46.28</ele>
        <time>2014-05-03T08:47:05Z</time>
      </trkpt>
      <trkpt lat="50.56928" lon="1.83461">
        <ele>46.28</ele>
        <time>2014-05-03T08:47:11Z</time>
      </trkpt>
      <trkpt lat="50.56924" lon="1.83447">
        <ele>46.28</ele>
        <time>2014-05-03T08:47:17Z</time>
      </trkpt>
      <trkpt lat="50.5692" lon="1.83433">
        <ele>45.8</ele>
        <time>2014-05-03T08:47:23Z</time>
      </trkpt>
      <trkpt lat="50.56915" lon="1.83416">
        <ele>45.8</ele>
        <time>2014-05-03T08:47:30Z</time>
      </trkpt>
      <trkpt lat="50.56912" lon="1.83402">
        <ele>45.32</ele>
        <time>2014-05-03T08:47:36Z</time>
      </trkpt>
      <trkpt lat="50.5691" lon="1.83385">
        <ele>45.8</ele>
        <time>2014-05-03T08:47:42Z</time>
      </trkpt>
      <trkpt lat="50.56908" lon="1.83369">
        <ele>45.32</ele>
        <time>2014-05-03T08:47:48Z</time>
      </trkpt>
      <trkpt lat="50.56906" lon="1.8335">
        <ele>45.32</ele>
        <time>2014-05-03T08:47:55Z</time>
      </trkpt>
      <trkpt lat="50.56904" lon="1.83334">
        <ele>45.8</ele>
        <time>2014-05-03T08:48:01Z</time>
      </trkpt>
      <trkpt lat="50.569" lon="1.83319">
        <ele>45.8</ele>
        <time>2014-05-03T08:48:07Z</time>
      </trkpt>
      <trkpt lat="50.56895" lon="1.83305">
        <ele>45.8</ele>
        <time>2014-05-03T08:48:17Z</time>
      </trkpt>
      <trkpt lat="50.56889" lon="1.83299">
        <ele>45.32</ele>
        <time>2014-05-03T08:48:29Z</time>
      </trkpt>
      <trkpt lat="50.56883" lon="1.83288">
        <ele>45.32</ele>
        <time>2014-05-03T08:48:36Z</time>
      </trkpt>
      <trkpt lat="50.56876" lon="1.83278">
        <ele>45.32</ele>
        <time>2014-05-03T08:48:42Z</time>
      </trkpt>
      <trkpt lat="50.56869" lon="1.83267">
        <ele>45.8</ele>
        <time>2014-05-03T08:48:48Z</time>
      </trkpt>
      <trkpt lat="50.56862" lon="1.83257">
        <ele>46.28</ele>
        <time>2014-05-03T08:48:54Z</time>
      </trkpt>
      <trkpt lat="50.56855" lon="1.83246">
        <ele>45.8</ele>
        <time>2014-05-03T08:49:00Z</time>
      </trkpt>
      <trkpt lat="50.56849" lon="1.83234">
        <ele>46.28</ele>
        <time>2014-05-03T08:49:06Z</time>
      </trkpt>
      <trkpt lat="50.56845" lon="1.8322">
        <ele>46.76</ele>
        <time>2014-05-03T08:49:12Z</time>
      </trkpt>
      <trkpt lat="50.5684" lon="1.83206">
        <ele>46.76</ele>
        <time>2014-05-03T08:49:18Z</time>
      </trkpt>
      <trkpt lat="50.56835" lon="1.83191">
        <ele>47.24</ele>
        <time>2014-05-03T08:49:25Z</time>
      </trkpt>
      <trkpt lat="50.56827" lon="1.83175">
        <ele>47.24</ele>
        <time>2014-05-03T08:49:32Z</time>
      </trkpt>
      <trkpt lat="50.5682" lon="1.83163">
        <ele>47.72</ele>
        <time>2014-05-03T08:49:38Z</time>
      </trkpt>
      <trkpt lat="50.56811" lon="1.83152">
        <ele>47.72</ele>
        <time>2014-05-03T08:49:44Z</time>
      </trkpt>
      <trkpt lat="50.56802" lon="1.83142">
        <ele>47.24</ele>
        <time>2014-05-03T08:49:50Z</time>
      </trkpt>
      <trkpt lat="50.56793" lon="1.83135">
        <ele>46.76</ele>
        <time>2014-05-03T08:49:56Z</time>
      </trkpt>
      <trkpt lat="50.56783" lon="1.83128">
        <ele>46.28</ele>
        <time>2014-05-03T08:50:02Z</time>
      </trkpt>
      <trkpt lat="50.56772" lon="1.83124">
        <ele>45.32</ele>
        <time>2014-05-03T08:50:09Z</time>
      </trkpt>
      <trkpt lat="50.56762" lon="1.83121">
        <ele>45.32</ele>
        <time>2014-05-03T08:50:15Z</time>
      </trkpt>
      <trkpt lat="50.56751" lon="1.83117">
        <ele>44.36</ele>
        <time>2014-05-03T08:50:22Z</time>
      </trkpt>
      <trkpt lat="50.56738" lon="1.83113">
        <ele>43.4</ele>
        <time>2014-05-03T08:50:31Z</time>
      </trkpt>
      <trkpt lat="50.56725" lon="1.83113">
        <ele>42.92</ele>
        <time>2014-05-03T08:50:38Z</time>
      </trkpt>
      <trkpt lat="50.56714" lon="1.83111">
        <ele>42.44</ele>
        <time>2014-05-03T08:50:44Z</time>
      </trkpt>
      <trkpt lat="50.56703" lon="1.83107">
        <ele>42.92</ele>
        <time>2014-05-03T08:50:51Z</time>
      </trkpt>
      <trkpt lat="50.56692" lon="1.83099">
        <ele>42.44</ele>
        <time>2014-05-03T08:50:57Z</time>
      </trkpt>
      <trkpt lat="50.5668" lon="1.83089">
        <ele>42.44</ele>
        <time>2014-05-03T08:51:05Z</time>
      </trkpt>
      <trkpt lat="50.56669" lon="1.8308">
        <ele>42.92</ele>
        <time>2014-05-03T08:51:13Z</time>
      </trkpt>
      <trkpt lat="50.56656" lon="1.8307">
        <ele>43.4</ele>
        <time>2014-05-03T08:51:23Z</time>
      </trkpt>
      <trkpt lat="50.56638" lon="1.83054">
        <ele>43.88</ele>
        <time>2014-05-03T08:51:34Z</time>
      </trkpt>
      <trkpt lat="50.56628" lon="1.83044">
        <ele>44.36</ele>
        <time>2014-05-03T08:51:40Z</time>
      </trkpt>
      <trkpt lat="50.56615" lon="1.83033">
        <ele>45.32</ele>
        <time>2014-05-03T08:51:49Z</time>
      </trkpt>
      <trkpt lat="50.566" lon="1.83019">
        <ele>46.28</ele>
        <time>2014-05-03T08:51:57Z</time>
      </trkpt>
      <trkpt lat="50.56587" lon="1.83015">
        <ele>45.8</ele>
        <time>2014-05-03T08:52:04Z</time>
      </trkpt>
      <trkpt lat="50.56576" lon="1.83023">
        <ele>46.76</ele>
        <time>2014-05-03T08:52:10Z</time>
      </trkpt>
      <trkpt lat="50.56567" lon="1.83028">
        <ele>47.24</ele>
        <time>2014-05-03T08:52:15Z</time>
      </trkpt>
      <trkpt lat="50.56557" lon="1.83029">
        <ele>46.76</ele>
        <time>2014-05-03T08:52:21Z</time>
      </trkpt>
      <trkpt lat="50.56548" lon="1.83021">
        <ele>47.24</ele>
        <time>2014-05-03T08:52:27Z</time>
      </trkpt>
      <trkpt lat="50.56539" lon="1.83011">
        <ele>47.24</ele>
        <time>2014-05-03T08:52:33Z</time>
      </trkpt>
      <trkpt lat="50.56531" lon="1.83001">
        <ele>47.72</ele>
        <time>2014-05-03T08:52:38Z</time>
      </trkpt>
      <trkpt lat="50.56522" lon="1.82992">
        <ele>47.24</ele>
        <time>2014-05-03T08:52:44Z</time>
      </trkpt>
      <trkpt lat="50.56514" lon="1.82983">
        <ele>47.72</ele>
        <time>2014-05-03T08:52:49Z</time>
      </trkpt>
      <trkpt lat="50.56506" lon="1.82974">
        <ele>47.24</ele>
        <time>2014-05-03T08:52:54Z</time>
      </trkpt>
      <trkpt lat="50.56498" lon="1.82965">
        <ele>47.24</ele>
        <time>2014-05-03T08:52:59Z</time>
      </trkpt>
      <trkpt lat="50.56491" lon="1.82956">
        <ele>46.76</ele>
        <time>2014-05-03T08:53:04Z</time>
      </trkpt>
      <trkpt lat="50.56483" lon="1.82947">
        <ele>47.72</ele>
        <time>2014-05-03T08:53:09Z</time>
      </trkpt>
      <trkpt lat="50.56476" lon="1.82939">
        <ele>48.2</ele>
        <time>2014-05-03T08:53:14Z</time>
      </trkpt>
      <trkpt lat="50.56468" lon="1.82931">
        <ele>47.72</ele>
        <time>2014-05-03T08:53:19Z</time>
      </trkpt>
      <trkpt lat="50.56459" lon="1.82923">
        <ele>48.68</ele>
        <time>2014-05-03T08:53:25Z</time>
      </trkpt>
      <trkpt lat="50.5645" lon="1.82914">
        <ele>48.68</ele>
        <time>2014-05-03T08:53:31Z</time>
      </trkpt>
      <trkpt lat="50.56441" lon="1.82906">
        <ele>49.16</ele>
        <time>2014-05-03T08:53:37Z</time>
      </trkpt>
      <trkpt lat="50.56432" lon="1.82897">
        <ele>49.16</ele>
        <time>2014-05-03T08:53:43Z</time>
      </trkpt>
      <trkpt lat="50.56423" lon="1.8289">
        <ele>49.16</ele>
        <time>2014-05-03T08:53:49Z</time>
      </trkpt>
      <trkpt lat="50.56414" lon="1.82882">
        <ele>49.65</ele>
        <time>2014-05-03T08:53:55Z</time>
      </trkpt>
      <trkpt lat="50.56403" lon="1.82873">
        <ele>48.68</ele>
        <time>2014-05-03T08:54:02Z</time>
      </trkpt>
      <trkpt lat="50.56393" lon="1.82863">
        <ele>49.65</ele>
        <time>2014-05-03T08:54:09Z</time>
      </trkpt>
      <trkpt lat="50.56383" lon="1.82853">
        <ele>50.61</ele>
        <time>2014-05-03T08:54:15Z</time>
      </trkpt>
      <trkpt lat="50.56374" lon="1.82845">
        <ele>51.09</ele>
        <time>2014-05-03T08:54:21Z</time>
      </trkpt>
      <trkpt lat="50.56366" lon="1.82835">
        <ele>51.09</ele>
        <time>2014-05-03T08:54:27Z</time>
      </trkpt>
      <trkpt lat="50.56356" lon="1.82824">
        <ele>51.57</ele>
        <time>2014-05-03T08:54:33Z</time>
      </trkpt>
      <trkpt lat="50.56349" lon="1.82815">
        <ele>52.05</ele>
        <time>2014-05-03T08:54:38Z</time>
      </trkpt>
      <trkpt lat="50.56342" lon="1.82805">
        <ele>52.05</ele>
        <time>2014-05-03T08:54:43Z</time>
      </trkpt>
      <trkpt lat="50.56334" lon="1.82793">
        <ele>52.53</ele>
        <time>2014-05-03T08:54:49Z</time>
      </trkpt>
      <trkpt lat="50.56327" lon="1.82781">
        <ele>52.05</ele>
        <time>2014-05-03T08:54:54Z</time>
      </trkpt>
      <trkpt lat="50.56321" lon="1.82769">
        <ele>52.53</ele>
        <time>2014-05-03T08:54:59Z</time>
      </trkpt>
      <trkpt lat="50.56315" lon="1.82758">
        <ele>52.53</ele>
        <time>2014-05-03T08:55:04Z</time>
      </trkpt>
      <trkpt lat="50.56307" lon="1.82747">
        <ele>52.05</ele>
        <time>2014-05-03T08:55:10Z</time>
      </trkpt>
      <trkpt lat="50.56301" lon="1.82734">
        <ele>52.05</ele>
        <time>2014-05-03T08:55:15Z</time>
      </trkpt>
      <trkpt lat="50.56294" lon="1.82723">
        <ele>52.05</ele>
        <time>2014-05-03T08:55:21Z</time>
      </trkpt>
      <trkpt lat="50.56287" lon="1.82711">
        <ele>52.05</ele>
        <time>2014-05-03T08:55:26Z</time>
      </trkpt>
      <trkpt lat="50.56281" lon="1.82699">
        <ele>51.57</ele>
        <time>2014-05-03T08:55:31Z</time>
      </trkpt>
      <trkpt lat="50.56274" lon="1.82688">
        <ele>51.09</ele>
        <time>2014-05-03T08:55:36Z</time>
      </trkpt>
      <trkpt lat="50.56267" lon="1.82677">
        <ele>51.09</ele>
        <time>2014-05-03T08:55:41Z</time>
      </trkpt>
      <trkpt lat="50.56259" lon="1.82665">
        <ele>51.57</ele>
        <time>2014-05-03T08:55:46Z</time>
      </trkpt>
      <trkpt lat="50.56252" lon="1.82655">
        <ele>51.09</ele>
        <time>2014-05-03T08:55:52Z</time>
      </trkpt>
      <trkpt lat="50.56245" lon="1.82645">
        <ele>51.09</ele>
        <time>2014-05-03T08:55:57Z</time>
      </trkpt>
      <trkpt lat="50.56238" lon="1.82634">
        <ele>51.09</ele>
        <time>2014-05-03T08:56:02Z</time>
      </trkpt>
      <trkpt lat="50.5623" lon="1.82624">
        <ele>50.61</ele>
        <time>2014-05-03T08:56:07Z</time>
      </trkpt>
      <trkpt lat="50.56223" lon="1.82614">
        <ele>50.61</ele>
        <time>2014-05-03T08:56:12Z</time>
      </trkpt>
      <trkpt lat="50.56215" lon="1.82604">
        <ele>50.61</ele>
        <time>2014-05-03T08:56:18Z</time>
      </trkpt>
      <trkpt lat="50.56207" lon="1.82592">
        <ele>51.09</ele>
        <time>2014-05-03T08:56:24Z</time>
      </trkpt>
      <trkpt lat="50.56199" lon="1.82583">
        <ele>51.09</ele>
        <time>2014-05-03T08:56:30Z</time>
      </trkpt>
      <trkpt lat="50.56192" lon="1.82573">
        <ele>50.61</ele>
        <time>2014-05-03T08:56:35Z</time>
      </trkpt>
      <trkpt lat="50.56185" lon="1.82561">
        <ele>50.13</ele>
        <time>2014-05-03T08:56:41Z</time>
      </trkpt>
      <trkpt lat="50.56178" lon="1.8255">
        <ele>50.13</ele>
        <time>2014-05-03T08:56:46Z</time>
      </trkpt>
      <trkpt lat="50.56171" lon="1.82539">
        <ele>49.65</ele>
        <time>2014-05-03T08:56:51Z</time>
      </trkpt>
      <trkpt lat="50.56164" lon="1.82526">
        <ele>49.65</ele>
        <time>2014-05-03T08:56:57Z</time>
      </trkpt>
      <trkpt lat="50.56157" lon="1.82515">
        <ele>49.65</ele>
        <time>2014-05-03T08:57:02Z</time>
      </trkpt>
      <trkpt lat="50.5615" lon="1.82504">
        <ele>49.65</ele>
        <time>2014-05-03T08:57:08Z</time>
      </trkpt>
      <trkpt lat="50.56144" lon="1.82492">
        <ele>48.68</ele>
        <time>2014-05-03T08:57:14Z</time>
      </trkpt>
      <trkpt lat="50.56137" lon="1.82478">
        <ele>48.68</ele>
        <time>2014-05-03T08:57:20Z</time>
      </trkpt>
      <trkpt lat="50.5613" lon="1.82465">
        <ele>47.72</ele>
        <time>2014-05-03T08:57:26Z</time>
      </trkpt>
      <trkpt lat="50.56124" lon="1.82453">
        <ele>48.2</ele>
        <time>2014-05-03T08:57:31Z</time>
      </trkpt>
      <trkpt lat="50.56118" lon="1.82439">
        <ele>47.72</ele>
        <time>2014-05-03T08:57:37Z</time>
      </trkpt>
      <trkpt lat="50.56112" lon="1.82425">
        <ele>47.24</ele>
        <time>2014-05-03T08:57:43Z</time>
      </trkpt>
      <trkpt lat="50.56105" lon="1.8241">
        <ele>47.72</ele>
        <time>2014-05-03T08:57:49Z</time>
      </trkpt>
      <trkpt lat="50.56099" lon="1.82396">
        <ele>47.24</ele>
        <time>2014-05-03T08:57:55Z</time>
      </trkpt>
      <trkpt lat="50.56093" lon="1.82382">
        <ele>47.24</ele>
        <time>2014-05-03T08:58:01Z</time>
      </trkpt>
      <trkpt lat="50.56087" lon="1.82369">
        <ele>47.24</ele>
        <time>2014-05-03T08:58:06Z</time>
      </trkpt>
      <trkpt lat="50.56082" lon="1.82357">
        <ele>47.24</ele>
        <time>2014-05-03T08:58:11Z</time>
      </trkpt>
      <trkpt lat="50.56076" lon="1.82344">
        <ele>47.24</ele>
        <time>2014-05-03T08:58:17Z</time>
      </trkpt>
      <trkpt lat="50.56069" lon="1.82332">
        <ele>47.24</ele>
        <time>2014-05-03T08:58:23Z</time>
      </trkpt>
      <trkpt lat="50.56064" lon="1.8232">
        <ele>47.72</ele>
        <time>2014-05-03T08:58:28Z</time>
      </trkpt>
      <trkpt lat="50.56058" lon="1.82305">
        <ele>46.76</ele>
        <time>2014-05-03T08:58:34Z</time>
      </trkpt>
      <trkpt lat="50.56051" lon="1.82293">
        <ele>46.76</ele>
        <time>2014-05-03T08:58:40Z</time>
      </trkpt>
      <trkpt lat="50.56043" lon="1.82283">
        <ele>46.28</ele>
        <time>2014-05-03T08:58:45Z</time>
      </trkpt>
      <trkpt lat="50.56035" lon="1.82273">
        <ele>46.76</ele>
        <time>2014-05-03T08:58:50Z</time>
      </trkpt>
      <trkpt lat="50.56027" lon="1.82264">
        <ele>45.8</ele>
        <time>2014-05-03T08:58:55Z</time>
      </trkpt>
      <trkpt lat="50.5602" lon="1.82253">
        <ele>45.8</ele>
        <time>2014-05-03T08:59:01Z</time>
      </trkpt>
      <trkpt lat="50.56012" lon="1.82243">
        <ele>45.8</ele>
        <time>2014-05-03T08:59:07Z</time>
      </trkpt>
      <trkpt lat="50.56004" lon="1.82232">
        <ele>45.8</ele>
        <time>2014-05-03T08:59:13Z</time>
      </trkpt>
      <trkpt lat="50.55996" lon="1.82224">
        <ele>46.28</ele>
        <time>2014-05-03T08:59:18Z</time>
      </trkpt>
      <trkpt lat="50.55989" lon="1.82215">
        <ele>45.8</ele>
        <time>2014-05-03T08:59:23Z</time>
      </trkpt>
      <trkpt lat="50.55982" lon="1.82206">
        <ele>46.28</ele>
        <time>2014-05-03T08:59:28Z</time>
      </trkpt>
      <trkpt lat="50.55976" lon="1.82195">
        <ele>46.28</ele>
        <time>2014-05-03T08:59:33Z</time>
      </trkpt>
      <trkpt lat="50.5597" lon="1.82184">
        <ele>46.28</ele>
        <time>2014-05-03T08:59:38Z</time>
      </trkpt>
      <trkpt lat="50.55964" lon="1.82172">
        <ele>46.28</ele>
        <time>2014-05-03T08:59:44Z</time>
      </trkpt>
      <trkpt lat="50.55959" lon="1.82159">
        <ele>45.8</ele>
        <time>2014-05-03T08:59:49Z</time>
      </trkpt>
      <trkpt lat="50.55953" lon="1.82144">
        <ele>45.8</ele>
        <time>2014-05-03T08:59:55Z</time>
      </trkpt>
      <trkpt lat="50.55948" lon="1.82129">
        <ele>45.8</ele>
        <time>2014-05-03T09:00:01Z</time>
      </trkpt>
      <trkpt lat="50.55943" lon="1.82115">
        <ele>45.8</ele>
        <time>2014-05-03T09:00:06Z</time>
      </trkpt>
      <trkpt lat="50.55939" lon="1.82102">
        <ele>45.32</ele>
        <time>2014-05-03T09:00:11Z</time>
      </trkpt>
      <trkpt lat="50.55934" lon="1.8209">
        <ele>46.28</ele>
        <time>2014-05-03T09:00:16Z</time>
      </trkpt>
      <trkpt lat="50.55928" lon="1.82075">
        <ele>46.28</ele>
        <time>2014-05-03T09:00:22Z</time>
      </trkpt>
      <trkpt lat="50.55923" lon="1.82063">
        <ele>45.8</ele>
        <time>2014-05-03T09:00:27Z</time>
      </trkpt>
      <trkpt lat="50.55916" lon="1.82052">
        <ele>46.28</ele>
        <time>2014-05-03T09:00:32Z</time>
      </trkpt>
      <trkpt lat="50.55909" lon="1.82041">
        <ele>46.28</ele>
        <time>2014-05-03T09:00:37Z</time>
      </trkpt>
      <trkpt lat="50.55902" lon="1.82031">
        <ele>46.76</ele>
        <time>2014-05-03T09:00:42Z</time>
      </trkpt>
      <trkpt lat="50.55894" lon="1.82022">
        <ele>45.8</ele>
        <time>2014-05-03T09:00:47Z</time>
      </trkpt>
      <trkpt lat="50.55887" lon="1.82015">
        <ele>46.28</ele>
        <time>2014-05-03T09:00:52Z</time>
      </trkpt>
      <trkpt lat="50.55879" lon="1.82009">
        <ele>46.28</ele>
        <time>2014-05-03T09:00:57Z</time>
      </trkpt>
      <trkpt lat="50.55871" lon="1.82003">
        <ele>46.28</ele>
        <time>2014-05-03T09:01:02Z</time>
      </trkpt>
      <trkpt lat="50.55862" lon="1.81995">
        <ele>46.28</ele>
        <time>2014-05-03T09:01:07Z</time>
      </trkpt>
      <trkpt lat="50.55853" lon="1.81989">
        <ele>45.32</ele>
        <time>2014-05-03T09:01:12Z</time>
      </trkpt>
      <trkpt lat="50.55846" lon="1.81985">
        <ele>46.28</ele>
        <time>2014-05-03T09:01:17Z</time>
      </trkpt>
      <trkpt lat="50.55837" lon="1.81978">
        <ele>45.8</ele>
        <time>2014-05-03T09:01:22Z</time>
      </trkpt>
      <trkpt lat="50.55829" lon="1.81973">
        <ele>45.8</ele>
        <time>2014-05-03T09:01:27Z</time>
      </trkpt>
      <trkpt lat="50.55819" lon="1.81966">
        <ele>45.8</ele>
        <time>2014-05-03T09:01:32Z</time>
      </trkpt>
      <trkpt lat="50.5581" lon="1.8196">
        <ele>45.8</ele>
        <time>2014-05-03T09:01:38Z</time>
      </trkpt>
      <trkpt lat="50.55801" lon="1.81952">
        <ele>45.8</ele>
        <time>2014-05-03T09:01:43Z</time>
      </trkpt>
      <trkpt lat="50.55793" lon="1.81944">
        <ele>45.8</ele>
        <time>2014-05-03T09:01:48Z</time>
      </trkpt>
      <trkpt lat="50.55785" lon="1.81937">
        <ele>46.28</ele>
        <time>2014-05-03T09:01:53Z</time>
      </trkpt>
      <trkpt lat="50.55777" lon="1.8193">
        <ele>46.28</ele>
        <time>2014-05-03T09:01:58Z</time>
      </trkpt>
      <trkpt lat="50.55769" lon="1.8192">
        <ele>45.8</ele>
        <time>2014-05-03T09:02:03Z</time>
      </trkpt>
      <trkpt lat="50.55762" lon="1.81911">
        <ele>46.76</ele>
        <time>2014-05-03T09:02:08Z</time>
      </trkpt>
      <trkpt lat="50.55755" lon="1.81902">
        <ele>45.8</ele>
        <time>2014-05-03T09:02:13Z</time>
      </trkpt>
      <trkpt lat="50.55748" lon="1.81891">
        <ele>45.8</ele>
        <time>2014-05-03T09:02:18Z</time>
      </trkpt>
      <trkpt lat="50.55741" lon="1.8188">
        <ele>46.28</ele>
        <time>2014-05-03T09:02:23Z</time>
      </trkpt>
      <trkpt lat="50.55734" lon="1.81871">
        <ele>46.28</ele>
        <time>2014-05-03T09:02:28Z</time>
      </trkpt>
      <trkpt lat="50.55726" lon="1.81858">
        <ele>45.8</ele>
        <time>2014-05-03T09:02:34Z</time>
      </trkpt>
      <trkpt lat="50.55719" lon="1.81847">
        <ele>46.28</ele>
        <time>2014-05-03T09:02:39Z</time>
      </trkpt>
      <trkpt lat="50.55712" lon="1.81837">
        <ele>46.28</ele>
        <time>2014-05-03T09:02:44Z</time>
      </trkpt>
      <trkpt lat="50.55704" lon="1.81826">
        <ele>46.28</ele>
        <time>2014-05-03T09:02:50Z</time>
      </trkpt>
      <trkpt lat="50.55696" lon="1.81813">
        <ele>47.24</ele>
        <time>2014-05-03T09:02:56Z</time>
      </trkpt>
      <trkpt lat="50.55689" lon="1.81804">
        <ele>46.76</ele>
        <time>2014-05-03T09:03:01Z</time>
      </trkpt>
      <trkpt lat="50.55682" lon="1.81795">
        <ele>46.76</ele>
        <time>2014-05-03T09:03:06Z</time>
      </trkpt>
      <trkpt lat="50.55674" lon="1.81783">
        <ele>47.24</ele>
        <time>2014-05-03T09:03:12Z</time>
      </trkpt>
      <trkpt lat="50.55668" lon="1.81774">
        <ele>47.24</ele>
        <time>2014-05-03T09:03:17Z</time>
      </trkpt>
      <trkpt lat="50.5566" lon="1.81765">
        <ele>47.24</ele>
        <time>2014-05-03T09:03:23Z</time>
      </trkpt>
      <trkpt lat="50.55652" lon="1.81753">
        <ele>47.24</ele>
        <time>2014-05-03T09:03:29Z</time>
      </trkpt>
      <trkpt lat="50.55645" lon="1.81743">
        <ele>47.72</ele>
        <time>2014-05-03T09:03:34Z</time>
      </trkpt>
      <trkpt lat="50.55638" lon="1.81732">
        <ele>47.72</ele>
        <time>2014-05-03T09:03:39Z</time>
      </trkpt>
      <trkpt lat="50.5563" lon="1.8172">
        <ele>48.2</ele>
        <time>2014-05-03T09:03:45Z</time>
      </trkpt>
      <trkpt lat="50.55621" lon="1.81707">
        <ele>47.24</ele>
        <time>2014-05-03T09:03:51Z</time>
      </trkpt>
      <trkpt lat="50.55613" lon="1.81692">
        <ele>47.24</ele>
        <time>2014-05-03T09:03:57Z</time>
      </trkpt>
      <trkpt lat="50.55606" lon="1.81677">
        <ele>47.72</ele>
        <time>2014-05-03T09:04:04Z</time>
      </trkpt>
      <trkpt lat="50.55599" lon="1.81663">
        <ele>47.72</ele>
        <time>2014-05-03T09:04:11Z</time>
      </trkpt>
      <trkpt lat="50.55594" lon="1.81648">
        <ele>47.72</ele>
        <time>2014-05-03T09:04:19Z</time>
      </trkpt>
      <trkpt lat="50.55585" lon="1.81633">
        <ele>47.24</ele>
        <time>2014-05-03T09:04:26Z</time>
      </trkpt>
      <trkpt lat="50.55578" lon="1.81613">
        <ele>47.72</ele>
        <time>2014-05-03T09:04:35Z</time>
      </trkpt>
      <trkpt lat="50.55569" lon="1.81591">
        <ele>47.72</ele>
        <time>2014-05-03T09:04:44Z</time>
      </trkpt>
      <trkpt lat="50.55564" lon="1.81571">
        <ele>47.72</ele>
        <time>2014-05-03T09:04:51Z</time>
      </trkpt>
      <trkpt lat="50.55556" lon="1.81553">
        <ele>47.72</ele>
        <time>2014-05-03T09:04:58Z</time>
      </trkpt>
      <trkpt lat="50.5555" lon="1.81535">
        <ele>48.2</ele>
        <time>2014-05-03T09:05:07Z</time>
      </trkpt>
      <trkpt lat="50.55544" lon="1.81517">
        <ele>47.72</ele>
        <time>2014-05-03T09:05:16Z</time>
      </trkpt>
      <trkpt lat="50.55539" lon="1.81504">
        <ele>48.2</ele>
        <time>2014-05-03T09:05:22Z</time>
      </trkpt>
      <trkpt lat="50.55533" lon="1.81487">
        <ele>48.2</ele>
        <time>2014-05-03T09:05:29Z</time>
      </trkpt>
      <trkpt lat="50.55524" lon="1.8147">
        <ele>48.68</ele>
        <time>2014-05-03T09:05:36Z</time>
      </trkpt>
      <trkpt lat="50.55515" lon="1.81453">
        <ele>48.2</ele>
        <time>2014-05-03T09:05:43Z</time>
      </trkpt>
      <trkpt lat="50.55504" lon="1.81436">
        <ele>48.2</ele>
        <time>2014-05-03T09:05:49Z</time>
      </trkpt>
      <trkpt lat="50.55497" lon="1.81421">
        <ele>48.2</ele>
        <time>2014-05-03T09:05:55Z</time>
      </trkpt>
      <trkpt lat="50.55489" lon="1.81406">
        <ele>48.2</ele>
        <time>2014-05-03T09:06:01Z</time>
      </trkpt>
      <trkpt lat="50.55481" lon="1.81391">
        <ele>46.76</ele>
        <time>2014-05-03T09:06:12Z</time>
      </trkpt>
      <trkpt lat="50.55473" lon="1.81376">
        <ele>47.24</ele>
        <time>2014-05-03T09:06:17Z</time>
      </trkpt>
      <trkpt lat="50.55464" lon="1.81366">
        <ele>47.72</ele>
        <time>2014-05-03T09:06:21Z</time>
      </trkpt>
      <trkpt lat="50.55456" lon="1.81354">
        <ele>47.24</ele>
        <time>2014-05-03T09:06:26Z</time>
      </trkpt>
      <trkpt lat="50.55447" lon="1.81343">
        <ele>47.72</ele>
        <time>2014-05-03T09:06:33Z</time>
      </trkpt>
      <trkpt lat="50.5544" lon="1.81331">
        <ele>48.2</ele>
        <time>2014-05-03T09:06:39Z</time>
      </trkpt>
      <trkpt lat="50.55431" lon="1.81318">
        <ele>48.2</ele>
        <time>2014-05-03T09:06:45Z</time>
      </trkpt>
      <trkpt lat="50.55423" lon="1.81306">
        <ele>48.2</ele>
        <time>2014-05-03T09:06:51Z</time>
      </trkpt>
      <trkpt lat="50.55414" lon="1.81295">
        <ele>48.2</ele>
        <time>2014-05-03T09:06:57Z</time>
      </trkpt>
      <trkpt lat="50.55406" lon="1.81283">
        <ele>48.2</ele>
        <time>2014-05-03T09:07:03Z</time>
      </trkpt>
      <trkpt lat="50.554" lon="1.81274">
        <ele>48.2</ele>
        <time>2014-05-03T09:07:08Z</time>
      </trkpt>
      <trkpt lat="50.55391" lon="1.81262">
        <ele>48.68</ele>
        <time>2014-05-03T09:07:14Z</time>
      </trkpt>
      <trkpt lat="50.55384" lon="1.81253">
        <ele>48.2</ele>
        <time>2014-05-03T09:07:19Z</time>
      </trkpt>
      <trkpt lat="50.55376" lon="1.81242">
        <ele>48.2</ele>
        <time>2014-05-03T09:07:25Z</time>
      </trkpt>
      <trkpt lat="50.55369" lon="1.81234">
        <ele>48.2</ele>
        <time>2014-05-03T09:07:30Z</time>
      </trkpt>
      <trkpt lat="50.55362" lon="1.81226">
        <ele>47.72</ele>
        <time>2014-05-03T09:07:35Z</time>
      </trkpt>
      <trkpt lat="50.55355" lon="1.81216">
        <ele>47.72</ele>
        <time>2014-05-03T09:07:40Z</time>
      </trkpt>
      <trkpt lat="50.55347" lon="1.81207">
        <ele>48.2</ele>
        <time>2014-05-03T09:07:45Z</time>
      </trkpt>
      <trkpt lat="50.55339" lon="1.81197">
        <ele>48.2</ele>
        <time>2014-05-03T09:07:51Z</time>
      </trkpt>
      <trkpt lat="50.55331" lon="1.81187">
        <ele>47.72</ele>
        <time>2014-05-03T09:07:56Z</time>
      </trkpt>
      <trkpt lat="50.55324" lon="1.81176">
        <ele>48.2</ele>
        <time>2014-05-03T09:08:02Z</time>
      </trkpt>
      <trkpt lat="50.55316" lon="1.81165">
        <ele>48.2</ele>
        <time>2014-05-03T09:08:07Z</time>
      </trkpt>
      <trkpt lat="50.55309" lon="1.81155">
        <ele>47.72</ele>
        <time>2014-05-03T09:08:13Z</time>
      </trkpt>
      <trkpt lat="50.55301" lon="1.81144">
        <ele>47.72</ele>
        <time>2014-05-03T09:08:19Z</time>
      </trkpt>
      <trkpt lat="50.55293" lon="1.81133">
        <ele>47.72</ele>
        <time>2014-05-03T09:08:26Z</time>
      </trkpt>
      <trkpt lat="50.55285" lon="1.81121">
        <ele>47.72</ele>
        <time>2014-05-03T09:08:32Z</time>
      </trkpt>
      <trkpt lat="50.55276" lon="1.81111">
        <ele>47.72</ele>
        <time>2014-05-03T09:08:38Z</time>
      </trkpt>
      <trkpt lat="50.55268" lon="1.811">
        <ele>47.72</ele>
        <time>2014-05-03T09:08:44Z</time>
      </trkpt>
      <trkpt lat="50.5526" lon="1.8109">
        <ele>48.2</ele>
        <time>2014-05-03T09:08:50Z</time>
      </trkpt>
      <trkpt lat="50.5525" lon="1.81078">
        <ele>48.2</ele>
        <time>2014-05-03T09:08:56Z</time>
      </trkpt>
      <trkpt lat="50.55242" lon="1.81067">
        <ele>47.72</ele>
        <time>2014-05-03T09:09:02Z</time>
      </trkpt>
      <trkpt lat="50.55235" lon="1.81056">
        <ele>48.2</ele>
        <time>2014-05-03T09:09:08Z</time>
      </trkpt>
      <trkpt lat="50.55226" lon="1.81045">
        <ele>47.72</ele>
        <time>2014-05-03T09:09:15Z</time>
      </trkpt>
      <trkpt lat="50.55216" lon="1.81033">
        <ele>48.2</ele>
        <time>2014-05-03T09:09:22Z</time>
      </trkpt>
      <trkpt lat="50.55207" lon="1.81021">
        <ele>47.72</ele>
        <time>2014-05-03T09:09:28Z</time>
      </trkpt>
      <trkpt lat="50.55199" lon="1.81011">
        <ele>48.2</ele>
        <time>2014-05-03T09:09:34Z</time>
      </trkpt>
      <trkpt lat="50.55191" lon="1.81001">
        <ele>48.2</ele>
        <time>2014-05-03T09:09:40Z</time>
      </trkpt>
      <trkpt lat="50.55183" lon="1.80989">
        <ele>47.72</ele>
        <time>2014-05-03T09:09:46Z</time>
      </trkpt>
      <trkpt lat="50.55174" lon="1.80978">
        <ele>48.2</ele>
        <time>2014-05-03T09:09:52Z</time>
      </trkpt>
      <trkpt lat="50.55166" lon="1.80967">
        <ele>48.2</ele>
        <time>2014-05-03T09:09:58Z</time>
      </trkpt>
      <trkpt lat="50.55157" lon="1.80957">
        <ele>48.2</ele>
        <time>2014-05-03T09:10:04Z</time>
      </trkpt>
      <trkpt lat="50.55152" lon="1.80956">
        <ele>47.72</ele>
        <time>2014-05-03T09:11:08Z</time>
      </trkpt>
      <trkpt lat="50.55148" lon="1.80958">
        <ele>48.2</ele>
        <time>2014-05-03T09:12:34Z</time>
      </trkpt>
      <trkpt lat="50.55156" lon="1.80943">
        <ele>47.72</ele>
        <time>2014-05-03T09:12:44Z</time>
      </trkpt>
      <trkpt lat="50.55167" lon="1.80939">
        <ele>46.76</ele>
        <time>2014-05-03T09:12:55Z</time>
      </trkpt>
      <trkpt lat="50.5518" lon="1.80944">
        <ele>45.8</ele>
        <time>2014-05-03T09:13:02Z</time>
      </trkpt>
      <trkpt lat="50.55195" lon="1.80953">
        <ele>44.84</ele>
        <time>2014-05-03T09:13:09Z</time>
      </trkpt>
      <trkpt lat="50.55206" lon="1.8096">
        <ele>43.88</ele>
        <time>2014-05-03T09:13:17Z</time>
      </trkpt>
      <trkpt lat="50.55217" lon="1.8096">
        <ele>42.44</ele>
        <time>2014-05-03T09:13:24Z</time>
      </trkpt>
      <trkpt lat="50.55225" lon="1.80956">
        <ele>41.47</ele>
        <time>2014-05-03T09:13:31Z</time>
      </trkpt>
      <trkpt lat="50.55233" lon="1.80947">
        <ele>40.03</ele>
        <time>2014-05-03T09:13:38Z</time>
      </trkpt>
      <trkpt lat="50.55236" lon="1.80928">
        <ele>39.07</ele>
        <time>2014-05-03T09:13:46Z</time>
      </trkpt>
      <trkpt lat="50.5523" lon="1.80911">
        <ele>38.11</ele>
        <time>2014-05-03T09:14:02Z</time>
      </trkpt>
      <trkpt lat="50.5522" lon="1.80899">
        <ele>38.11</ele>
        <time>2014-05-03T09:14:09Z</time>
      </trkpt>
      <trkpt lat="50.5521" lon="1.80887">
        <ele>37.63</ele>
        <time>2014-05-03T09:14:15Z</time>
      </trkpt>
      <trkpt lat="50.55201" lon="1.80876">
        <ele>37.15</ele>
        <time>2014-05-03T09:14:21Z</time>
      </trkpt>
      <trkpt lat="50.55193" lon="1.80865">
        <ele>37.15</ele>
        <time>2014-05-03T09:14:27Z</time>
      </trkpt>
      <trkpt lat="50.55186" lon="1.80854">
        <ele>37.15</ele>
        <time>2014-05-03T09:14:32Z</time>
      </trkpt>
      <trkpt lat="50.55179" lon="1.80843">
        <ele>37.15</ele>
        <time>2014-05-03T09:14:38Z</time>
      </trkpt>
      <trkpt lat="50.55173" lon="1.8083">
        <ele>37.15</ele>
        <time>2014-05-03T09:14:44Z</time>
      </trkpt>
      <trkpt lat="50.55167" lon="1.80815">
        <ele>37.15</ele>
        <time>2014-05-03T09:14:50Z</time>
      </trkpt>
      <trkpt lat="50.55161" lon="1.80803">
        <ele>36.19</ele>
        <time>2014-05-03T09:14:56Z</time>
      </trkpt>
      <trkpt lat="50.55154" lon="1.80788">
        <ele>36.67</ele>
        <time>2014-05-03T09:15:02Z</time>
      </trkpt>
      <trkpt lat="50.55149" lon="1.80774">
        <ele>36.19</ele>
        <time>2014-05-03T09:15:08Z</time>
      </trkpt>
      <trkpt lat="50.55144" lon="1.80761">
        <ele>36.19</ele>
        <time>2014-05-03T09:15:14Z</time>
      </trkpt>
      <trkpt lat="50.55139" lon="1.80744">
        <ele>35.23</ele>
        <time>2014-05-03T09:15:21Z</time>
      </trkpt>
      <trkpt lat="50.55133" lon="1.80728">
        <ele>36.19</ele>
        <time>2014-05-03T09:15:28Z</time>
      </trkpt>
      <trkpt lat="50.55127" lon="1.80715">
        <ele>34.74</ele>
        <time>2014-05-03T09:15:34Z</time>
      </trkpt>
      <trkpt lat="50.55125" lon="1.80698">
        <ele>34.26</ele>
        <time>2014-05-03T09:15:40Z</time>
      </trkpt>
      <trkpt lat="50.55119" lon="1.80678">
        <ele>33.78</ele>
        <time>2014-05-03T09:15:46Z</time>
      </trkpt>
      <trkpt lat="50.55118" lon="1.8066">
        <ele>32.82</ele>
        <time>2014-05-03T09:15:53Z</time>
      </trkpt>
      <trkpt lat="50.55121" lon="1.80644">
        <ele>32.82</ele>
        <time>2014-05-03T09:16:00Z</time>
      </trkpt>
      <trkpt lat="50.55122" lon="1.80628">
        <ele>32.82</ele>
        <time>2014-05-03T09:16:06Z</time>
      </trkpt>
      <trkpt lat="50.55121" lon="1.80609">
        <ele>32.82</ele>
        <time>2014-05-03T09:16:13Z</time>
      </trkpt>
      <trkpt lat="50.55115" lon="1.80592">
        <ele>32.82</ele>
        <time>2014-05-03T09:16:21Z</time>
      </trkpt>
      <trkpt lat="50.55106" lon="1.80577">
        <ele>32.82</ele>
        <time>2014-05-03T09:16:29Z</time>
      </trkpt>
      <trkpt lat="50.55096" lon="1.8056">
        <ele>32.82</ele>
        <time>2014-05-03T09:16:38Z</time>
      </trkpt>
      <trkpt lat="50.55085" lon="1.80542">
        <ele>32.82</ele>
        <time>2014-05-03T09:16:45Z</time>
      </trkpt>
      <trkpt lat="50.55077" lon="1.80524">
        <ele>32.34</ele>
        <time>2014-05-03T09:16:52Z</time>
      </trkpt>
      <trkpt lat="50.55071" lon="1.80508">
        <ele>32.34</ele>
        <time>2014-05-03T09:16:59Z</time>
      </trkpt>
      <trkpt lat="50.55069" lon="1.80487">
        <ele>32.34</ele>
        <time>2014-05-03T09:17:06Z</time>
      </trkpt>
      <trkpt lat="50.55068" lon="1.8047">
        <ele>32.34</ele>
        <time>2014-05-03T09:17:12Z</time>
      </trkpt>
      <trkpt lat="50.55067" lon="1.80451">
        <ele>32.82</ele>
        <time>2014-05-03T09:17:18Z</time>
      </trkpt>
      <trkpt lat="50.55065" lon="1.80434">
        <ele>32.34</ele>
        <time>2014-05-03T09:17:24Z</time>
      </trkpt>
      <trkpt lat="50.55067" lon="1.80418">
        <ele>32.82</ele>
        <time>2014-05-03T09:17:30Z</time>
      </trkpt>
      <trkpt lat="50.55064" lon="1.80401">
        <ele>32.34</ele>
        <time>2014-05-03T09:17:36Z</time>
      </trkpt>
      <trkpt lat="50.55059" lon="1.80387">
        <ele>32.34</ele>
        <time>2014-05-03T09:17:41Z</time>
      </trkpt>
      <trkpt lat="50.55051" lon="1.80374">
        <ele>32.34</ele>
        <time>2014-05-03T09:17:46Z</time>
      </trkpt>
      <trkpt lat="50.55043" lon="1.8036">
        <ele>31.86</ele>
        <time>2014-05-03T09:17:52Z</time>
      </trkpt>
      <trkpt lat="50.55037" lon="1.80349">
        <ele>31.86</ele>
        <time>2014-05-03T09:17:57Z</time>
      </trkpt>
      <trkpt lat="50.5503" lon="1.80338">
        <ele>32.34</ele>
        <time>2014-05-03T09:18:02Z</time>
      </trkpt>
      <trkpt lat="50.55023" lon="1.80329">
        <ele>32.34</ele>
        <time>2014-05-03T09:18:07Z</time>
      </trkpt>
      <trkpt lat="50.55016" lon="1.80318">
        <ele>32.82</ele>
        <time>2014-05-03T09:18:12Z</time>
      </trkpt>
      <trkpt lat="50.55008" lon="1.80308">
        <ele>32.82</ele>
        <time>2014-05-03T09:18:17Z</time>
      </trkpt>
      <trkpt lat="50.55" lon="1.803">
        <ele>32.82</ele>
        <time>2014-05-03T09:18:22Z</time>
      </trkpt>
      <trkpt lat="50.54993" lon="1.80289">
        <ele>32.34</ele>
        <time>2014-05-03T09:18:28Z</time>
      </trkpt>
      <trkpt lat="50.54987" lon="1.80279">
        <ele>31.86</ele>
        <time>2014-05-03T09:18:33Z</time>
      </trkpt>
      <trkpt lat="50.54981" lon="1.80267">
        <ele>31.86</ele>
        <time>2014-05-03T09:18:38Z</time>
      </trkpt>
      <trkpt lat="50.54973" lon="1.80258">
        <ele>31.86</ele>
        <time>2014-05-03T09:18:43Z</time>
      </trkpt>
      <trkpt lat="50.54967" lon="1.80247">
        <ele>31.86</ele>
        <time>2014-05-03T09:18:48Z</time>
      </trkpt>
      <trkpt lat="50.5496" lon="1.80235">
        <ele>31.86</ele>
        <time>2014-05-03T09:18:54Z</time>
      </trkpt>
      <trkpt lat="50.54952" lon="1.80222">
        <ele>31.86</ele>
        <time>2014-05-03T09:19:00Z</time>
      </trkpt>
      <trkpt lat="50.54947" lon="1.80208">
        <ele>31.86</ele>
        <time>2014-05-03T09:19:06Z</time>
      </trkpt>
      <trkpt lat="50.5494" lon="1.80198">
        <ele>31.38</ele>
        <time>2014-05-03T09:19:11Z</time>
      </trkpt>
      <trkpt lat="50.54933" lon="1.80187">
        <ele>32.34</ele>
        <time>2014-05-03T09:19:17Z</time>
      </trkpt>
      <trkpt lat="50.54925" lon="1.80176">
        <ele>32.34</ele>
        <time>2014-05-03T09:19:23Z</time>
      </trkpt>
      <trkpt lat="50.54918" lon="1.80163">
        <ele>32.82</ele>
        <time>2014-05-03T09:19:29Z</time>
      </trkpt>
      <trkpt lat="50.54909" lon="1.8015">
        <ele>32.82</ele>
        <time>2014-05-03T09:19:35Z</time>
      </trkpt>
      <trkpt lat="50.54902" lon="1.80139">
        <ele>32.34</ele>
        <time>2014-05-03T09:19:41Z</time>
      </trkpt>
      <trkpt lat="50.54894" lon="1.80128">
        <ele>31.86</ele>
        <time>2014-05-03T09:19:46Z</time>
      </trkpt>
      <trkpt lat="50.54886" lon="1.80118">
        <ele>31.38</ele>
        <time>2014-05-03T09:19:52Z</time>
      </trkpt>
      <trkpt lat="50.54879" lon="1.80106">
        <ele>31.86</ele>
        <time>2014-05-03T09:19:58Z</time>
      </trkpt>
      <trkpt lat="50.54871" lon="1.80095">
        <ele>31.86</ele>
        <time>2014-05-03T09:20:04Z</time>
      </trkpt>
      <trkpt lat="50.54865" lon="1.80084">
        <ele>31.86</ele>
        <time>2014-05-03T09:20:10Z</time>
      </trkpt>
      <trkpt lat="50.54857" lon="1.8007">
        <ele>31.38</ele>
        <time>2014-05-03T09:20:16Z</time>
      </trkpt>
      <trkpt lat="50.54852" lon="1.80054">
        <ele>31.86</ele>
        <time>2014-05-03T09:20:22Z</time>
      </trkpt>
      <trkpt lat="50.54848" lon="1.80039">
        <ele>31.86</ele>
        <time>2014-05-03T09:20:28Z</time>
      </trkpt>
      <trkpt lat="50.54843" lon="1.80023">
        <ele>31.86</ele>
        <time>2014-05-03T09:20:34Z</time>
      </trkpt>
      <trkpt lat="50.54838" lon="1.80006">
        <ele>31.86</ele>
        <time>2014-05-03T09:20:40Z</time>
      </trkpt>
      <trkpt lat="50.54832" lon="1.7999">
        <ele>31.86</ele>
        <time>2014-05-03T09:20:46Z</time>
      </trkpt>
      <trkpt lat="50.54827" lon="1.79975">
        <ele>31.86</ele>
        <time>2014-05-03T09:20:51Z</time>
      </trkpt>
      <trkpt lat="50.54823" lon="1.79962">
        <ele>31.86</ele>
        <time>2014-05-03T09:20:56Z</time>
      </trkpt>
      <trkpt lat="50.54818" lon="1.79949">
        <ele>31.86</ele>
        <time>2014-05-03T09:21:01Z</time>
      </trkpt>
      <trkpt lat="50.54814" lon="1.79934">
        <ele>31.38</ele>
        <time>2014-05-03T09:21:07Z</time>
      </trkpt>
      <trkpt lat="50.54811" lon="1.7992">
        <ele>31.86</ele>
        <time>2014-05-03T09:21:12Z</time>
      </trkpt>
      <trkpt lat="50.54807" lon="1.79905">
        <ele>31.38</ele>
        <time>2014-05-03T09:21:17Z</time>
      </trkpt>
      <trkpt lat="50.54804" lon="1.7989">
        <ele>31.86</ele>
        <time>2014-05-03T09:21:23Z</time>
      </trkpt>
      <trkpt lat="50.548" lon="1.79876">
        <ele>31.86</ele>
        <time>2014-05-03T09:21:29Z</time>
      </trkpt>
      <trkpt lat="50.54796" lon="1.7986">
        <ele>31.38</ele>
        <time>2014-05-03T09:21:35Z</time>
      </trkpt>
      <trkpt lat="50.54792" lon="1.79847">
        <ele>31.38</ele>
        <time>2014-05-03T09:21:41Z</time>
      </trkpt>
      <trkpt lat="50.54787" lon="1.7983">
        <ele>30.9</ele>
        <time>2014-05-03T09:21:47Z</time>
      </trkpt>
      <trkpt lat="50.54784" lon="1.79815">
        <ele>31.38</ele>
        <time>2014-05-03T09:21:53Z</time>
      </trkpt>
      <trkpt lat="50.54781" lon="1.798">
        <ele>31.38</ele>
        <time>2014-05-03T09:21:58Z</time>
      </trkpt>
      <trkpt lat="50.54778" lon="1.79786">
        <ele>30.9</ele>
        <time>2014-05-03T09:22:03Z</time>
      </trkpt>
      <trkpt lat="50.54775" lon="1.7977">
        <ele>31.38</ele>
        <time>2014-05-03T09:22:10Z</time>
      </trkpt>
      <trkpt lat="50.5477" lon="1.79755">
        <ele>30.9</ele>
        <time>2014-05-03T09:22:16Z</time>
      </trkpt>
      <trkpt lat="50.54767" lon="1.79738">
        <ele>31.38</ele>
        <time>2014-05-03T09:22:23Z</time>
      </trkpt>
      <trkpt lat="50.5476" lon="1.79721">
        <ele>30.9</ele>
        <time>2014-05-03T09:22:29Z</time>
      </trkpt>
      <trkpt lat="50.54754" lon="1.79705">
        <ele>30.42</ele>
        <time>2014-05-03T09:22:35Z</time>
      </trkpt>
      <trkpt lat="50.54748" lon="1.79692">
        <ele>30.9</ele>
        <time>2014-05-03T09:22:41Z</time>
      </trkpt>
      <trkpt lat="50.54743" lon="1.7968">
        <ele>30.9</ele>
        <time>2014-05-03T09:22:47Z</time>
      </trkpt>
      <trkpt lat="50.54736" lon="1.79667">
        <ele>30.42</ele>
        <time>2014-05-03T09:22:53Z</time>
      </trkpt>
      <trkpt lat="50.5473" lon="1.79656">
        <ele>30.9</ele>
        <time>2014-05-03T09:22:59Z</time>
      </trkpt>
      <trkpt lat="50.54724" lon="1.79644">
        <ele>30.42</ele>
        <time>2014-05-03T09:23:04Z</time>
      </trkpt>
      <trkpt lat="50.54716" lon="1.79633">
        <ele>30.42</ele>
        <time>2014-05-03T09:23:10Z</time>
      </trkpt>
      <trkpt lat="50.54708" lon="1.79623">
        <ele>30.9</ele>
        <time>2014-05-03T09:23:16Z</time>
      </trkpt>
      <trkpt lat="50.547" lon="1.79613">
        <ele>30.9</ele>
        <time>2014-05-03T09:23:22Z</time>
      </trkpt>
      <trkpt lat="50.54691" lon="1.79601">
        <ele>30.42</ele>
        <time>2014-05-03T09:23:28Z</time>
      </trkpt>
      <trkpt lat="50.54683" lon="1.79591">
        <ele>30.42</ele>
        <time>2014-05-03T09:23:33Z</time>
      </trkpt>
      <trkpt lat="50.54675" lon="1.79582">
        <ele>30.9</ele>
        <time>2014-05-03T09:23:39Z</time>
      </trkpt>
      <trkpt lat="50.54666" lon="1.79572">
        <ele>30.42</ele>
        <time>2014-05-03T09:23:45Z</time>
      </trkpt>
      <trkpt lat="50.54658" lon="1.79563">
        <ele>30.42</ele>
        <time>2014-05-03T09:23:50Z</time>
      </trkpt>
      <trkpt lat="50.5465" lon="1.79554">
        <ele>30.9</ele>
        <time>2014-05-03T09:23:56Z</time>
      </trkpt>
      <trkpt lat="50.54641" lon="1.79545">
        <ele>30.9</ele>
        <time>2014-05-03T09:24:02Z</time>
      </trkpt>
      <trkpt lat="50.54633" lon="1.79536">
        <ele>30.9</ele>
        <time>2014-05-03T09:24:18Z</time>
      </trkpt>
      <trkpt lat="50.54626" lon="1.79522">
        <ele>30.9</ele>
        <time>2014-05-03T09:24:27Z</time>
      </trkpt>
      <trkpt lat="50.54623" lon="1.79505">
        <ele>31.38</ele>
        <time>2014-05-03T09:24:34Z</time>
      </trkpt>
      <trkpt lat="50.5463" lon="1.79497">
        <ele>31.86</ele>
        <time>2014-05-03T09:24:59Z</time>
      </trkpt>
      <trkpt lat="50.54632" lon="1.79479">
        <ele>31.86</ele>
        <time>2014-05-03T09:25:08Z</time>
      </trkpt>
      <trkpt lat="50.54634" lon="1.79461">
        <ele>30.9</ele>
        <time>2014-05-03T09:25:19Z</time>
      </trkpt>
      <trkpt lat="50.54637" lon="1.79444">
        <ele>30.9</ele>
        <time>2014-05-03T09:25:26Z</time>
      </trkpt>
      <trkpt lat="50.54638" lon="1.79427">
        <ele>31.38</ele>
        <time>2014-05-03T09:25:33Z</time>
      </trkpt>
      <trkpt lat="50.54638" lon="1.7941">
        <ele>30.9</ele>
        <time>2014-05-03T09:25:40Z</time>
      </trkpt>
      <trkpt lat="50.54639" lon="1.79394">
        <ele>30.9</ele>
        <time>2014-05-03T09:25:47Z</time>
      </trkpt>
      <trkpt lat="50.54641" lon="1.79377">
        <ele>30.42</ele>
        <time>2014-05-03T09:25:53Z</time>
      </trkpt>
      <trkpt lat="50.54643" lon="1.79359">
        <ele>30.9</ele>
        <time>2014-05-03T09:26:00Z</time>
      </trkpt>
      <trkpt lat="50.54644" lon="1.79344">
        <ele>31.38</ele>
        <time>2014-05-03T09:26:06Z</time>
      </trkpt>
      <trkpt lat="50.54647" lon="1.79327">
        <ele>31.38</ele>
        <time>2014-05-03T09:26:13Z</time>
      </trkpt>
      <trkpt lat="50.54654" lon="1.79313">
        <ele>31.38</ele>
        <time>2014-05-03T09:26:20Z</time>
      </trkpt>
      <trkpt lat="50.54662" lon="1.79298">
        <ele>31.38</ele>
        <time>2014-05-03T09:26:28Z</time>
      </trkpt>
      <trkpt lat="50.54672" lon="1.79288">
        <ele>31.38</ele>
        <time>2014-05-03T09:26:35Z</time>
      </trkpt>
      <trkpt lat="50.54683" lon="1.79284">
        <ele>31.38</ele>
        <time>2014-05-03T09:26:42Z</time>
      </trkpt>
      <trkpt lat="50.54693" lon="1.79282">
        <ele>31.38</ele>
        <time>2014-05-03T09:26:49Z</time>
      </trkpt>
      <trkpt lat="50.54705" lon="1.79276">
        <ele>31.86</ele>
        <time>2014-05-03T09:26:57Z</time>
      </trkpt>
      <trkpt lat="50.54712" lon="1.79259">
        <ele>32.34</ele>
        <time>2014-05-03T09:27:06Z</time>
      </trkpt>
      <trkpt lat="50.54707" lon="1.79243">
        <ele>31.86</ele>
        <time>2014-05-03T09:27:13Z</time>
      </trkpt>
      <trkpt lat="50.54699" lon="1.79226">
        <ele>31.86</ele>
        <time>2014-05-03T09:27:20Z</time>
      </trkpt>
      <trkpt lat="50.54693" lon="1.7921">
        <ele>31.86</ele>
        <time>2014-05-03T09:27:26Z</time>
      </trkpt>
      <trkpt lat="50.54689" lon="1.79193">
        <ele>32.34</ele>
        <time>2014-05-03T09:27:33Z</time>
      </trkpt>
      <trkpt lat="50.54691" lon="1.79178">
        <ele>31.86</ele>
        <time>2014-05-03T09:27:40Z</time>
      </trkpt>
      <trkpt lat="50.54696" lon="1.79165">
        <ele>31.86</ele>
        <time>2014-05-03T09:27:46Z</time>
      </trkpt>
      <trkpt lat="50.54705" lon="1.79154">
        <ele>31.86</ele>
        <time>2014-05-03T09:27:52Z</time>
      </trkpt>
      <trkpt lat="50.54712" lon="1.79146">
        <ele>31.86</ele>
        <time>2014-05-03T09:27:58Z</time>
      </trkpt>
      <trkpt lat="50.54721" lon="1.79138">
        <ele>31.86</ele>
        <time>2014-05-03T09:28:04Z</time>
      </trkpt>
      <trkpt lat="50.54729" lon="1.79125">
        <ele>31.86</ele>
        <time>2014-05-03T09:28:11Z</time>
      </trkpt>
      <trkpt lat="50.54736" lon="1.79114">
        <ele>32.34</ele>
        <time>2014-05-03T09:28:17Z</time>
      </trkpt>
      <trkpt lat="50.54745" lon="1.79105">
        <ele>32.34</ele>
        <time>2014-05-03T09:28:23Z</time>
      </trkpt>
      <trkpt lat="50.54754" lon="1.79097">
        <ele>32.82</ele>
        <time>2014-05-03T09:28:30Z</time>
      </trkpt>
      <trkpt lat="50.54763" lon="1.79087">
        <ele>33.3</ele>
        <time>2014-05-03T09:28:36Z</time>
      </trkpt>
      <trkpt lat="50.54773" lon="1.79075">
        <ele>32.82</ele>
        <time>2014-05-03T09:28:42Z</time>
      </trkpt>
      <trkpt lat="50.5478" lon="1.79064">
        <ele>32.82</ele>
        <time>2014-05-03T09:28:47Z</time>
      </trkpt>
      <trkpt lat="50.54785" lon="1.79053">
        <ele>33.3</ele>
        <time>2014-05-03T09:28:55Z</time>
      </trkpt>
      <trkpt lat="50.54795" lon="1.79056">
        <ele>32.82</ele>
        <time>2014-05-03T09:29:10Z</time>
      </trkpt>
      <trkpt lat="50.54804" lon="1.79048">
        <ele>32.34</ele>
        <time>2014-05-03T09:29:16Z</time>
      </trkpt>
      <trkpt lat="50.54812" lon="1.79039">
        <ele>33.78</ele>
        <time>2014-05-03T09:29:22Z</time>
      </trkpt>
      <trkpt lat="50.5482" lon="1.79027">
        <ele>33.3</ele>
        <time>2014-05-03T09:29:28Z</time>
      </trkpt>
      <trkpt lat="50.54826" lon="1.79015">
        <ele>34.26</ele>
        <time>2014-05-03T09:29:34Z</time>
      </trkpt>
      <trkpt lat="50.54833" lon="1.79003">
        <ele>33.78</ele>
        <time>2014-05-03T09:29:40Z</time>
      </trkpt>
      <trkpt lat="50.54836" lon="1.78989">
        <ele>33.78</ele>
        <time>2014-05-03T09:29:46Z</time>
      </trkpt>
      <trkpt lat="50.54842" lon="1.78974">
        <ele>34.74</ele>
        <time>2014-05-03T09:29:52Z</time>
      </trkpt>
      <trkpt lat="50.54846" lon="1.78957">
        <ele>34.26</ele>
        <time>2014-05-03T09:29:59Z</time>
      </trkpt>
      <trkpt lat="50.5485" lon="1.78942">
        <ele>34.26</ele>
        <time>2014-05-03T09:30:05Z</time>
      </trkpt>
      <trkpt lat="50.54855" lon="1.78927">
        <ele>34.26</ele>
        <time>2014-05-03T09:30:11Z</time>
      </trkpt>
      <trkpt lat="50.54857" lon="1.78912">
        <ele>34.74</ele>
        <time>2014-05-03T09:30:17Z</time>
      </trkpt>
      <trkpt lat="50.54859" lon="1.78896">
        <ele>34.74</ele>
        <time>2014-05-03T09:30:23Z</time>
      </trkpt>
      <trkpt lat="50.54861" lon="1.78882">
        <ele>34.74</ele>
        <time>2014-05-03T09:30:29Z</time>
      </trkpt>
      <trkpt lat="50.54864" lon="1.78864">
        <ele>35.23</ele>
        <time>2014-05-03T09:30:36Z</time>
      </trkpt>
      <trkpt lat="50.54866" lon="1.78845">
        <ele>35.23</ele>
        <time>2014-05-03T09:30:43Z</time>
      </trkpt>
      <trkpt lat="50.54866" lon="1.78829">
        <ele>34.74</ele>
        <time>2014-05-03T09:30:49Z</time>
      </trkpt>
      <trkpt lat="50.54867" lon="1.7881">
        <ele>35.23</ele>
        <time>2014-05-03T09:30:56Z</time>
      </trkpt>
      <trkpt lat="50.54867" lon="1.78793">
        <ele>35.71</ele>
        <time>2014-05-03T09:31:02Z</time>
      </trkpt>
      <trkpt lat="50.54867" lon="1.78775">
        <ele>35.71</ele>
        <time>2014-05-03T09:31:09Z</time>
      </trkpt>
      <trkpt lat="50.54868" lon="1.78758">
        <ele>35.71</ele>
        <time>2014-05-03T09:31:16Z</time>
      </trkpt>
      <trkpt lat="50.54869" lon="1.7874">
        <ele>36.19</ele>
        <time>2014-05-03T09:31:23Z</time>
      </trkpt>
      <trkpt lat="50.5487" lon="1.78725">
        <ele>36.19</ele>
        <time>2014-05-03T09:31:29Z</time>
      </trkpt>
      <trkpt lat="50.54871" lon="1.78708">
        <ele>36.67</ele>
        <time>2014-05-03T09:31:36Z</time>
      </trkpt>
      <trkpt lat="50.54874" lon="1.78691">
        <ele>36.67</ele>
        <time>2014-05-03T09:31:43Z</time>
      </trkpt>
      <trkpt lat="50.54882" lon="1.78677">
        <ele>37.63</ele>
        <time>2014-05-03T09:31:50Z</time>
      </trkpt>
      <trkpt lat="50.5489" lon="1.78666">
        <ele>37.15</ele>
        <time>2014-05-03T09:31:56Z</time>
      </trkpt>
      <trkpt lat="50.54897" lon="1.78654">
        <ele>38.11</ele>
        <time>2014-05-03T09:32:03Z</time>
      </trkpt>
      <trkpt lat="50.54903" lon="1.78642">
        <ele>38.59</ele>
        <time>2014-05-03T09:32:09Z</time>
      </trkpt>
      <trkpt lat="50.5491" lon="1.7863">
        <ele>39.55</ele>
        <time>2014-05-03T09:32:16Z</time>
      </trkpt>
      <trkpt lat="50.54918" lon="1.78617">
        <ele>39.55</ele>
        <time>2014-05-03T09:32:23Z</time>
      </trkpt>
      <trkpt lat="50.54926" lon="1.78605">
        <ele>40.03</ele>
        <time>2014-05-03T09:32:29Z</time>
      </trkpt>
      <trkpt lat="50.54933" lon="1.78593">
        <ele>40.99</ele>
        <time>2014-05-03T09:32:35Z</time>
      </trkpt>
      <trkpt lat="50.54941" lon="1.7858">
        <ele>42.44</ele>
        <time>2014-05-03T09:32:41Z</time>
      </trkpt>
      <trkpt lat="50.54947" lon="1.78566">
        <ele>42.44</ele>
        <time>2014-05-03T09:32:47Z</time>
      </trkpt>
      <trkpt lat="50.54951" lon="1.78552">
        <ele>43.4</ele>
        <time>2014-05-03T09:32:53Z</time>
      </trkpt>
      <trkpt lat="50.54955" lon="1.78538">
        <ele>43.88</ele>
        <time>2014-05-03T09:32:59Z</time>
      </trkpt>
      <trkpt lat="50.54957" lon="1.78521">
        <ele>44.36</ele>
        <time>2014-05-03T09:33:05Z</time>
      </trkpt>
      <trkpt lat="50.5496" lon="1.78506">
        <ele>44.84</ele>
        <time>2014-05-03T09:33:11Z</time>
      </trkpt>
      <trkpt lat="50.54964" lon="1.78493">
        <ele>46.28</ele>
        <time>2014-05-03T09:33:17Z</time>
      </trkpt>
      <trkpt lat="50.54969" lon="1.78479">
        <ele>47.24</ele>
        <time>2014-05-03T09:33:23Z</time>
      </trkpt>
      <trkpt lat="50.54975" lon="1.78468">
        <ele>46.76</ele>
        <time>2014-05-03T09:33:29Z</time>
      </trkpt>
      <trkpt lat="50.54983" lon="1.7846">
        <ele>47.24</ele>
        <time>2014-05-03T09:33:35Z</time>
      </trkpt>
      <trkpt lat="50.54993" lon="1.78454">
        <ele>47.24</ele>
        <time>2014-05-03T09:33:41Z</time>
      </trkpt>
      <trkpt lat="50.55003" lon="1.78449">
        <ele>46.76</ele>
        <time>2014-05-03T09:33:46Z</time>
      </trkpt>
      <trkpt lat="50.55013" lon="1.78445">
        <ele>46.76</ele>
        <time>2014-05-03T09:33:52Z</time>
      </trkpt>
      <trkpt lat="50.55022" lon="1.78439">
        <ele>48.2</ele>
        <time>2014-05-03T09:33:58Z</time>
      </trkpt>
      <trkpt lat="50.5503" lon="1.78433">
        <ele>45.8</ele>
        <time>2014-05-03T09:34:03Z</time>
      </trkpt>
      <trkpt lat="50.55038" lon="1.78425">
        <ele>45.8</ele>
        <time>2014-05-03T09:34:08Z</time>
      </trkpt>
      <trkpt lat="50.55047" lon="1.78416">
        <ele>45.8</ele>
        <time>2014-05-03T09:34:14Z</time>
      </trkpt>
      <trkpt lat="50.55055" lon="1.78405">
        <ele>45.8</ele>
        <time>2014-05-03T09:34:20Z</time>
      </trkpt>
      <trkpt lat="50.55061" lon="1.78395">
        <ele>46.28</ele>
        <time>2014-05-03T09:34:25Z</time>
      </trkpt>
      <trkpt lat="50.55068" lon="1.78383">
        <ele>46.28</ele>
        <time>2014-05-03T09:34:30Z</time>
      </trkpt>
      <trkpt lat="50.55072" lon="1.78367">
        <ele>47.24</ele>
        <time>2014-05-03T09:34:36Z</time>
      </trkpt>
      <trkpt lat="50.55077" lon="1.78352">
        <ele>47.72</ele>
        <time>2014-05-03T09:34:42Z</time>
      </trkpt>
      <trkpt lat="50.55082" lon="1.78337">
        <ele>48.2</ele>
        <time>2014-05-03T09:34:48Z</time>
      </trkpt>
      <trkpt lat="50.55086" lon="1.78323">
        <ele>49.65</ele>
        <time>2014-05-03T09:34:55Z</time>
      </trkpt>
      <trkpt lat="50.55092" lon="1.78308">
        <ele>51.09</ele>
        <time>2014-05-03T09:35:02Z</time>
      </trkpt>
      <trkpt lat="50.55096" lon="1.78289">
        <ele>51.57</ele>
        <time>2014-05-03T09:35:08Z</time>
      </trkpt>
      <trkpt lat="50.55096" lon="1.78272">
        <ele>52.53</ele>
        <time>2014-05-03T09:35:15Z</time>
      </trkpt>
      <trkpt lat="50.551" lon="1.78255">
        <ele>52.53</ele>
        <time>2014-05-03T09:35:22Z</time>
      </trkpt>
      <trkpt lat="50.55103" lon="1.78239">
        <ele>53.97</ele>
        <time>2014-05-03T09:35:28Z</time>
      </trkpt>
      <trkpt lat="50.55104" lon="1.78223">
        <ele>54.45</ele>
        <time>2014-05-03T09:35:35Z</time>
      </trkpt>
      <trkpt lat="50.55106" lon="1.78205">
        <ele>55.41</ele>
        <time>2014-05-03T09:35:42Z</time>
      </trkpt>
      <trkpt lat="50.55109" lon="1.78187">
        <ele>55.89</ele>
        <time>2014-05-03T09:35:49Z</time>
      </trkpt>
      <trkpt lat="50.55111" lon="1.78168">
        <ele>56.86</ele>
        <time>2014-05-03T09:35:56Z</time>
      </trkpt>
      <trkpt lat="50.55113" lon="1.78151">
        <ele>57.34</ele>
        <time>2014-05-03T09:36:03Z</time>
      </trkpt>
      <trkpt lat="50.55116" lon="1.78133">
        <ele>57.34</ele>
        <time>2014-05-03T09:36:10Z</time>
      </trkpt>
      <trkpt lat="50.55119" lon="1.78115">
        <ele>57.34</ele>
        <time>2014-05-03T09:36:17Z</time>
      </trkpt>
      <trkpt lat="50.55122" lon="1.781">
        <ele>57.34</ele>
        <time>2014-05-03T09:36:24Z</time>
      </trkpt>
      <trkpt lat="50.55129" lon="1.78084">
        <ele>57.82</ele>
        <time>2014-05-03T09:36:32Z</time>
      </trkpt>
      <trkpt lat="50.55135" lon="1.78068">
        <ele>58.78</ele>
        <time>2014-05-03T09:36:41Z</time>
      </trkpt>
      <trkpt lat="50.55145" lon="1.78056">
        <ele>58.78</ele>
        <time>2014-05-03T09:36:49Z</time>
      </trkpt>
      <trkpt lat="50.55156" lon="1.78045">
        <ele>58.78</ele>
        <time>2014-05-03T09:36:56Z</time>
      </trkpt>
      <trkpt lat="50.55167" lon="1.78034">
        <ele>57.82</ele>
        <time>2014-05-03T09:37:05Z</time>
      </trkpt>
      <trkpt lat="50.55177" lon="1.78025">
        <ele>56.37</ele>
        <time>2014-05-03T09:37:13Z</time>
      </trkpt>
      <trkpt lat="50.55187" lon="1.78015">
        <ele>55.89</ele>
        <time>2014-05-03T09:37:22Z</time>
      </trkpt>
      <trkpt lat="50.55199" lon="1.78005">
        <ele>56.37</ele>
        <time>2014-05-03T09:37:32Z</time>
      </trkpt>
      <trkpt lat="50.55213" lon="1.77994">
        <ele>56.37</ele>
        <time>2014-05-03T09:37:40Z</time>
      </trkpt>
      <trkpt lat="50.55222" lon="1.77982">
        <ele>57.82</ele>
        <time>2014-05-03T09:37:49Z</time>
      </trkpt>
      <trkpt lat="50.55233" lon="1.77967">
        <ele>58.3</ele>
        <time>2014-05-03T09:37:58Z</time>
      </trkpt>
      <trkpt lat="50.55243" lon="1.77953">
        <ele>59.26</ele>
        <time>2014-05-03T09:38:06Z</time>
      </trkpt>
      <trkpt lat="50.55253" lon="1.77942">
        <ele>59.74</ele>
        <time>2014-05-03T09:38:14Z</time>
      </trkpt>
      <trkpt lat="50.55257" lon="1.77925">
        <ele>59.74</ele>
        <time>2014-05-03T09:38:22Z</time>
      </trkpt>
      <trkpt lat="50.55267" lon="1.77912">
        <ele>60.22</ele>
        <time>2014-05-03T09:38:28Z</time>
      </trkpt>
      <trkpt lat="50.55277" lon="1.779">
        <ele>61.18</ele>
        <time>2014-05-03T09:38:35Z</time>
      </trkpt>
      <trkpt lat="50.553" lon="1.77884">
        <ele>61.66</ele>
        <time>2014-05-03T09:38:43Z</time>
      </trkpt>
      <trkpt lat="50.5531" lon="1.77871">
        <ele>62.14</ele>
        <time>2014-05-03T09:38:51Z</time>
      </trkpt>
      <trkpt lat="50.5532" lon="1.77855">
        <ele>62.62</ele>
        <time>2014-05-03T09:38:59Z</time>
      </trkpt>
      <trkpt lat="50.5533" lon="1.77842">
        <ele>64.07</ele>
        <time>2014-05-03T09:39:06Z</time>
      </trkpt>
      <trkpt lat="50.55338" lon="1.7783">
        <ele>64.55</ele>
        <time>2014-05-03T09:39:13Z</time>
      </trkpt>
      <trkpt lat="50.55347" lon="1.77816">
        <ele>65.51</ele>
        <time>2014-05-03T09:39:21Z</time>
      </trkpt>
      <trkpt lat="50.55353" lon="1.77797">
        <ele>66.47</ele>
        <time>2014-05-03T09:39:30Z</time>
      </trkpt>
      <trkpt lat="50.55356" lon="1.77781">
        <ele>66.95</ele>
        <time>2014-05-03T09:39:37Z</time>
      </trkpt>
      <trkpt lat="50.55359" lon="1.77763">
        <ele>66.95</ele>
        <time>2014-05-03T09:39:44Z</time>
      </trkpt>
      <trkpt lat="50.55362" lon="1.77745">
        <ele>66.95</ele>
        <time>2014-05-03T09:39:51Z</time>
      </trkpt>
      <trkpt lat="50.55366" lon="1.77728">
        <ele>66.95</ele>
        <time>2014-05-03T09:39:58Z</time>
      </trkpt>
      <trkpt lat="50.5537" lon="1.77712">
        <ele>66.95</ele>
        <time>2014-05-03T09:40:04Z</time>
      </trkpt>
      <trkpt lat="50.55373" lon="1.77699">
        <ele>66.95</ele>
        <time>2014-05-03T09:40:10Z</time>
      </trkpt>
      <trkpt lat="50.55376" lon="1.77687">
        <ele>65.51</ele>
        <time>2014-05-03T09:40:27Z</time>
      </trkpt>
      <trkpt lat="50.55378" lon="1.77666">
        <ele>64.55</ele>
        <time>2014-05-03T09:40:35Z</time>
      </trkpt>
      <trkpt lat="50.5538" lon="1.77648">
        <ele>63.58</ele>
        <time>2014-05-03T09:40:43Z</time>
      </trkpt>
      <trkpt lat="50.55386" lon="1.77632">
        <ele>62.62</ele>
        <time>2014-05-03T09:40:52Z</time>
      </trkpt>
      <trkpt lat="50.55395" lon="1.77618">
        <ele>61.18</ele>
        <time>2014-05-03T09:41:02Z</time>
      </trkpt>
      <trkpt lat="50.55404" lon="1.77614">
        <ele>59.74</ele>
        <time>2014-05-03T09:41:10Z</time>
      </trkpt>
      <trkpt lat="50.55413" lon="1.77612">
        <ele>59.74</ele>
        <time>2014-05-03T09:41:17Z</time>
      </trkpt>
      <trkpt lat="50.55423" lon="1.77609">
        <ele>57.82</ele>
        <time>2014-05-03T09:41:24Z</time>
      </trkpt>
      <trkpt lat="50.55433" lon="1.77607">
        <ele>57.34</ele>
        <time>2014-05-03T09:41:31Z</time>
      </trkpt>
      <trkpt lat="50.55443" lon="1.77605">
        <ele>56.37</ele>
        <time>2014-05-03T09:41:38Z</time>
      </trkpt>
      <trkpt lat="50.55454" lon="1.77601">
        <ele>56.37</ele>
        <time>2014-05-03T09:41:45Z</time>
      </trkpt>
      <trkpt lat="50.55465" lon="1.77596">
        <ele>55.89</ele>
        <time>2014-05-03T09:41:52Z</time>
      </trkpt>
      <trkpt lat="50.55479" lon="1.77589">
        <ele>55.41</ele>
        <time>2014-05-03T09:42:00Z</time>
      </trkpt>
      <trkpt lat="50.5549" lon="1.77577">
        <ele>55.41</ele>
        <time>2014-05-03T09:42:08Z</time>
      </trkpt>
      <trkpt lat="50.55499" lon="1.77565">
        <ele>54.93</ele>
        <time>2014-05-03T09:42:15Z</time>
      </trkpt>
      <trkpt lat="50.55504" lon="1.77551">
        <ele>54.93</ele>
        <time>2014-05-03T09:42:22Z</time>
      </trkpt>
      <trkpt lat="50.55512" lon="1.77539">
        <ele>54.45</ele>
        <time>2014-05-03T09:42:29Z</time>
      </trkpt>
      <trkpt lat="50.55517" lon="1.77524">
        <ele>54.45</ele>
        <time>2014-05-03T09:42:36Z</time>
      </trkpt>
      <trkpt lat="50.55521" lon="1.77508">
        <ele>53.97</ele>
        <time>2014-05-03T09:42:43Z</time>
      </trkpt>
      <trkpt lat="50.55527" lon="1.77493">
        <ele>54.45</ele>
        <time>2014-05-03T09:42:50Z</time>
      </trkpt>
      <trkpt lat="50.55531" lon="1.77478">
        <ele>53.97</ele>
        <time>2014-05-03T09:42:57Z</time>
      </trkpt>
      <trkpt lat="50.55535" lon="1.77462">
        <ele>53.49</ele>
        <time>2014-05-03T09:43:04Z</time>
      </trkpt>
      <trkpt lat="50.55539" lon="1.77446">
        <ele>53.97</ele>
        <time>2014-05-03T09:43:11Z</time>
      </trkpt>
      <trkpt lat="50.55543" lon="1.7743">
        <ele>54.45</ele>
        <time>2014-05-03T09:43:18Z</time>
      </trkpt>
      <trkpt lat="50.55545" lon="1.77411">
        <ele>53.97</ele>
        <time>2014-05-03T09:43:26Z</time>
      </trkpt>
      <trkpt lat="50.55549" lon="1.77395">
        <ele>54.45</ele>
        <time>2014-05-03T09:43:33Z</time>
      </trkpt>
      <trkpt lat="50.55551" lon="1.77377">
        <ele>54.45</ele>
        <time>2014-05-03T09:43:40Z</time>
      </trkpt>
      <trkpt lat="50.55555" lon="1.77359">
        <ele>55.41</ele>
        <time>2014-05-03T09:43:48Z</time>
      </trkpt>
      <trkpt lat="50.55558" lon="1.77341">
        <ele>55.89</ele>
        <time>2014-05-03T09:43:58Z</time>
      </trkpt>
      <trkpt lat="50.55563" lon="1.77323">
        <ele>56.37</ele>
        <time>2014-05-03T09:44:06Z</time>
      </trkpt>
      <trkpt lat="50.55565" lon="1.77306">
        <ele>56.86</ele>
        <time>2014-05-03T09:44:14Z</time>
      </trkpt>
      <trkpt lat="50.55565" lon="1.77287">
        <ele>57.34</ele>
        <time>2014-05-03T09:44:26Z</time>
      </trkpt>
      <trkpt lat="50.55568" lon="1.77268">
        <ele>58.3</ele>
        <time>2014-05-03T09:44:33Z</time>
      </trkpt>
      <trkpt lat="50.5557" lon="1.77249">
        <ele>58.78</ele>
        <time>2014-05-03T09:44:40Z</time>
      </trkpt>
      <trkpt lat="50.55571" lon="1.77244">
        <ele>59.26</ele>
        <time>2014-05-03T09:44:52Z</time>
      </trkpt>
      <trkpt lat="50.5557" lon="1.77261">
        <ele>58.3</ele>
        <time>2014-05-03T09:45:00Z</time>
      </trkpt>
      <trkpt lat="50.55569" lon="1.77279">
        <ele>57.34</ele>
        <time>2014-05-03T09:45:07Z</time>
      </trkpt>
      <trkpt lat="50.55568" lon="1.77296">
        <ele>56.86</ele>
        <time>2014-05-03T09:45:14Z</time>
      </trkpt>
      <trkpt lat="50.55568" lon="1.77312">
        <ele>55.89</ele>
        <time>2014-05-03T09:45:21Z</time>
      </trkpt>
      <trkpt lat="50.55565" lon="1.77329">
        <ele>55.89</ele>
        <time>2014-05-03T09:45:28Z</time>
      </trkpt>
      <trkpt lat="50.55565" lon="1.77347">
        <ele>55.41</ele>
        <time>2014-05-03T09:45:37Z</time>
      </trkpt>
      <trkpt lat="50.55574" lon="1.77352">
        <ele>54.93</ele>
        <time>2014-05-03T09:45:46Z</time>
      </trkpt>
      <trkpt lat="50.55586" lon="1.77349">
        <ele>55.41</ele>
        <time>2014-05-03T09:45:54Z</time>
      </trkpt>
      <trkpt lat="50.55597" lon="1.77347">
        <ele>55.89</ele>
        <time>2014-05-03T09:46:01Z</time>
      </trkpt>
      <trkpt lat="50.55608" lon="1.77343">
        <ele>56.37</ele>
        <time>2014-05-03T09:46:09Z</time>
      </trkpt>
      <trkpt lat="50.55619" lon="1.77339">
        <ele>56.86</ele>
        <time>2014-05-03T09:46:17Z</time>
      </trkpt>
      <trkpt lat="50.55632" lon="1.77334">
        <ele>58.3</ele>
        <time>2014-05-03T09:46:24Z</time>
      </trkpt>
      <trkpt lat="50.55644" lon="1.77328">
        <ele>57.34</ele>
        <time>2014-05-03T09:46:32Z</time>
      </trkpt>
      <trkpt lat="50.55654" lon="1.77322">
        <ele>58.78</ele>
        <time>2014-05-03T09:46:40Z</time>
      </trkpt>
      <trkpt lat="50.55664" lon="1.77315">
        <ele>59.26</ele>
        <time>2014-05-03T09:46:47Z</time>
      </trkpt>
      <trkpt lat="50.55674" lon="1.77307">
        <ele>59.74</ele>
        <time>2014-05-03T09:46:54Z</time>
      </trkpt>
      <trkpt lat="50.55682" lon="1.77295">
        <ele>59.74</ele>
        <time>2014-05-03T09:47:01Z</time>
      </trkpt>
      <trkpt lat="50.55689" lon="1.77283">
        <ele>59.26</ele>
        <time>2014-05-03T09:47:07Z</time>
      </trkpt>
      <trkpt lat="50.55697" lon="1.77272">
        <ele>58.78</ele>
        <time>2014-05-03T09:47:14Z</time>
      </trkpt>
      <trkpt lat="50.55703" lon="1.77259">
        <ele>59.26</ele>
        <time>2014-05-03T09:47:21Z</time>
      </trkpt>
      <trkpt lat="50.55712" lon="1.77247">
        <ele>60.7</ele>
        <time>2014-05-03T09:47:28Z</time>
      </trkpt>
      <trkpt lat="50.55719" lon="1.77235">
        <ele>58.78</ele>
        <time>2014-05-03T09:47:34Z</time>
      </trkpt>
      <trkpt lat="50.55727" lon="1.77223">
        <ele>58.3</ele>
        <time>2014-05-03T09:47:41Z</time>
      </trkpt>
      <trkpt lat="50.55733" lon="1.7721">
        <ele>58.3</ele>
        <time>2014-05-03T09:47:48Z</time>
      </trkpt>
      <trkpt lat="50.55739" lon="1.77196">
        <ele>59.26</ele>
        <time>2014-05-03T09:47:56Z</time>
      </trkpt>
      <trkpt lat="50.55746" lon="1.77183">
        <ele>58.78</ele>
        <time>2014-05-03T09:48:04Z</time>
      </trkpt>
      <trkpt lat="50.55754" lon="1.77168">
        <ele>58.78</ele>
        <time>2014-05-03T09:48:12Z</time>
      </trkpt>
      <trkpt lat="50.55761" lon="1.77157">
        <ele>58.78</ele>
        <time>2014-05-03T09:48:18Z</time>
      </trkpt>
      <trkpt lat="50.55769" lon="1.77144">
        <ele>58.78</ele>
        <time>2014-05-03T09:48:25Z</time>
      </trkpt>
      <trkpt lat="50.55773" lon="1.77129">
        <ele>58.78</ele>
        <time>2014-05-03T09:48:32Z</time>
      </trkpt>
      <trkpt lat="50.5578" lon="1.77116">
        <ele>58.3</ele>
        <time>2014-05-03T09:48:39Z</time>
      </trkpt>
      <trkpt lat="50.55789" lon="1.77103">
        <ele>58.78</ele>
        <time>2014-05-03T09:48:46Z</time>
      </trkpt>
      <trkpt lat="50.55798" lon="1.771">
        <ele>59.74</ele>
        <time>2014-05-03T09:49:17Z</time>
      </trkpt>
      <trkpt lat="50.55797" lon="1.77098">
        <ele>59.26</ele>
        <time>2014-05-03T09:50:28Z</time>
      </trkpt>
      <trkpt lat="50.55789" lon="1.77097">
        <ele>59.26</ele>
        <time>2014-05-03T09:50:42Z</time>
      </trkpt>
      <trkpt lat="50.55796" lon="1.77095">
        <ele>58.78</ele>
        <time>2014-05-03T09:51:40Z</time>
      </trkpt>
      <trkpt lat="50.55796" lon="1.77094">
        <ele>59.26</ele>
        <time>2014-05-03T09:52:25Z</time>
      </trkpt>
      <trkpt lat="50.558" lon="1.77078">
        <ele>58.78</ele>
        <time>2014-05-03T09:52:35Z</time>
      </trkpt>
      <trkpt lat="50.55808" lon="1.77065">
        <ele>59.26</ele>
        <time>2014-05-03T09:52:43Z</time>
      </trkpt>
      <trkpt lat="50.55814" lon="1.77054">
        <ele>58.78</ele>
        <time>2014-05-03T09:52:50Z</time>
      </trkpt>
      <trkpt lat="50.55822" lon="1.77044">
        <ele>58.78</ele>
        <time>2014-05-03T09:52:57Z</time>
      </trkpt>
      <trkpt lat="50.5583" lon="1.77033">
        <ele>58.78</ele>
        <time>2014-05-03T09:53:04Z</time>
      </trkpt>
      <trkpt lat="50.55839" lon="1.77024">
        <ele>58.78</ele>
        <time>2014-05-03T09:53:11Z</time>
      </trkpt>
      <trkpt lat="50.55848" lon="1.77016">
        <ele>58.78</ele>
        <time>2014-05-03T09:53:18Z</time>
      </trkpt>
      <trkpt lat="50.55857" lon="1.77008">
        <ele>58.78</ele>
        <time>2014-05-03T09:53:25Z</time>
      </trkpt>
      <trkpt lat="50.55867" lon="1.77001">
        <ele>59.26</ele>
        <time>2014-05-03T09:53:32Z</time>
      </trkpt>
      <trkpt lat="50.55876" lon="1.76994">
        <ele>59.26</ele>
        <time>2014-05-03T09:53:38Z</time>
      </trkpt>
      <trkpt lat="50.55886" lon="1.7699">
        <ele>59.26</ele>
        <time>2014-05-03T09:53:44Z</time>
      </trkpt>
      <trkpt lat="50.55895" lon="1.76985">
        <ele>59.74</ele>
        <time>2014-05-03T09:53:50Z</time>
      </trkpt>
      <trkpt lat="50.55904" lon="1.76979">
        <ele>59.74</ele>
        <time>2014-05-03T09:53:57Z</time>
      </trkpt>
      <trkpt lat="50.55913" lon="1.76973">
        <ele>59.26</ele>
        <time>2014-05-03T09:54:03Z</time>
      </trkpt>
      <trkpt lat="50.55924" lon="1.76968">
        <ele>59.74</ele>
        <time>2014-05-03T09:54:10Z</time>
      </trkpt>
      <trkpt lat="50.55932" lon="1.76962">
        <ele>59.74</ele>
        <time>2014-05-03T09:54:16Z</time>
      </trkpt>
      <trkpt lat="50.55942" lon="1.76956">
        <ele>60.22</ele>
        <time>2014-05-03T09:54:23Z</time>
      </trkpt>
      <trkpt lat="50.55952" lon="1.76951">
        <ele>60.22</ele>
        <time>2014-05-03T09:54:30Z</time>
      </trkpt>
      <trkpt lat="50.55962" lon="1.76945">
        <ele>60.7</ele>
        <time>2014-05-03T09:54:37Z</time>
      </trkpt>
      <trkpt lat="50.55972" lon="1.7694">
        <ele>60.22</ele>
        <time>2014-05-03T09:54:43Z</time>
      </trkpt>
      <trkpt lat="50.55981" lon="1.76936">
        <ele>61.18</ele>
        <time>2014-05-03T09:54:49Z</time>
      </trkpt>
      <trkpt lat="50.55991" lon="1.7693">
        <ele>61.18</ele>
        <time>2014-05-03T09:54:56Z</time>
      </trkpt>
      <trkpt lat="50.56002" lon="1.76924">
        <ele>61.18</ele>
        <time>2014-05-03T09:55:03Z</time>
      </trkpt>
      <trkpt lat="50.56011" lon="1.76918">
        <ele>61.18</ele>
        <time>2014-05-03T09:55:11Z</time>
      </trkpt>
      <trkpt lat="50.56007" lon="1.76919">
        <ele>61.18</ele>
        <time>2014-05-03T09:57:10Z</time>
      </trkpt>
      <trkpt lat="50.56007" lon="1.76912">
        <ele>61.66</ele>
        <time>2014-05-03T09:58:47Z</time>
      </trkpt>
      <trkpt lat="50.56018" lon="1.76914">
        <ele>61.66</ele>
        <time>2014-05-03T09:58:57Z</time>
      </trkpt>
      <trkpt lat="50.56029" lon="1.76915">
        <ele>61.18</ele>
        <time>2014-05-03T09:59:07Z</time>
      </trkpt>
      <trkpt lat="50.56041" lon="1.76911">
        <ele>61.18</ele>
        <time>2014-05-03T09:59:17Z</time>
      </trkpt>
      <trkpt lat="50.56052" lon="1.76907">
        <ele>61.18</ele>
        <time>2014-05-03T10:00:49Z</time>
      </trkpt>
      <trkpt lat="50.5607" lon="1.76901">
        <ele>61.18</ele>
        <time>2014-05-03T10:01:01Z</time>
      </trkpt>
      <trkpt lat="50.56086" lon="1.76897">
        <ele>60.22</ele>
        <time>2014-05-03T10:01:12Z</time>
      </trkpt>
      <trkpt lat="50.56097" lon="1.76897">
        <ele>60.7</ele>
        <time>2014-05-03T10:01:19Z</time>
      </trkpt>
      <trkpt lat="50.56118" lon="1.76899">
        <ele>60.7</ele>
        <time>2014-05-03T10:01:31Z</time>
      </trkpt>
      <trkpt lat="50.56136" lon="1.76908">
        <ele>60.7</ele>
        <time>2014-05-03T10:01:44Z</time>
      </trkpt>
      <trkpt lat="50.56152" lon="1.76915">
        <ele>61.66</ele>
        <time>2014-05-03T10:01:53Z</time>
      </trkpt>
      <trkpt lat="50.56161" lon="1.76923">
        <ele>61.66</ele>
        <time>2014-05-03T10:02:09Z</time>
      </trkpt>
      <trkpt lat="50.56172" lon="1.76932">
        <ele>60.7</ele>
        <time>2014-05-03T10:02:18Z</time>
      </trkpt>
      <trkpt lat="50.56188" lon="1.76941">
        <ele>61.18</ele>
        <time>2014-05-03T10:02:30Z</time>
      </trkpt>
      <trkpt lat="50.562" lon="1.76948">
        <ele>61.18</ele>
        <time>2014-05-03T10:02:39Z</time>
      </trkpt>
      <trkpt lat="50.56218" lon="1.76954">
        <ele>61.18</ele>
        <time>2014-05-03T10:02:51Z</time>
      </trkpt>
      <trkpt lat="50.56228" lon="1.76959">
        <ele>61.18</ele>
        <time>2014-05-03T10:02:58Z</time>
      </trkpt>
      <trkpt lat="50.56237" lon="1.76962">
        <ele>61.18</ele>
        <time>2014-05-03T10:03:05Z</time>
      </trkpt>
      <trkpt lat="50.56259" lon="1.7696">
        <ele>61.18</ele>
        <time>2014-05-03T10:03:18Z</time>
      </trkpt>
      <trkpt lat="50.56279" lon="1.76962">
        <ele>61.18</ele>
        <time>2014-05-03T10:03:30Z</time>
      </trkpt>
      <trkpt lat="50.56295" lon="1.76959">
        <ele>61.18</ele>
        <time>2014-05-03T10:03:40Z</time>
      </trkpt>
      <trkpt lat="50.56312" lon="1.76954">
        <ele>61.18</ele>
        <time>2014-05-03T10:03:51Z</time>
      </trkpt>
      <trkpt lat="50.56326" lon="1.76958">
        <ele>61.18</ele>
        <time>2014-05-03T10:04:01Z</time>
      </trkpt>
      <trkpt lat="50.56339" lon="1.76961">
        <ele>60.7</ele>
        <time>2014-05-03T10:04:12Z</time>
      </trkpt>
      <trkpt lat="50.56349" lon="1.76963">
        <ele>61.18</ele>
        <time>2014-05-03T10:04:20Z</time>
      </trkpt>
      <trkpt lat="50.56372" lon="1.7697">
        <ele>62.14</ele>
        <time>2014-05-03T10:04:32Z</time>
      </trkpt>
      <trkpt lat="50.56387" lon="1.76977">
        <ele>63.1</ele>
        <time>2014-05-03T10:04:41Z</time>
      </trkpt>
      <trkpt lat="50.56403" lon="1.76986">
        <ele>65.03</ele>
        <time>2014-05-03T10:04:51Z</time>
      </trkpt>
      <trkpt lat="50.56416" lon="1.76992">
        <ele>65.51</ele>
        <time>2014-05-03T10:05:01Z</time>
      </trkpt>
      <trkpt lat="50.56431" lon="1.76999">
        <ele>65.99</ele>
        <time>2014-05-03T10:05:10Z</time>
      </trkpt>
      <trkpt lat="50.56442" lon="1.77009">
        <ele>65.99</ele>
        <time>2014-05-03T10:05:18Z</time>
      </trkpt>
      <trkpt lat="50.56457" lon="1.77012">
        <ele>66.47</ele>
        <time>2014-05-03T10:05:25Z</time>
      </trkpt>
      <trkpt lat="50.56474" lon="1.77018">
        <ele>66.47</ele>
        <time>2014-05-03T10:05:34Z</time>
      </trkpt>
      <trkpt lat="50.56486" lon="1.77027">
        <ele>65.51</ele>
        <time>2014-05-03T10:06:30Z</time>
      </trkpt>
      <trkpt lat="50.56491" lon="1.77014">
        <ele>64.55</ele>
        <time>2014-05-03T10:06:42Z</time>
      </trkpt>
      <trkpt lat="50.56499" lon="1.77004">
        <ele>65.03</ele>
        <time>2014-05-03T10:07:02Z</time>
      </trkpt>
      <trkpt lat="50.565" lon="1.7699">
        <ele>64.55</ele>
        <time>2014-05-03T10:07:13Z</time>
      </trkpt>
      <trkpt lat="50.56507" lon="1.76978">
        <ele>65.03</ele>
        <time>2014-05-03T10:07:20Z</time>
      </trkpt>
      <trkpt lat="50.56526" lon="1.76959">
        <ele>63.58</ele>
        <time>2014-05-03T10:11:43Z</time>
      </trkpt>
      <trkpt lat="50.56551" lon="1.76938">
        <ele>63.58</ele>
        <time>2014-05-03T10:11:54Z</time>
      </trkpt>
      <trkpt lat="50.56558" lon="1.76924">
        <ele>64.55</ele>
        <time>2014-05-03T10:12:04Z</time>
      </trkpt>
      <trkpt lat="50.56566" lon="1.76904">
        <ele>64.55</ele>
        <time>2014-05-03T10:12:28Z</time>
      </trkpt>
      <trkpt lat="50.56571" lon="1.76897">
        <ele>66.47</ele>
        <time>2014-05-03T10:13:19Z</time>
      </trkpt>
      <trkpt lat="50.56578" lon="1.76884">
        <ele>66.47</ele>
        <time>2014-05-03T10:13:27Z</time>
      </trkpt>
      <trkpt lat="50.5658" lon="1.76865">
        <ele>67.43</ele>
        <time>2014-05-03T10:13:36Z</time>
      </trkpt>
      <trkpt lat="50.56578" lon="1.7685">
        <ele>68.39</ele>
        <time>2014-05-03T10:13:46Z</time>
      </trkpt>
      <trkpt lat="50.56587" lon="1.76839">
        <ele>68.87</ele>
        <time>2014-05-03T10:13:54Z</time>
      </trkpt>
      <trkpt lat="50.56596" lon="1.76828">
        <ele>70.79</ele>
        <time>2014-05-03T10:14:01Z</time>
      </trkpt>
      <trkpt lat="50.56603" lon="1.76818">
        <ele>71.27</ele>
        <time>2014-05-03T10:14:07Z</time>
      </trkpt>
      <trkpt lat="50.56612" lon="1.76806">
        <ele>71.76</ele>
        <time>2014-05-03T10:14:14Z</time>
      </trkpt>
      <trkpt lat="50.5662" lon="1.76797">
        <ele>71.76</ele>
        <time>2014-05-03T10:14:20Z</time>
      </trkpt>
      <trkpt lat="50.56628" lon="1.76789">
        <ele>72.24</ele>
        <time>2014-05-03T10:14:26Z</time>
      </trkpt>
      <trkpt lat="50.56635" lon="1.76781">
        <ele>72.72</ele>
        <time>2014-05-03T10:14:32Z</time>
      </trkpt>
      <trkpt lat="50.56645" lon="1.76774">
        <ele>72.72</ele>
        <time>2014-05-03T10:14:38Z</time>
      </trkpt>
      <trkpt lat="50.56654" lon="1.76766">
        <ele>72.72</ele>
        <time>2014-05-03T10:14:45Z</time>
      </trkpt>
      <trkpt lat="50.56663" lon="1.76759">
        <ele>73.2</ele>
        <time>2014-05-03T10:14:51Z</time>
      </trkpt>
      <trkpt lat="50.56672" lon="1.7675">
        <ele>74.16</ele>
        <time>2014-05-03T10:14:58Z</time>
      </trkpt>
      <trkpt lat="50.56678" lon="1.7674">
        <ele>73.68</ele>
        <time>2014-05-03T10:15:05Z</time>
      </trkpt>
      <trkpt lat="50.56685" lon="1.76729">
        <ele>74.16</ele>
        <time>2014-05-03T10:15:11Z</time>
      </trkpt>
      <trkpt lat="50.56692" lon="1.76719">
        <ele>74.64</ele>
        <time>2014-05-03T10:15:17Z</time>
      </trkpt>
      <trkpt lat="50.56701" lon="1.76709">
        <ele>74.64</ele>
        <time>2014-05-03T10:15:23Z</time>
      </trkpt>
      <trkpt lat="50.56711" lon="1.76698">
        <ele>75.12</ele>
        <time>2014-05-03T10:15:31Z</time>
      </trkpt>
      <trkpt lat="50.5672" lon="1.76691">
        <ele>75.12</ele>
        <time>2014-05-03T10:15:37Z</time>
      </trkpt>
      <trkpt lat="50.5673" lon="1.76684">
        <ele>75.6</ele>
        <time>2014-05-03T10:15:44Z</time>
      </trkpt>
      <trkpt lat="50.56734" lon="1.7668">
        <ele>76.56</ele>
        <time>2014-05-03T10:17:44Z</time>
      </trkpt>
      <trkpt lat="50.56743" lon="1.76671">
        <ele>76.56</ele>
        <time>2014-05-03T10:17:52Z</time>
      </trkpt>
      <trkpt lat="50.56751" lon="1.7666">
        <ele>76.08</ele>
        <time>2014-05-03T10:17:59Z</time>
      </trkpt>
      <trkpt lat="50.56759" lon="1.7665">
        <ele>76.08</ele>
        <time>2014-05-03T10:18:06Z</time>
      </trkpt>
      <trkpt lat="50.56767" lon="1.7664">
        <ele>75.6</ele>
        <time>2014-05-03T10:18:13Z</time>
      </trkpt>
      <trkpt lat="50.56775" lon="1.76629">
        <ele>76.56</ele>
        <time>2014-05-03T10:18:19Z</time>
      </trkpt>
      <trkpt lat="50.56783" lon="1.76619">
        <ele>77.04</ele>
        <time>2014-05-03T10:18:26Z</time>
      </trkpt>
      <trkpt lat="50.56791" lon="1.76607">
        <ele>77.04</ele>
        <time>2014-05-03T10:18:33Z</time>
      </trkpt>
      <trkpt lat="50.56798" lon="1.76595">
        <ele>77.04</ele>
        <time>2014-05-03T10:18:40Z</time>
      </trkpt>
      <trkpt lat="50.56807" lon="1.76586">
        <ele>77.04</ele>
        <time>2014-05-03T10:18:47Z</time>
      </trkpt>
      <trkpt lat="50.56818" lon="1.76578">
        <ele>77.52</ele>
        <time>2014-05-03T10:18:55Z</time>
      </trkpt>
      <trkpt lat="50.56828" lon="1.76571">
        <ele>77.04</ele>
        <time>2014-05-03T10:19:02Z</time>
      </trkpt>
      <trkpt lat="50.56839" lon="1.76565">
        <ele>78</ele>
        <time>2014-05-03T10:19:09Z</time>
      </trkpt>
      <trkpt lat="50.56849" lon="1.76558">
        <ele>78</ele>
        <time>2014-05-03T10:19:16Z</time>
      </trkpt>
      <trkpt lat="50.56859" lon="1.7655">
        <ele>78.48</ele>
        <time>2014-05-03T10:19:23Z</time>
      </trkpt>
      <trkpt lat="50.5687" lon="1.76543">
        <ele>78</ele>
        <time>2014-05-03T10:19:30Z</time>
      </trkpt>
      <trkpt lat="50.56881" lon="1.76536">
        <ele>78.48</ele>
        <time>2014-05-03T10:19:37Z</time>
      </trkpt>
      <trkpt lat="50.56891" lon="1.76528">
        <ele>78.97</ele>
        <time>2014-05-03T10:19:44Z</time>
      </trkpt>
      <trkpt lat="50.56902" lon="1.7652">
        <ele>78.97</ele>
        <time>2014-05-03T10:19:52Z</time>
      </trkpt>
      <trkpt lat="50.56914" lon="1.76513">
        <ele>79.93</ele>
        <time>2014-05-03T10:20:00Z</time>
      </trkpt>
      <trkpt lat="50.56926" lon="1.76505">
        <ele>80.41</ele>
        <time>2014-05-03T10:20:08Z</time>
      </trkpt>
      <trkpt lat="50.56938" lon="1.76497">
        <ele>80.89</ele>
        <time>2014-05-03T10:20:15Z</time>
      </trkpt>
      <trkpt lat="50.5695" lon="1.76488">
        <ele>80.41</ele>
        <time>2014-05-03T10:20:23Z</time>
      </trkpt>
      <trkpt lat="50.56965" lon="1.7648">
        <ele>81.37</ele>
        <time>2014-05-03T10:20:31Z</time>
      </trkpt>
      <trkpt lat="50.56975" lon="1.76471">
        <ele>81.85</ele>
        <time>2014-05-03T10:20:38Z</time>
      </trkpt>
      <trkpt lat="50.56986" lon="1.76464">
        <ele>81.85</ele>
        <time>2014-05-03T10:20:44Z</time>
      </trkpt>
      <trkpt lat="50.56997" lon="1.76458">
        <ele>82.33</ele>
        <time>2014-05-03T10:20:51Z</time>
      </trkpt>
      <trkpt lat="50.57005" lon="1.76449">
        <ele>82.81</ele>
        <time>2014-05-03T10:20:58Z</time>
      </trkpt>
      <trkpt lat="50.57015" lon="1.76441">
        <ele>82.33</ele>
        <time>2014-05-03T10:21:05Z</time>
      </trkpt>
      <trkpt lat="50.57028" lon="1.76439">
        <ele>82.81</ele>
        <time>2014-05-03T10:21:12Z</time>
      </trkpt>
      <trkpt lat="50.57038" lon="1.76437">
        <ele>82.81</ele>
        <time>2014-05-03T10:21:18Z</time>
      </trkpt>
      <trkpt lat="50.57048" lon="1.76439">
        <ele>82.81</ele>
        <time>2014-05-03T10:21:24Z</time>
      </trkpt>
      <trkpt lat="50.57058" lon="1.76441">
        <ele>83.29</ele>
        <time>2014-05-03T10:21:30Z</time>
      </trkpt>
      <trkpt lat="50.57069" lon="1.76443">
        <ele>83.29</ele>
        <time>2014-05-03T10:21:36Z</time>
      </trkpt>
      <trkpt lat="50.5708" lon="1.76444">
        <ele>84.25</ele>
        <time>2014-05-03T10:21:42Z</time>
      </trkpt>
      <trkpt lat="50.5709" lon="1.76445">
        <ele>84.25</ele>
        <time>2014-05-03T10:21:48Z</time>
      </trkpt>
      <trkpt lat="50.57101" lon="1.76444">
        <ele>85.21</ele>
        <time>2014-05-03T10:21:55Z</time>
      </trkpt>
      <trkpt lat="50.57112" lon="1.76443">
        <ele>85.69</ele>
        <time>2014-05-03T10:22:02Z</time>
      </trkpt>
      <trkpt lat="50.57123" lon="1.76444">
        <ele>85.21</ele>
        <time>2014-05-03T10:22:09Z</time>
      </trkpt>
      <trkpt lat="50.57134" lon="1.76443">
        <ele>85.21</ele>
        <time>2014-05-03T10:22:14Z</time>
      </trkpt>
      <trkpt lat="50.57145" lon="1.76442">
        <ele>85.69</ele>
        <time>2014-05-03T10:22:18Z</time>
      </trkpt>
      <trkpt lat="50.57157" lon="1.76442">
        <ele>86.66</ele>
        <time>2014-05-03T10:22:21Z</time>
      </trkpt>
      <trkpt lat="50.5717" lon="1.76442">
        <ele>86.18</ele>
        <time>2014-05-03T10:22:24Z</time>
      </trkpt>
      <trkpt lat="50.57183" lon="1.76444">
        <ele>87.14</ele>
        <time>2014-05-03T10:22:27Z</time>
      </trkpt>
      <trkpt lat="50.57196" lon="1.76445">
        <ele>88.1</ele>
        <time>2014-05-03T10:22:30Z</time>
      </trkpt>
      <trkpt lat="50.57209" lon="1.76447">
        <ele>89.06</ele>
        <time>2014-05-03T10:22:33Z</time>
      </trkpt>
      <trkpt lat="50.57224" lon="1.76449">
        <ele>90.02</ele>
        <time>2014-05-03T10:22:36Z</time>
      </trkpt>
      <trkpt lat="50.57237" lon="1.76452">
        <ele>90.02</ele>
        <time>2014-05-03T10:22:39Z</time>
      </trkpt>
      <trkpt lat="50.57248" lon="1.76453">
        <ele>89.06</ele>
        <time>2014-05-03T10:22:42Z</time>
      </trkpt>
      <trkpt lat="50.57261" lon="1.76455">
        <ele>90.02</ele>
        <time>2014-05-03T10:22:45Z</time>
      </trkpt>
      <trkpt lat="50.57271" lon="1.76455">
        <ele>91.46</ele>
        <time>2014-05-03T10:22:47Z</time>
      </trkpt>
      <trkpt lat="50.57281" lon="1.76455">
        <ele>91.46</ele>
        <time>2014-05-03T10:22:49Z</time>
      </trkpt>
      <trkpt lat="50.57291" lon="1.76454">
        <ele>91.46</ele>
        <time>2014-05-03T10:22:51Z</time>
      </trkpt>
      <trkpt lat="50.57301" lon="1.76454">
        <ele>92.9</ele>
        <time>2014-05-03T10:22:53Z</time>
      </trkpt>
      <trkpt lat="50.57311" lon="1.76454">
        <ele>92.42</ele>
        <time>2014-05-03T10:22:55Z</time>
      </trkpt>
      <trkpt lat="50.57321" lon="1.76454">
        <ele>91.94</ele>
        <time>2014-05-03T10:22:57Z</time>
      </trkpt>
      <trkpt lat="50.57332" lon="1.76454">
        <ele>92.9</ele>
        <time>2014-05-03T10:22:59Z</time>
      </trkpt>
      <trkpt lat="50.57344" lon="1.76453">
        <ele>93.39</ele>
        <time>2014-05-03T10:23:02Z</time>
      </trkpt>
      <trkpt lat="50.57356" lon="1.76453">
        <ele>93.39</ele>
        <time>2014-05-03T10:23:05Z</time>
      </trkpt>
      <trkpt lat="50.57369" lon="1.76451">
        <ele>93.39</ele>
        <time>2014-05-03T10:23:08Z</time>
      </trkpt>
      <trkpt lat="50.57381" lon="1.76449">
        <ele>93.39</ele>
        <time>2014-05-03T10:23:11Z</time>
      </trkpt>
      <trkpt lat="50.57394" lon="1.76445">
        <ele>93.39</ele>
        <time>2014-05-03T10:23:14Z</time>
      </trkpt>
      <trkpt lat="50.57408" lon="1.7644">
        <ele>95.31</ele>
        <time>2014-05-03T10:23:17Z</time>
      </trkpt>
      <trkpt lat="50.57418" lon="1.76436">
        <ele>95.31</ele>
        <time>2014-05-03T10:23:19Z</time>
      </trkpt>
      <trkpt lat="50.5743" lon="1.76432">
        <ele>96.27</ele>
        <time>2014-05-03T10:23:21Z</time>
      </trkpt>
      <trkpt lat="50.57442" lon="1.76428">
        <ele>95.31</ele>
        <time>2014-05-03T10:23:23Z</time>
      </trkpt>
      <trkpt lat="50.57454" lon="1.76422">
        <ele>96.27</ele>
        <time>2014-05-03T10:23:25Z</time>
      </trkpt>
      <trkpt lat="50.57468" lon="1.76416">
        <ele>96.27</ele>
        <time>2014-05-03T10:23:27Z</time>
      </trkpt>
      <trkpt lat="50.57481" lon="1.76409">
        <ele>96.75</ele>
        <time>2014-05-03T10:23:29Z</time>
      </trkpt>
      <trkpt lat="50.57494" lon="1.76403">
        <ele>97.71</ele>
        <time>2014-05-03T10:23:31Z</time>
      </trkpt>
      <trkpt lat="50.57505" lon="1.76398">
        <ele>97.71</ele>
        <time>2014-05-03T10:23:33Z</time>
      </trkpt>
      <trkpt lat="50.57515" lon="1.76392">
        <ele>98.19</ele>
        <time>2014-05-03T10:23:35Z</time>
      </trkpt>
      <trkpt lat="50.57525" lon="1.76387">
        <ele>99.15</ele>
        <time>2014-05-03T10:23:37Z</time>
      </trkpt>
      <trkpt lat="50.57535" lon="1.76382">
        <ele>100.11</ele>
        <time>2014-05-03T10:23:39Z</time>
      </trkpt>
      <trkpt lat="50.57547" lon="1.76375">
        <ele>99.63</ele>
        <time>2014-05-03T10:23:42Z</time>
      </trkpt>
      <trkpt lat="50.57559" lon="1.76369">
        <ele>101.08</ele>
        <time>2014-05-03T10:23:45Z</time>
      </trkpt>
      <trkpt lat="50.5757" lon="1.76362">
        <ele>102.52</ele>
        <time>2014-05-03T10:23:48Z</time>
      </trkpt>
      <trkpt lat="50.57579" lon="1.76357">
        <ele>102.52</ele>
        <time>2014-05-03T10:23:51Z</time>
      </trkpt>
      <trkpt lat="50.57587" lon="1.76352">
        <ele>104.44</ele>
        <time>2014-05-03T10:24:01Z</time>
      </trkpt>
      <trkpt lat="50.57597" lon="1.76345">
        <ele>103</ele>
        <time>2014-05-03T10:24:43Z</time>
      </trkpt>
      <trkpt lat="50.57607" lon="1.76339">
        <ele>103.48</ele>
        <time>2014-05-03T10:24:50Z</time>
      </trkpt>
      <trkpt lat="50.57614" lon="1.76348">
        <ele>102.04</ele>
        <time>2014-05-03T10:24:57Z</time>
      </trkpt>
      <trkpt lat="50.57618" lon="1.76361">
        <ele>102.52</ele>
        <time>2014-05-03T10:25:04Z</time>
      </trkpt>
      <trkpt lat="50.5762" lon="1.76378">
        <ele>102.04</ele>
        <time>2014-05-03T10:25:11Z</time>
      </trkpt>
      <trkpt lat="50.57622" lon="1.76393">
        <ele>101.56</ele>
        <time>2014-05-03T10:25:17Z</time>
      </trkpt>
      <trkpt lat="50.57624" lon="1.76407">
        <ele>102.04</ele>
        <time>2014-05-03T10:25:23Z</time>
      </trkpt>
      <trkpt lat="50.57628" lon="1.76422">
        <ele>101.56</ele>
        <time>2014-05-03T10:25:31Z</time>
      </trkpt>
      <trkpt lat="50.5763" lon="1.76439">
        <ele>100.11</ele>
        <time>2014-05-03T10:25:38Z</time>
      </trkpt>
      <trkpt lat="50.57632" lon="1.76456">
        <ele>100.11</ele>
        <time>2014-05-03T10:25:44Z</time>
      </trkpt>
      <trkpt lat="50.57634" lon="1.7647">
        <ele>98.67</ele>
        <time>2014-05-03T10:25:50Z</time>
      </trkpt>
      <trkpt lat="50.57637" lon="1.76486">
        <ele>99.15</ele>
        <time>2014-05-03T10:25:57Z</time>
      </trkpt>
      <trkpt lat="50.57639" lon="1.76502">
        <ele>98.67</ele>
        <time>2014-05-03T10:26:04Z</time>
      </trkpt>
      <trkpt lat="50.57641" lon="1.76516">
        <ele>98.19</ele>
        <time>2014-05-03T10:26:10Z</time>
      </trkpt>
      <trkpt lat="50.57644" lon="1.76531">
        <ele>97.23</ele>
        <time>2014-05-03T10:26:16Z</time>
      </trkpt>
      <trkpt lat="50.57646" lon="1.76547">
        <ele>96.75</ele>
        <time>2014-05-03T10:26:22Z</time>
      </trkpt>
      <trkpt lat="50.57648" lon="1.76562">
        <ele>96.27</ele>
        <time>2014-05-03T10:26:28Z</time>
      </trkpt>
      <trkpt lat="50.5765" lon="1.76578">
        <ele>96.27</ele>
        <time>2014-05-03T10:26:34Z</time>
      </trkpt>
      <trkpt lat="50.57652" lon="1.76594">
        <ele>97.23</ele>
        <time>2014-05-03T10:26:40Z</time>
      </trkpt>
      <trkpt lat="50.57654" lon="1.7661">
        <ele>97.71</ele>
        <time>2014-05-03T10:26:46Z</time>
      </trkpt>
      <trkpt lat="50.57656" lon="1.76626">
        <ele>97.23</ele>
        <time>2014-05-03T10:26:52Z</time>
      </trkpt>
      <trkpt lat="50.57658" lon="1.7664">
        <ele>97.71</ele>
        <time>2014-05-03T10:26:58Z</time>
      </trkpt>
      <trkpt lat="50.57661" lon="1.76655">
        <ele>98.67</ele>
        <time>2014-05-03T10:27:04Z</time>
      </trkpt>
      <trkpt lat="50.57663" lon="1.7667">
        <ele>98.19</ele>
        <time>2014-05-03T10:27:10Z</time>
      </trkpt>
      <trkpt lat="50.57665" lon="1.76686">
        <ele>98.67</ele>
        <time>2014-05-03T10:27:16Z</time>
      </trkpt>
      <trkpt lat="50.57667" lon="1.76701">
        <ele>99.63</ele>
        <time>2014-05-03T10:27:22Z</time>
      </trkpt>
      <trkpt lat="50.57669" lon="1.76716">
        <ele>100.11</ele>
        <time>2014-05-03T10:27:28Z</time>
      </trkpt>
      <trkpt lat="50.57672" lon="1.76729">
        <ele>100.11</ele>
        <time>2014-05-03T10:27:34Z</time>
      </trkpt>
      <trkpt lat="50.57674" lon="1.76744">
        <ele>100.6</ele>
        <time>2014-05-03T10:27:40Z</time>
      </trkpt>
      <trkpt lat="50.57676" lon="1.76759">
        <ele>101.56</ele>
        <time>2014-05-03T10:27:46Z</time>
      </trkpt>
      <trkpt lat="50.57679" lon="1.76774">
        <ele>101.08</ele>
        <time>2014-05-03T10:27:52Z</time>
      </trkpt>
      <trkpt lat="50.57681" lon="1.7679">
        <ele>102.52</ele>
        <time>2014-05-03T10:27:58Z</time>
      </trkpt>
      <trkpt lat="50.57684" lon="1.76806">
        <ele>103</ele>
        <time>2014-05-03T10:28:04Z</time>
      </trkpt>
      <trkpt lat="50.57687" lon="1.76819">
        <ele>103.48</ele>
        <time>2014-05-03T10:28:09Z</time>
      </trkpt>
      <trkpt lat="50.57689" lon="1.76834">
        <ele>104.92</ele>
        <time>2014-05-03T10:28:15Z</time>
      </trkpt>
      <trkpt lat="50.57691" lon="1.76851">
        <ele>105.4</ele>
        <time>2014-05-03T10:28:21Z</time>
      </trkpt>
      <trkpt lat="50.57693" lon="1.76865">
        <ele>105.4</ele>
        <time>2014-05-03T10:28:26Z</time>
      </trkpt>
      <trkpt lat="50.57695" lon="1.76879">
        <ele>105.88</ele>
        <time>2014-05-03T10:28:31Z</time>
      </trkpt>
      <trkpt lat="50.57697" lon="1.76892">
        <ele>107.32</ele>
        <time>2014-05-03T10:28:36Z</time>
      </trkpt>
      <trkpt lat="50.57699" lon="1.76907">
        <ele>107.81</ele>
        <time>2014-05-03T10:28:42Z</time>
      </trkpt>
      <trkpt lat="50.57702" lon="1.76924">
        <ele>107.32</ele>
        <time>2014-05-03T10:28:48Z</time>
      </trkpt>
      <trkpt lat="50.57703" lon="1.76938">
        <ele>107.81</ele>
        <time>2014-05-03T10:28:53Z</time>
      </trkpt>
      <trkpt lat="50.57706" lon="1.76954">
        <ele>108.29</ele>
        <time>2014-05-03T10:28:59Z</time>
      </trkpt>
      <trkpt lat="50.57708" lon="1.76967">
        <ele>108.29</ele>
        <time>2014-05-03T10:29:05Z</time>
      </trkpt>
      <trkpt lat="50.5771" lon="1.76982">
        <ele>109.25</ele>
        <time>2014-05-03T10:29:11Z</time>
      </trkpt>
      <trkpt lat="50.57713" lon="1.76998">
        <ele>109.25</ele>
        <time>2014-05-03T10:29:17Z</time>
      </trkpt>
      <trkpt lat="50.57715" lon="1.77014">
        <ele>108.77</ele>
        <time>2014-05-03T10:29:23Z</time>
      </trkpt>
      <trkpt lat="50.57717" lon="1.77029">
        <ele>109.25</ele>
        <time>2014-05-03T10:29:29Z</time>
      </trkpt>
      <trkpt lat="50.57719" lon="1.77043">
        <ele>108.77</ele>
        <time>2014-05-03T10:29:34Z</time>
      </trkpt>
      <trkpt lat="50.57721" lon="1.77058">
        <ele>108.77</ele>
        <time>2014-05-03T10:29:39Z</time>
      </trkpt>
      <trkpt lat="50.57723" lon="1.77074">
        <ele>108.77</ele>
        <time>2014-05-03T10:29:45Z</time>
      </trkpt>
      <trkpt lat="50.57726" lon="1.7709">
        <ele>108.29</ele>
        <time>2014-05-03T10:29:51Z</time>
      </trkpt>
      <trkpt lat="50.57727" lon="1.77105">
        <ele>108.77</ele>
        <time>2014-05-03T10:29:56Z</time>
      </trkpt>
      <trkpt lat="50.5773" lon="1.77122">
        <ele>108.29</ele>
        <time>2014-05-03T10:30:02Z</time>
      </trkpt>
      <trkpt lat="50.57732" lon="1.77136">
        <ele>107.81</ele>
        <time>2014-05-03T10:30:07Z</time>
      </trkpt>
      <trkpt lat="50.57735" lon="1.7715">
        <ele>107.81</ele>
        <time>2014-05-03T10:30:12Z</time>
      </trkpt>
      <trkpt lat="50.57738" lon="1.77165">
        <ele>107.81</ele>
        <time>2014-05-03T10:30:17Z</time>
      </trkpt>
      <trkpt lat="50.57742" lon="1.77181">
        <ele>107.32</ele>
        <time>2014-05-03T10:30:23Z</time>
      </trkpt>
      <trkpt lat="50.57745" lon="1.77195">
        <ele>105.88</ele>
        <time>2014-05-03T10:30:28Z</time>
      </trkpt>
      <trkpt lat="50.57748" lon="1.77211">
        <ele>106.84</ele>
        <time>2014-05-03T10:30:34Z</time>
      </trkpt>
      <trkpt lat="50.57752" lon="1.77225">
        <ele>106.84</ele>
        <time>2014-05-03T10:30:39Z</time>
      </trkpt>
      <trkpt lat="50.57756" lon="1.77237">
        <ele>106.36</ele>
        <time>2014-05-03T10:30:45Z</time>
      </trkpt>
      <trkpt lat="50.5776" lon="1.77252">
        <ele>106.84</ele>
        <time>2014-05-03T10:30:52Z</time>
      </trkpt>
      <trkpt lat="50.57765" lon="1.77266">
        <ele>106.84</ele>
        <time>2014-05-03T10:30:58Z</time>
      </trkpt>
      <trkpt lat="50.5777" lon="1.77278">
        <ele>106.36</ele>
        <time>2014-05-03T10:31:04Z</time>
      </trkpt>
      <trkpt lat="50.57776" lon="1.77291">
        <ele>106.36</ele>
        <time>2014-05-03T10:31:10Z</time>
      </trkpt>
      <trkpt lat="50.57783" lon="1.77303">
        <ele>105.88</ele>
        <time>2014-05-03T10:31:16Z</time>
      </trkpt>
      <trkpt lat="50.57789" lon="1.77316">
        <ele>105.4</ele>
        <time>2014-05-03T10:31:22Z</time>
      </trkpt>
      <trkpt lat="50.57795" lon="1.77329">
        <ele>104.92</ele>
        <time>2014-05-03T10:31:27Z</time>
      </trkpt>
      <trkpt lat="50.57801" lon="1.77341">
        <ele>104.92</ele>
        <time>2014-05-03T10:31:32Z</time>
      </trkpt>
      <trkpt lat="50.57807" lon="1.77354">
        <ele>104.92</ele>
        <time>2014-05-03T10:31:38Z</time>
      </trkpt>
      <trkpt lat="50.57813" lon="1.77368">
        <ele>105.4</ele>
        <time>2014-05-03T10:31:44Z</time>
      </trkpt>
      <trkpt lat="50.5782" lon="1.77381">
        <ele>104.92</ele>
        <time>2014-05-03T10:31:50Z</time>
      </trkpt>
      <trkpt lat="50.57827" lon="1.77394">
        <ele>103.96</ele>
        <time>2014-05-03T10:31:56Z</time>
      </trkpt>
      <trkpt lat="50.57833" lon="1.77408">
        <ele>104.44</ele>
        <time>2014-05-03T10:32:02Z</time>
      </trkpt>
      <trkpt lat="50.57838" lon="1.7742">
        <ele>103.96</ele>
        <time>2014-05-03T10:32:07Z</time>
      </trkpt>
      <trkpt lat="50.57843" lon="1.77433">
        <ele>103.96</ele>
        <time>2014-05-03T10:32:12Z</time>
      </trkpt>
      <trkpt lat="50.57847" lon="1.77447">
        <ele>104.92</ele>
        <time>2014-05-03T10:32:18Z</time>
      </trkpt>
      <trkpt lat="50.5785" lon="1.7746">
        <ele>104.92</ele>
        <time>2014-05-03T10:32:23Z</time>
      </trkpt>
      <trkpt lat="50.57853" lon="1.77474">
        <ele>104.92</ele>
        <time>2014-05-03T10:32:28Z</time>
      </trkpt>
      <trkpt lat="50.57858" lon="1.77488">
        <ele>105.4</ele>
        <time>2014-05-03T10:32:34Z</time>
      </trkpt>
      <trkpt lat="50.57862" lon="1.77504">
        <ele>105.88</ele>
        <time>2014-05-03T10:32:41Z</time>
      </trkpt>
      <trkpt lat="50.57866" lon="1.77519">
        <ele>106.84</ele>
        <time>2014-05-03T10:32:47Z</time>
      </trkpt>
      <trkpt lat="50.57869" lon="1.77534">
        <ele>107.32</ele>
        <time>2014-05-03T10:32:54Z</time>
      </trkpt>
      <trkpt lat="50.57872" lon="1.7755">
        <ele>107.81</ele>
        <time>2014-05-03T10:33:03Z</time>
      </trkpt>
      <trkpt lat="50.57874" lon="1.77566">
        <ele>108.77</ele>
        <time>2014-05-03T10:33:09Z</time>
      </trkpt>
      <trkpt lat="50.57875" lon="1.77583">
        <ele>108.29</ele>
        <time>2014-05-03T10:33:15Z</time>
      </trkpt>
      <trkpt lat="50.57873" lon="1.776">
        <ele>107.81</ele>
        <time>2014-05-03T10:33:22Z</time>
      </trkpt>
      <trkpt lat="50.57871" lon="1.77616">
        <ele>107.32</ele>
        <time>2014-05-03T10:33:29Z</time>
      </trkpt>
      <trkpt lat="50.57869" lon="1.77631">
        <ele>106.36</ele>
        <time>2014-05-03T10:33:36Z</time>
      </trkpt>
      <trkpt lat="50.57865" lon="1.77648">
        <ele>106.36</ele>
        <time>2014-05-03T10:33:43Z</time>
      </trkpt>
      <trkpt lat="50.57861" lon="1.77663">
        <ele>105.4</ele>
        <time>2014-05-03T10:33:49Z</time>
      </trkpt>
      <trkpt lat="50.57857" lon="1.77678">
        <ele>104.92</ele>
        <time>2014-05-03T10:33:55Z</time>
      </trkpt>
      <trkpt lat="50.57851" lon="1.77691">
        <ele>104.44</ele>
        <time>2014-05-03T10:34:01Z</time>
      </trkpt>
      <trkpt lat="50.57845" lon="1.77705">
        <ele>103.48</ele>
        <time>2014-05-03T10:34:07Z</time>
      </trkpt>
      <trkpt lat="50.57838" lon="1.7772">
        <ele>103.48</ele>
        <time>2014-05-03T10:34:13Z</time>
      </trkpt>
      <trkpt lat="50.57832" lon="1.77735">
        <ele>103</ele>
        <time>2014-05-03T10:34:19Z</time>
      </trkpt>
      <trkpt lat="50.57826" lon="1.77748">
        <ele>102.04</ele>
        <time>2014-05-03T10:34:25Z</time>
      </trkpt>
      <trkpt lat="50.57819" lon="1.77764">
        <ele>101.08</ele>
        <time>2014-05-03T10:34:31Z</time>
      </trkpt>
      <trkpt lat="50.57812" lon="1.77778">
        <ele>101.08</ele>
        <time>2014-05-03T10:34:37Z</time>
      </trkpt>
      <trkpt lat="50.57805" lon="1.77792">
        <ele>100.6</ele>
        <time>2014-05-03T10:34:42Z</time>
      </trkpt>
      <trkpt lat="50.57799" lon="1.77806">
        <ele>99.15</ele>
        <time>2014-05-03T10:34:48Z</time>
      </trkpt>
      <trkpt lat="50.57793" lon="1.77819">
        <ele>98.67</ele>
        <time>2014-05-03T10:34:54Z</time>
      </trkpt>
      <trkpt lat="50.57786" lon="1.77832">
        <ele>97.71</ele>
        <time>2014-05-03T10:35:00Z</time>
      </trkpt>
      <trkpt lat="50.5778" lon="1.77846">
        <ele>97.23</ele>
        <time>2014-05-03T10:35:05Z</time>
      </trkpt>
      <trkpt lat="50.57773" lon="1.77859">
        <ele>97.23</ele>
        <time>2014-05-03T10:35:10Z</time>
      </trkpt>
      <trkpt lat="50.57765" lon="1.77873">
        <ele>96.75</ele>
        <time>2014-05-03T10:35:16Z</time>
      </trkpt>
      <trkpt lat="50.57758" lon="1.77884">
        <ele>96.27</ele>
        <time>2014-05-03T10:35:21Z</time>
      </trkpt>
      <trkpt lat="50.57751" lon="1.77894">
        <ele>95.79</ele>
        <time>2014-05-03T10:35:26Z</time>
      </trkpt>
      <trkpt lat="50.57743" lon="1.77905">
        <ele>96.27</ele>
        <time>2014-05-03T10:35:32Z</time>
      </trkpt>
      <trkpt lat="50.57735" lon="1.77915">
        <ele>95.79</ele>
        <time>2014-05-03T10:35:37Z</time>
      </trkpt>
      <trkpt lat="50.57727" lon="1.77926">
        <ele>95.79</ele>
        <time>2014-05-03T10:35:43Z</time>
      </trkpt>
      <trkpt lat="50.57718" lon="1.77935">
        <ele>96.27</ele>
        <time>2014-05-03T10:35:50Z</time>
      </trkpt>
      <trkpt lat="50.57708" lon="1.77949">
        <ele>96.27</ele>
        <time>2014-05-03T10:35:57Z</time>
      </trkpt>
      <trkpt lat="50.577" lon="1.77964">
        <ele>96.75</ele>
        <time>2014-05-03T10:36:04Z</time>
      </trkpt>
      <trkpt lat="50.57703" lon="1.77981">
        <ele>96.27</ele>
        <time>2014-05-03T10:36:14Z</time>
      </trkpt>
      <trkpt lat="50.5771" lon="1.77992">
        <ele>96.27</ele>
        <time>2014-05-03T10:36:21Z</time>
      </trkpt>
      <trkpt lat="50.57716" lon="1.78006">
        <ele>96.27</ele>
        <time>2014-05-03T10:36:27Z</time>
      </trkpt>
      <trkpt lat="50.57721" lon="1.78022">
        <ele>96.75</ele>
        <time>2014-05-03T10:36:33Z</time>
      </trkpt>
      <trkpt lat="50.57727" lon="1.78037">
        <ele>96.27</ele>
        <time>2014-05-03T10:36:39Z</time>
      </trkpt>
      <trkpt lat="50.57731" lon="1.78053">
        <ele>96.27</ele>
        <time>2014-05-03T10:36:45Z</time>
      </trkpt>
      <trkpt lat="50.57735" lon="1.7807">
        <ele>96.75</ele>
        <time>2014-05-03T10:36:51Z</time>
      </trkpt>
      <trkpt lat="50.57742" lon="1.78086">
        <ele>96.27</ele>
        <time>2014-05-03T10:36:57Z</time>
      </trkpt>
      <trkpt lat="50.57747" lon="1.781">
        <ele>96.27</ele>
        <time>2014-05-03T10:37:02Z</time>
      </trkpt>
      <trkpt lat="50.57752" lon="1.78114">
        <ele>96.75</ele>
        <time>2014-05-03T10:37:07Z</time>
      </trkpt>
      <trkpt lat="50.57755" lon="1.78128">
        <ele>96.75</ele>
        <time>2014-05-03T10:37:12Z</time>
      </trkpt>
      <trkpt lat="50.57759" lon="1.7814">
        <ele>97.23</ele>
        <time>2014-05-03T10:37:17Z</time>
      </trkpt>
      <trkpt lat="50.57764" lon="1.78155">
        <ele>98.19</ele>
        <time>2014-05-03T10:37:23Z</time>
      </trkpt>
      <trkpt lat="50.57769" lon="1.78171">
        <ele>98.19</ele>
        <time>2014-05-03T10:37:29Z</time>
      </trkpt>
      <trkpt lat="50.57774" lon="1.78188">
        <ele>99.15</ele>
        <time>2014-05-03T10:37:35Z</time>
      </trkpt>
      <trkpt lat="50.57779" lon="1.78204">
        <ele>98.67</ele>
        <time>2014-05-03T10:37:41Z</time>
      </trkpt>
      <trkpt lat="50.57783" lon="1.7822">
        <ele>99.63</ele>
        <time>2014-05-03T10:37:47Z</time>
      </trkpt>
      <trkpt lat="50.57787" lon="1.78233">
        <ele>100.11</ele>
        <time>2014-05-03T10:37:52Z</time>
      </trkpt>
      <trkpt lat="50.57791" lon="1.78247">
        <ele>100.11</ele>
        <time>2014-05-03T10:37:57Z</time>
      </trkpt>
      <trkpt lat="50.57795" lon="1.7826">
        <ele>100.6</ele>
        <time>2014-05-03T10:38:02Z</time>
      </trkpt>
      <trkpt lat="50.57799" lon="1.78276">
        <ele>101.08</ele>
        <time>2014-05-03T10:38:08Z</time>
      </trkpt>
      <trkpt lat="50.57803" lon="1.7829">
        <ele>101.08</ele>
        <time>2014-05-03T10:38:13Z</time>
      </trkpt>
      <trkpt lat="50.57808" lon="1.78304">
        <ele>100.6</ele>
        <time>2014-05-03T10:38:19Z</time>
      </trkpt>
      <trkpt lat="50.57813" lon="1.78319">
        <ele>101.56</ele>
        <time>2014-05-03T10:38:25Z</time>
      </trkpt>
      <trkpt lat="50.57817" lon="1.78333">
        <ele>102.04</ele>
        <time>2014-05-03T10:38:30Z</time>
      </trkpt>
      <trkpt lat="50.57819" lon="1.78349">
        <ele>103</ele>
        <time>2014-05-03T10:38:36Z</time>
      </trkpt>
      <trkpt lat="50.57824" lon="1.78363">
        <ele>104.44</ele>
        <time>2014-05-03T10:38:42Z</time>
      </trkpt>
      <trkpt lat="50.57827" lon="1.78378">
        <ele>104.44</ele>
        <time>2014-05-03T10:38:48Z</time>
      </trkpt>
      <trkpt lat="50.5783" lon="1.78392">
        <ele>105.4</ele>
        <time>2014-05-03T10:38:54Z</time>
      </trkpt>
      <trkpt lat="50.57837" lon="1.78406">
        <ele>106.36</ele>
        <time>2014-05-03T10:39:00Z</time>
      </trkpt>
      <trkpt lat="50.57842" lon="1.78419">
        <ele>106.84</ele>
        <time>2014-05-03T10:39:05Z</time>
      </trkpt>
      <trkpt lat="50.57847" lon="1.78434">
        <ele>107.32</ele>
        <time>2014-05-03T10:39:11Z</time>
      </trkpt>
      <trkpt lat="50.57851" lon="1.78451">
        <ele>107.81</ele>
        <time>2014-05-03T10:39:17Z</time>
      </trkpt>
      <trkpt lat="50.57855" lon="1.78467">
        <ele>107.81</ele>
        <time>2014-05-03T10:39:23Z</time>
      </trkpt>
      <trkpt lat="50.57858" lon="1.78482">
        <ele>107.81</ele>
        <time>2014-05-03T10:39:29Z</time>
      </trkpt>
      <trkpt lat="50.5786" lon="1.78498">
        <ele>107.81</ele>
        <time>2014-05-03T10:39:34Z</time>
      </trkpt>
      <trkpt lat="50.57862" lon="1.78514">
        <ele>108.77</ele>
        <time>2014-05-03T10:39:40Z</time>
      </trkpt>
      <trkpt lat="50.57864" lon="1.7853">
        <ele>109.25</ele>
        <time>2014-05-03T10:39:46Z</time>
      </trkpt>
      <trkpt lat="50.57864" lon="1.78545">
        <ele>109.73</ele>
        <time>2014-05-03T10:39:51Z</time>
      </trkpt>
      <trkpt lat="50.57864" lon="1.78561">
        <ele>109.73</ele>
        <time>2014-05-03T10:39:57Z</time>
      </trkpt>
      <trkpt lat="50.57868" lon="1.78569">
        <ele>110.21</ele>
        <time>2014-05-03T10:40:04Z</time>
      </trkpt>
      <trkpt lat="50.57877" lon="1.78559">
        <ele>110.21</ele>
        <time>2014-05-03T10:40:10Z</time>
      </trkpt>
      <trkpt lat="50.57885" lon="1.78549">
        <ele>110.69</ele>
        <time>2014-05-03T10:40:16Z</time>
      </trkpt>
      <trkpt lat="50.57893" lon="1.7854">
        <ele>109.73</ele>
        <time>2014-05-03T10:40:21Z</time>
      </trkpt>
      <trkpt lat="50.57904" lon="1.78529">
        <ele>110.69</ele>
        <time>2014-05-03T10:40:25Z</time>
      </trkpt>
      <trkpt lat="50.57912" lon="1.78522">
        <ele>110.69</ele>
        <time>2014-05-03T10:40:28Z</time>
      </trkpt>
      <trkpt lat="50.57921" lon="1.78516">
        <ele>110.69</ele>
        <time>2014-05-03T10:40:32Z</time>
      </trkpt>
      <trkpt lat="50.5793" lon="1.78509">
        <ele>111.65</ele>
        <time>2014-05-03T10:40:38Z</time>
      </trkpt>
      <trkpt lat="50.5794" lon="1.78503">
        <ele>111.65</ele>
        <time>2014-05-03T10:40:45Z</time>
      </trkpt>
      <trkpt lat="50.57949" lon="1.78498">
        <ele>111.65</ele>
        <time>2014-05-03T10:40:51Z</time>
      </trkpt>
      <trkpt lat="50.57958" lon="1.78493">
        <ele>112.61</ele>
        <time>2014-05-03T10:40:57Z</time>
      </trkpt>
      <trkpt lat="50.57967" lon="1.78488">
        <ele>112.61</ele>
        <time>2014-05-03T10:41:03Z</time>
      </trkpt>
      <trkpt lat="50.57977" lon="1.78483">
        <ele>113.57</ele>
        <time>2014-05-03T10:41:09Z</time>
      </trkpt>
      <trkpt lat="50.57987" lon="1.78478">
        <ele>113.57</ele>
        <time>2014-05-03T10:41:15Z</time>
      </trkpt>
      <trkpt lat="50.57996" lon="1.78472">
        <ele>114.53</ele>
        <time>2014-05-03T10:41:22Z</time>
      </trkpt>
      <trkpt lat="50.58006" lon="1.78467">
        <ele>114.53</ele>
        <time>2014-05-03T10:41:28Z</time>
      </trkpt>
      <trkpt lat="50.58015" lon="1.78462">
        <ele>115.01</ele>
        <time>2014-05-03T10:41:34Z</time>
      </trkpt>
      <trkpt lat="50.58025" lon="1.78459">
        <ele>115.5</ele>
        <time>2014-05-03T10:41:40Z</time>
      </trkpt>
      <trkpt lat="50.58034" lon="1.78455">
        <ele>115.5</ele>
        <time>2014-05-03T10:41:45Z</time>
      </trkpt>
      <trkpt lat="50.58042" lon="1.78452">
        <ele>115.5</ele>
        <time>2014-05-03T10:41:55Z</time>
      </trkpt>
      <trkpt lat="50.58052" lon="1.78448">
        <ele>115.98</ele>
        <time>2014-05-03T10:42:01Z</time>
      </trkpt>
      <trkpt lat="50.58061" lon="1.78444">
        <ele>115.5</ele>
        <time>2014-05-03T10:42:07Z</time>
      </trkpt>
      <trkpt lat="50.58072" lon="1.7844">
        <ele>115.98</ele>
        <time>2014-05-03T10:42:13Z</time>
      </trkpt>
      <trkpt lat="50.58081" lon="1.78437">
        <ele>116.46</ele>
        <time>2014-05-03T10:42:18Z</time>
      </trkpt>
      <trkpt lat="50.58091" lon="1.78433">
        <ele>116.46</ele>
        <time>2014-05-03T10:42:23Z</time>
      </trkpt>
      <trkpt lat="50.58101" lon="1.7843">
        <ele>116.94</ele>
        <time>2014-05-03T10:42:29Z</time>
      </trkpt>
      <trkpt lat="50.58111" lon="1.78426">
        <ele>116.94</ele>
        <time>2014-05-03T10:42:35Z</time>
      </trkpt>
      <trkpt lat="50.58118" lon="1.78422">
        <ele>117.9</ele>
        <time>2014-05-03T10:42:46Z</time>
      </trkpt>
      <trkpt lat="50.58129" lon="1.78419">
        <ele>117.9</ele>
        <time>2014-05-03T10:42:52Z</time>
      </trkpt>
      <trkpt lat="50.58139" lon="1.78415">
        <ele>117.9</ele>
        <time>2014-05-03T10:42:57Z</time>
      </trkpt>
      <trkpt lat="50.58149" lon="1.78411">
        <ele>119.34</ele>
        <time>2014-05-03T10:43:03Z</time>
      </trkpt>
      <trkpt lat="50.58159" lon="1.78407">
        <ele>119.34</ele>
        <time>2014-05-03T10:43:09Z</time>
      </trkpt>
      <trkpt lat="50.58168" lon="1.78403">
        <ele>119.82</ele>
        <time>2014-05-03T10:43:15Z</time>
      </trkpt>
      <trkpt lat="50.58177" lon="1.78399">
        <ele>120.3</ele>
        <time>2014-05-03T10:43:21Z</time>
      </trkpt>
      <trkpt lat="50.58188" lon="1.78397">
        <ele>120.78</ele>
        <time>2014-05-03T10:43:27Z</time>
      </trkpt>
      <trkpt lat="50.58197" lon="1.78394">
        <ele>120.3</ele>
        <time>2014-05-03T10:43:33Z</time>
      </trkpt>
      <trkpt lat="50.58207" lon="1.78391">
        <ele>120.78</ele>
        <time>2014-05-03T10:43:39Z</time>
      </trkpt>
      <trkpt lat="50.58216" lon="1.78389">
        <ele>120.78</ele>
        <time>2014-05-03T10:43:45Z</time>
      </trkpt>
      <trkpt lat="50.58225" lon="1.78387">
        <ele>121.26</ele>
        <time>2014-05-03T10:43:51Z</time>
      </trkpt>
      <trkpt lat="50.58235" lon="1.78384">
        <ele>120.78</ele>
        <time>2014-05-03T10:43:57Z</time>
      </trkpt>
      <trkpt lat="50.58246" lon="1.78382">
        <ele>120.3</ele>
        <time>2014-05-03T10:44:03Z</time>
      </trkpt>
      <trkpt lat="50.58256" lon="1.7838">
        <ele>120.3</ele>
        <time>2014-05-03T10:44:09Z</time>
      </trkpt>
      <trkpt lat="50.58266" lon="1.78378">
        <ele>120.3</ele>
        <time>2014-05-03T10:44:15Z</time>
      </trkpt>
      <trkpt lat="50.58277" lon="1.78375">
        <ele>120.78</ele>
        <time>2014-05-03T10:44:21Z</time>
      </trkpt>
      <trkpt lat="50.58286" lon="1.78375">
        <ele>120.3</ele>
        <time>2014-05-03T10:44:27Z</time>
      </trkpt>
      <trkpt lat="50.58295" lon="1.78373">
        <ele>120.3</ele>
        <time>2014-05-03T10:44:41Z</time>
      </trkpt>
      <trkpt lat="50.58306" lon="1.78371">
        <ele>120.78</ele>
        <time>2014-05-03T10:44:46Z</time>
      </trkpt>
      <trkpt lat="50.58316" lon="1.78371">
        <ele>120.78</ele>
        <time>2014-05-03T10:44:52Z</time>
      </trkpt>
      <trkpt lat="50.58326" lon="1.78372">
        <ele>121.26</ele>
        <time>2014-05-03T10:44:58Z</time>
      </trkpt>
      <trkpt lat="50.58335" lon="1.78373">
        <ele>120.78</ele>
        <time>2014-05-03T10:45:04Z</time>
      </trkpt>
      <trkpt lat="50.58345" lon="1.78373">
        <ele>120.78</ele>
        <time>2014-05-03T10:45:10Z</time>
      </trkpt>
      <trkpt lat="50.58356" lon="1.78375">
        <ele>121.26</ele>
        <time>2014-05-03T10:45:16Z</time>
      </trkpt>
      <trkpt lat="50.58365" lon="1.78375">
        <ele>120.3</ele>
        <time>2014-05-03T10:45:21Z</time>
      </trkpt>
      <trkpt lat="50.58375" lon="1.78376">
        <ele>120.78</ele>
        <time>2014-05-03T10:45:27Z</time>
      </trkpt>
      <trkpt lat="50.58385" lon="1.78378">
        <ele>120.78</ele>
        <time>2014-05-03T10:45:33Z</time>
      </trkpt>
      <trkpt lat="50.58393" lon="1.78379">
        <ele>122.22</ele>
        <time>2014-05-03T10:45:38Z</time>
      </trkpt>
      <trkpt lat="50.58404" lon="1.78379">
        <ele>121.74</ele>
        <time>2014-05-03T10:45:44Z</time>
      </trkpt>
      <trkpt lat="50.58414" lon="1.78378">
        <ele>122.71</ele>
        <time>2014-05-03T10:45:50Z</time>
      </trkpt>
      <trkpt lat="50.58424" lon="1.78378">
        <ele>122.71</ele>
        <time>2014-05-03T10:45:56Z</time>
      </trkpt>
      <trkpt lat="50.58435" lon="1.78378">
        <ele>122.71</ele>
        <time>2014-05-03T10:46:02Z</time>
      </trkpt>
      <trkpt lat="50.58446" lon="1.78376">
        <ele>122.22</ele>
        <time>2014-05-03T10:46:08Z</time>
      </trkpt>
      <trkpt lat="50.58456" lon="1.78375">
        <ele>122.22</ele>
        <time>2014-05-03T10:46:14Z</time>
      </trkpt>
      <trkpt lat="50.58468" lon="1.78373">
        <ele>122.71</ele>
        <time>2014-05-03T10:46:20Z</time>
      </trkpt>
      <trkpt lat="50.58477" lon="1.78371">
        <ele>123.19</ele>
        <time>2014-05-03T10:46:25Z</time>
      </trkpt>
      <trkpt lat="50.58488" lon="1.78369">
        <ele>122.71</ele>
        <time>2014-05-03T10:46:31Z</time>
      </trkpt>
      <trkpt lat="50.58498" lon="1.78368">
        <ele>122.71</ele>
        <time>2014-05-03T10:46:36Z</time>
      </trkpt>
      <trkpt lat="50.58508" lon="1.78367">
        <ele>122.71</ele>
        <time>2014-05-03T10:46:41Z</time>
      </trkpt>
      <trkpt lat="50.58518" lon="1.78366">
        <ele>122.71</ele>
        <time>2014-05-03T10:46:47Z</time>
      </trkpt>
      <trkpt lat="50.58529" lon="1.78362">
        <ele>123.19</ele>
        <time>2014-05-03T10:46:54Z</time>
      </trkpt>
      <trkpt lat="50.5854" lon="1.7836">
        <ele>123.19</ele>
        <time>2014-05-03T10:47:00Z</time>
      </trkpt>
      <trkpt lat="50.58551" lon="1.78356">
        <ele>122.22</ele>
        <time>2014-05-03T10:47:06Z</time>
      </trkpt>
      <trkpt lat="50.58562" lon="1.78351">
        <ele>121.26</ele>
        <time>2014-05-03T10:47:12Z</time>
      </trkpt>
      <trkpt lat="50.58573" lon="1.78346">
        <ele>122.71</ele>
        <time>2014-05-03T10:47:18Z</time>
      </trkpt>
      <trkpt lat="50.58583" lon="1.78341">
        <ele>122.22</ele>
        <time>2014-05-03T10:47:23Z</time>
      </trkpt>
      <trkpt lat="50.58592" lon="1.78335">
        <ele>122.71</ele>
        <time>2014-05-03T10:47:28Z</time>
      </trkpt>
      <trkpt lat="50.58602" lon="1.78331">
        <ele>122.71</ele>
        <time>2014-05-03T10:47:34Z</time>
      </trkpt>
      <trkpt lat="50.58611" lon="1.78328">
        <ele>122.22</ele>
        <time>2014-05-03T10:47:40Z</time>
      </trkpt>
      <trkpt lat="50.58622" lon="1.78322">
        <ele>122.71</ele>
        <time>2014-05-03T10:47:47Z</time>
      </trkpt>
      <trkpt lat="50.58632" lon="1.78317">
        <ele>122.71</ele>
        <time>2014-05-03T10:47:53Z</time>
      </trkpt>
      <trkpt lat="50.58644" lon="1.78313">
        <ele>122.71</ele>
        <time>2014-05-03T10:48:00Z</time>
      </trkpt>
      <trkpt lat="50.58656" lon="1.78308">
        <ele>122.71</ele>
        <time>2014-05-03T10:48:07Z</time>
      </trkpt>
      <trkpt lat="50.58667" lon="1.78306">
        <ele>123.67</ele>
        <time>2014-05-03T10:48:13Z</time>
      </trkpt>
      <trkpt lat="50.58681" lon="1.78303">
        <ele>123.19</ele>
        <time>2014-05-03T10:48:20Z</time>
      </trkpt>
      <trkpt lat="50.58693" lon="1.78302">
        <ele>123.19</ele>
        <time>2014-05-03T10:48:28Z</time>
      </trkpt>
      <trkpt lat="50.58707" lon="1.78299">
        <ele>122.71</ele>
        <time>2014-05-03T10:48:36Z</time>
      </trkpt>
      <trkpt lat="50.58719" lon="1.78298">
        <ele>122.22</ele>
        <time>2014-05-03T10:48:43Z</time>
      </trkpt>
      <trkpt lat="50.58733" lon="1.78296">
        <ele>121.74</ele>
        <time>2014-05-03T10:48:52Z</time>
      </trkpt>
      <trkpt lat="50.58746" lon="1.78296">
        <ele>121.74</ele>
        <time>2014-05-03T10:49:00Z</time>
      </trkpt>
      <trkpt lat="50.58759" lon="1.78297">
        <ele>122.22</ele>
        <time>2014-05-03T10:49:07Z</time>
      </trkpt>
      <trkpt lat="50.58771" lon="1.78299">
        <ele>122.22</ele>
        <time>2014-05-03T10:49:13Z</time>
      </trkpt>
      <trkpt lat="50.58785" lon="1.783">
        <ele>122.71</ele>
        <time>2014-05-03T10:49:19Z</time>
      </trkpt>
      <trkpt lat="50.58797" lon="1.78298">
        <ele>123.19</ele>
        <time>2014-05-03T10:49:26Z</time>
      </trkpt>
      <trkpt lat="50.58808" lon="1.78297">
        <ele>123.19</ele>
        <time>2014-05-03T10:49:32Z</time>
      </trkpt>
      <trkpt lat="50.58823" lon="1.78299">
        <ele>123.19</ele>
        <time>2014-05-03T10:49:38Z</time>
      </trkpt>
      <trkpt lat="50.58836" lon="1.783">
        <ele>124.63</ele>
        <time>2014-05-03T10:49:45Z</time>
      </trkpt>
      <trkpt lat="50.58846" lon="1.783">
        <ele>124.63</ele>
        <time>2014-05-03T10:50:20Z</time>
      </trkpt>
      <trkpt lat="50.58842" lon="1.78295">
        <ele>125.11</ele>
        <time>2014-05-03T10:55:17Z</time>
      </trkpt>
      <trkpt lat="50.58847" lon="1.78294">
        <ele>125.11</ele>
        <time>2014-05-03T10:56:08Z</time>
      </trkpt>
      <trkpt lat="50.58845" lon="1.78298">
        <ele>124.63</ele>
        <time>2014-05-03T10:57:25Z</time>
      </trkpt>
      <trkpt lat="50.58852" lon="1.78291">
        <ele>124.63</ele>
        <time>2014-05-03T10:57:56Z</time>
      </trkpt>
      <trkpt lat="50.58852" lon="1.78298">
        <ele>124.15</ele>
        <time>2014-05-03T10:58:59Z</time>
      </trkpt>
      <trkpt lat="50.60424" lon="1.78893">
        <ele>154.91</ele>
        <time>2014-05-03T12:37:31Z</time>
      </trkpt>
      <trkpt lat="50.60432" lon="1.78898">
        <ele>156.35</ele>
        <time>2014-05-03T12:37:37Z</time>
      </trkpt>
      <trkpt lat="50.60442" lon="1.78899">
        <ele>156.83</ele>
        <time>2014-05-03T12:37:43Z</time>
      </trkpt>
      <trkpt lat="50.60452" lon="1.78899">
        <ele>158.27</ele>
        <time>2014-05-03T12:37:48Z</time>
      </trkpt>
      <trkpt lat="50.60461" lon="1.78901">
        <ele>158.75</ele>
        <time>2014-05-03T12:37:53Z</time>
      </trkpt>
      <trkpt lat="50.60471" lon="1.78903">
        <ele>159.72</ele>
        <time>2014-05-03T12:37:59Z</time>
      </trkpt>
      <trkpt lat="50.60481" lon="1.78907">
        <ele>159.72</ele>
        <time>2014-05-03T12:38:05Z</time>
      </trkpt>
      <trkpt lat="50.6049" lon="1.7891">
        <ele>160.68</ele>
        <time>2014-05-03T12:38:11Z</time>
      </trkpt>
      <trkpt lat="50.60499" lon="1.78916">
        <ele>161.16</ele>
        <time>2014-05-03T12:38:17Z</time>
      </trkpt>
      <trkpt lat="50.60506" lon="1.78923">
        <ele>161.16</ele>
        <time>2014-05-03T12:38:23Z</time>
      </trkpt>
      <trkpt lat="50.60515" lon="1.7893">
        <ele>161.64</ele>
        <time>2014-05-03T12:38:29Z</time>
      </trkpt>
      <trkpt lat="50.60525" lon="1.78938">
        <ele>161.16</ele>
        <time>2014-05-03T12:38:35Z</time>
      </trkpt>
      <trkpt lat="50.60534" lon="1.78947">
        <ele>162.6</ele>
        <time>2014-05-03T12:38:41Z</time>
      </trkpt>
      <trkpt lat="50.60542" lon="1.78958">
        <ele>162.12</ele>
        <time>2014-05-03T12:38:47Z</time>
      </trkpt>
      <trkpt lat="50.6055" lon="1.78967">
        <ele>164.04</ele>
        <time>2014-05-03T12:38:53Z</time>
      </trkpt>
      <trkpt lat="50.60559" lon="1.78975">
        <ele>165</ele>
        <time>2014-05-03T12:38:59Z</time>
      </trkpt>
      <trkpt lat="50.60568" lon="1.78983">
        <ele>165.48</ele>
        <time>2014-05-03T12:39:05Z</time>
      </trkpt>
      <trkpt lat="50.60577" lon="1.78993">
        <ele>166.45</ele>
        <time>2014-05-03T12:39:11Z</time>
      </trkpt>
      <trkpt lat="50.60586" lon="1.79">
        <ele>166.93</ele>
        <time>2014-05-03T12:39:17Z</time>
      </trkpt>
      <trkpt lat="50.60596" lon="1.79007">
        <ele>167.89</ele>
        <time>2014-05-03T12:39:24Z</time>
      </trkpt>
      <trkpt lat="50.60605" lon="1.79013">
        <ele>168.37</ele>
        <time>2014-05-03T12:39:29Z</time>
      </trkpt>
      <trkpt lat="50.60615" lon="1.7902">
        <ele>167.89</ele>
        <time>2014-05-03T12:39:35Z</time>
      </trkpt>
      <trkpt lat="50.60625" lon="1.79027">
        <ele>168.37</ele>
        <time>2014-05-03T12:39:41Z</time>
      </trkpt>
      <trkpt lat="50.60634" lon="1.79034">
        <ele>169.81</ele>
        <time>2014-05-03T12:39:47Z</time>
      </trkpt>
      <trkpt lat="50.60644" lon="1.79043">
        <ele>170.29</ele>
        <time>2014-05-03T12:39:53Z</time>
      </trkpt>
      <trkpt lat="50.60653" lon="1.7905">
        <ele>171.25</ele>
        <time>2014-05-03T12:39:59Z</time>
      </trkpt>
      <trkpt lat="50.60661" lon="1.79059">
        <ele>172.21</ele>
        <time>2014-05-03T12:40:05Z</time>
      </trkpt>
      <trkpt lat="50.60671" lon="1.79066">
        <ele>172.69</ele>
        <time>2014-05-03T12:40:22Z</time>
      </trkpt>
      <trkpt lat="50.60681" lon="1.7907">
        <ele>173.17</ele>
        <time>2014-05-03T12:40:30Z</time>
      </trkpt>
      <trkpt lat="50.6069" lon="1.79076">
        <ele>172.21</ele>
        <time>2014-05-03T12:40:36Z</time>
      </trkpt>
      <trkpt lat="50.60699" lon="1.7908">
        <ele>172.21</ele>
        <time>2014-05-03T12:40:42Z</time>
      </trkpt>
      <trkpt lat="50.60708" lon="1.79088">
        <ele>172.69</ele>
        <time>2014-05-03T12:40:48Z</time>
      </trkpt>
      <trkpt lat="50.60717" lon="1.79095">
        <ele>172.69</ele>
        <time>2014-05-03T12:40:54Z</time>
      </trkpt>
      <trkpt lat="50.60725" lon="1.79102">
        <ele>172.69</ele>
        <time>2014-05-03T12:40:59Z</time>
      </trkpt>
      <trkpt lat="50.60733" lon="1.7911">
        <ele>173.17</ele>
        <time>2014-05-03T12:41:04Z</time>
      </trkpt>
      <trkpt lat="50.60741" lon="1.79117">
        <ele>172.69</ele>
        <time>2014-05-03T12:41:09Z</time>
      </trkpt>
      <trkpt lat="50.60749" lon="1.79123">
        <ele>171.73</ele>
        <time>2014-05-03T12:41:14Z</time>
      </trkpt>
      <trkpt lat="50.60759" lon="1.79131">
        <ele>171.73</ele>
        <time>2014-05-03T12:41:19Z</time>
      </trkpt>
      <trkpt lat="50.60767" lon="1.79137">
        <ele>171.25</ele>
        <time>2014-05-03T12:41:24Z</time>
      </trkpt>
      <trkpt lat="50.60776" lon="1.79143">
        <ele>171.25</ele>
        <time>2014-05-03T12:41:29Z</time>
      </trkpt>
      <trkpt lat="50.60784" lon="1.79149">
        <ele>171.25</ele>
        <time>2014-05-03T12:41:34Z</time>
      </trkpt>
      <trkpt lat="50.60792" lon="1.79156">
        <ele>171.25</ele>
        <time>2014-05-03T12:41:39Z</time>
      </trkpt>
      <trkpt lat="50.608" lon="1.79163">
        <ele>171.73</ele>
        <time>2014-05-03T12:41:44Z</time>
      </trkpt>
      <trkpt lat="50.60809" lon="1.79169">
        <ele>171.25</ele>
        <time>2014-05-03T12:41:50Z</time>
      </trkpt>
      <trkpt lat="50.60818" lon="1.79176">
        <ele>171.73</ele>
        <time>2014-05-03T12:41:56Z</time>
      </trkpt>
      <trkpt lat="50.60826" lon="1.79181">
        <ele>170.77</ele>
        <time>2014-05-03T12:42:01Z</time>
      </trkpt>
      <trkpt lat="50.60835" lon="1.79189">
        <ele>171.73</ele>
        <time>2014-05-03T12:42:07Z</time>
      </trkpt>
      <trkpt lat="50.60843" lon="1.79197">
        <ele>172.21</ele>
        <time>2014-05-03T12:42:13Z</time>
      </trkpt>
      <trkpt lat="50.60851" lon="1.79205">
        <ele>172.21</ele>
        <time>2014-05-03T12:42:19Z</time>
      </trkpt>
      <trkpt lat="50.60859" lon="1.79212">
        <ele>172.69</ele>
        <time>2014-05-03T12:42:25Z</time>
      </trkpt>
      <trkpt lat="50.60868" lon="1.7922">
        <ele>173.17</ele>
        <time>2014-05-03T12:42:31Z</time>
      </trkpt>
      <trkpt lat="50.60877" lon="1.79226">
        <ele>174.14</ele>
        <time>2014-05-03T12:42:37Z</time>
      </trkpt>
      <trkpt lat="50.60887" lon="1.79232">
        <ele>174.62</ele>
        <time>2014-05-03T12:42:43Z</time>
      </trkpt>
      <trkpt lat="50.60896" lon="1.79239">
        <ele>175.1</ele>
        <time>2014-05-03T12:42:49Z</time>
      </trkpt>
      <trkpt lat="50.60904" lon="1.79247">
        <ele>176.06</ele>
        <time>2014-05-03T12:42:55Z</time>
      </trkpt>
      <trkpt lat="50.60914" lon="1.79256">
        <ele>177.02</ele>
        <time>2014-05-03T12:43:01Z</time>
      </trkpt>
      <trkpt lat="50.60922" lon="1.79263">
        <ele>177.5</ele>
        <time>2014-05-03T12:43:07Z</time>
      </trkpt>
      <trkpt lat="50.6093" lon="1.79271">
        <ele>178.46</ele>
        <time>2014-05-03T12:43:13Z</time>
      </trkpt>
      <trkpt lat="50.60939" lon="1.79278">
        <ele>178.46</ele>
        <time>2014-05-03T12:43:19Z</time>
      </trkpt>
      <trkpt lat="50.60949" lon="1.79283">
        <ele>179.9</ele>
        <time>2014-05-03T12:43:25Z</time>
      </trkpt>
      <trkpt lat="50.60958" lon="1.7929">
        <ele>180.38</ele>
        <time>2014-05-03T12:43:31Z</time>
      </trkpt>
      <trkpt lat="50.60967" lon="1.79297">
        <ele>181.83</ele>
        <time>2014-05-03T12:43:37Z</time>
      </trkpt>
      <trkpt lat="50.60976" lon="1.79307">
        <ele>182.79</ele>
        <time>2014-05-03T12:43:44Z</time>
      </trkpt>
      <trkpt lat="50.60984" lon="1.79316">
        <ele>183.75</ele>
        <time>2014-05-03T12:43:50Z</time>
      </trkpt>
      <trkpt lat="50.60993" lon="1.79325">
        <ele>183.75</ele>
        <time>2014-05-03T12:43:57Z</time>
      </trkpt>
      <trkpt lat="50.61002" lon="1.79333">
        <ele>185.19</ele>
        <time>2014-05-03T12:44:03Z</time>
      </trkpt>
      <trkpt lat="50.61011" lon="1.79341">
        <ele>186.15</ele>
        <time>2014-05-03T12:44:10Z</time>
      </trkpt>
      <trkpt lat="50.6102" lon="1.79348">
        <ele>187.59</ele>
        <time>2014-05-03T12:44:17Z</time>
      </trkpt>
      <trkpt lat="50.61031" lon="1.79349">
        <ele>188.08</ele>
        <time>2014-05-03T12:44:24Z</time>
      </trkpt>
      <trkpt lat="50.61039" lon="1.79341">
        <ele>189.04</ele>
        <time>2014-05-03T12:44:31Z</time>
      </trkpt>
      <trkpt lat="50.61047" lon="1.7933">
        <ele>188.56</ele>
        <time>2014-05-03T12:44:37Z</time>
      </trkpt>
      <trkpt lat="50.61056" lon="1.79321">
        <ele>189.04</ele>
        <time>2014-05-03T12:44:41Z</time>
      </trkpt>
      <trkpt lat="50.61066" lon="1.79311">
        <ele>190.96</ele>
        <time>2014-05-03T12:44:47Z</time>
      </trkpt>
      <trkpt lat="50.61076" lon="1.79301">
        <ele>190</ele>
        <time>2014-05-03T12:44:53Z</time>
      </trkpt>
      <trkpt lat="50.61084" lon="1.79293">
        <ele>191.92</ele>
        <time>2014-05-03T12:44:59Z</time>
      </trkpt>
      <trkpt lat="50.61094" lon="1.79286">
        <ele>192.88</ele>
        <time>2014-05-03T12:45:05Z</time>
      </trkpt>
      <trkpt lat="50.61103" lon="1.79278">
        <ele>192.88</ele>
        <time>2014-05-03T12:45:11Z</time>
      </trkpt>
      <trkpt lat="50.61113" lon="1.79272">
        <ele>192.88</ele>
        <time>2014-05-03T12:45:17Z</time>
      </trkpt>
      <trkpt lat="50.61122" lon="1.79264">
        <ele>192.4</ele>
        <time>2014-05-03T12:45:23Z</time>
      </trkpt>
      <trkpt lat="50.61131" lon="1.79257">
        <ele>192.4</ele>
        <time>2014-05-03T12:45:29Z</time>
      </trkpt>
      <trkpt lat="50.6114" lon="1.79251">
        <ele>191.44</ele>
        <time>2014-05-03T12:45:35Z</time>
      </trkpt>
      <trkpt lat="50.61149" lon="1.79243">
        <ele>191.44</ele>
        <time>2014-05-03T12:45:41Z</time>
      </trkpt>
      <trkpt lat="50.61157" lon="1.79237">
        <ele>190.48</ele>
        <time>2014-05-03T12:45:46Z</time>
      </trkpt>
      <trkpt lat="50.61167" lon="1.79231">
        <ele>189.52</ele>
        <time>2014-05-03T12:46:01Z</time>
      </trkpt>
      <trkpt lat="50.61176" lon="1.79226">
        <ele>188.56</ele>
        <time>2014-05-03T12:46:06Z</time>
      </trkpt>
      <trkpt lat="50.61184" lon="1.7922">
        <ele>188.56</ele>
        <time>2014-05-03T12:46:11Z</time>
      </trkpt>
      <trkpt lat="50.61192" lon="1.79213">
        <ele>187.11</ele>
        <time>2014-05-03T12:46:16Z</time>
      </trkpt>
      <trkpt lat="50.612" lon="1.79203">
        <ele>186.63</ele>
        <time>2014-05-03T12:46:22Z</time>
      </trkpt>
      <trkpt lat="50.61208" lon="1.79194">
        <ele>186.15</ele>
        <time>2014-05-03T12:46:27Z</time>
      </trkpt>
      <trkpt lat="50.61216" lon="1.79184">
        <ele>185.67</ele>
        <time>2014-05-03T12:46:32Z</time>
      </trkpt>
      <trkpt lat="50.61224" lon="1.79173">
        <ele>184.71</ele>
        <time>2014-05-03T12:46:38Z</time>
      </trkpt>
      <trkpt lat="50.61232" lon="1.79161">
        <ele>184.71</ele>
        <time>2014-05-03T12:46:44Z</time>
      </trkpt>
      <trkpt lat="50.6124" lon="1.79151">
        <ele>184.23</ele>
        <time>2014-05-03T12:46:49Z</time>
      </trkpt>
      <trkpt lat="50.61247" lon="1.79141">
        <ele>184.23</ele>
        <time>2014-05-03T12:46:54Z</time>
      </trkpt>
      <trkpt lat="50.61253" lon="1.79131">
        <ele>184.23</ele>
        <time>2014-05-03T12:46:59Z</time>
      </trkpt>
      <trkpt lat="50.61261" lon="1.79119">
        <ele>184.23</ele>
        <time>2014-05-03T12:47:05Z</time>
      </trkpt>
      <trkpt lat="50.61267" lon="1.79108">
        <ele>184.71</ele>
        <time>2014-05-03T12:47:10Z</time>
      </trkpt>
      <trkpt lat="50.61273" lon="1.79096">
        <ele>184.71</ele>
        <time>2014-05-03T12:47:16Z</time>
      </trkpt>
      <trkpt lat="50.6128" lon="1.79085">
        <ele>184.71</ele>
        <time>2014-05-03T12:47:22Z</time>
      </trkpt>
      <trkpt lat="50.61287" lon="1.79073">
        <ele>185.67</ele>
        <time>2014-05-03T12:47:28Z</time>
      </trkpt>
      <trkpt lat="50.61295" lon="1.79063">
        <ele>186.15</ele>
        <time>2014-05-03T12:47:34Z</time>
      </trkpt>
      <trkpt lat="50.61302" lon="1.79053">
        <ele>186.63</ele>
        <time>2014-05-03T12:47:40Z</time>
      </trkpt>
      <trkpt lat="50.61311" lon="1.79044">
        <ele>187.59</ele>
        <time>2014-05-03T12:47:47Z</time>
      </trkpt>
      <trkpt lat="50.61319" lon="1.79037">
        <ele>187.59</ele>
        <time>2014-05-03T12:47:53Z</time>
      </trkpt>
      <trkpt lat="50.61328" lon="1.79028">
        <ele>187.59</ele>
        <time>2014-05-03T12:47:59Z</time>
      </trkpt>
      <trkpt lat="50.61337" lon="1.79022">
        <ele>187.59</ele>
        <time>2014-05-03T12:48:05Z</time>
      </trkpt>
      <trkpt lat="50.61348" lon="1.79019">
        <ele>189.04</ele>
        <time>2014-05-03T12:48:11Z</time>
      </trkpt>
      <trkpt lat="50.61359" lon="1.79015">
        <ele>190</ele>
        <time>2014-05-03T12:48:17Z</time>
      </trkpt>
      <trkpt lat="50.6137" lon="1.79015">
        <ele>190.96</ele>
        <time>2014-05-03T12:48:23Z</time>
      </trkpt>
      <trkpt lat="50.61382" lon="1.79016">
        <ele>190.96</ele>
        <time>2014-05-03T12:48:29Z</time>
      </trkpt>
      <trkpt lat="50.61394" lon="1.79016">
        <ele>191.92</ele>
        <time>2014-05-03T12:48:35Z</time>
      </trkpt>
      <trkpt lat="50.61403" lon="1.79019">
        <ele>191.92</ele>
        <time>2014-05-03T12:48:40Z</time>
      </trkpt>
      <trkpt lat="50.61414" lon="1.7902">
        <ele>192.88</ele>
        <time>2014-05-03T12:48:46Z</time>
      </trkpt>
      <trkpt lat="50.61425" lon="1.79023">
        <ele>192.4</ele>
        <time>2014-05-03T12:48:52Z</time>
      </trkpt>
      <trkpt lat="50.61434" lon="1.79025">
        <ele>191.44</ele>
        <time>2014-05-03T12:48:58Z</time>
      </trkpt>
      <trkpt lat="50.61445" lon="1.79028">
        <ele>191.44</ele>
        <time>2014-05-03T12:49:04Z</time>
      </trkpt>
      <trkpt lat="50.61453" lon="1.79033">
        <ele>191.44</ele>
        <time>2014-05-03T12:49:10Z</time>
      </trkpt>
      <trkpt lat="50.61462" lon="1.79037">
        <ele>191.92</ele>
        <time>2014-05-03T12:49:23Z</time>
      </trkpt>
      <trkpt lat="50.61472" lon="1.79041">
        <ele>190.96</ele>
        <time>2014-05-03T12:49:29Z</time>
      </trkpt>
      <trkpt lat="50.61481" lon="1.79047">
        <ele>190</ele>
        <time>2014-05-03T12:49:34Z</time>
      </trkpt>
      <trkpt lat="50.61491" lon="1.79052">
        <ele>190.48</ele>
        <time>2014-05-03T12:49:39Z</time>
      </trkpt>
      <trkpt lat="50.61499" lon="1.79057">
        <ele>190</ele>
        <time>2014-05-03T12:49:44Z</time>
      </trkpt>
      <trkpt lat="50.61507" lon="1.79062">
        <ele>189.52</ele>
        <time>2014-05-03T12:49:49Z</time>
      </trkpt>
      <trkpt lat="50.61516" lon="1.79067">
        <ele>189.04</ele>
        <time>2014-05-03T12:49:54Z</time>
      </trkpt>
      <trkpt lat="50.61526" lon="1.79073">
        <ele>188.56</ele>
        <time>2014-05-03T12:49:59Z</time>
      </trkpt>
      <trkpt lat="50.61536" lon="1.79079">
        <ele>187.11</ele>
        <time>2014-05-03T12:50:06Z</time>
      </trkpt>
      <trkpt lat="50.61544" lon="1.79084">
        <ele>186.63</ele>
        <time>2014-05-03T12:50:11Z</time>
      </trkpt>
      <trkpt lat="50.61554" lon="1.79089">
        <ele>185.67</ele>
        <time>2014-05-03T12:50:16Z</time>
      </trkpt>
      <trkpt lat="50.61562" lon="1.79094">
        <ele>185.19</ele>
        <time>2014-05-03T12:50:21Z</time>
      </trkpt>
      <trkpt lat="50.61572" lon="1.79099">
        <ele>184.71</ele>
        <time>2014-05-03T12:50:26Z</time>
      </trkpt>
      <trkpt lat="50.61581" lon="1.79105">
        <ele>184.23</ele>
        <time>2014-05-03T12:50:31Z</time>
      </trkpt>
      <trkpt lat="50.61591" lon="1.7911">
        <ele>183.27</ele>
        <time>2014-05-03T12:50:37Z</time>
      </trkpt>
      <trkpt lat="50.61599" lon="1.79119">
        <ele>183.27</ele>
        <time>2014-05-03T12:50:43Z</time>
      </trkpt>
      <trkpt lat="50.61602" lon="1.79133">
        <ele>183.27</ele>
        <time>2014-05-03T12:50:50Z</time>
      </trkpt>
      <trkpt lat="50.61604" lon="1.7915">
        <ele>184.23</ele>
        <time>2014-05-03T12:50:57Z</time>
      </trkpt>
      <trkpt lat="50.61607" lon="1.79165">
        <ele>184.71</ele>
        <time>2014-05-03T12:51:03Z</time>
      </trkpt>
      <trkpt lat="50.61609" lon="1.79182">
        <ele>185.67</ele>
        <time>2014-05-03T12:51:10Z</time>
      </trkpt>
      <trkpt lat="50.6161" lon="1.79198">
        <ele>186.63</ele>
        <time>2014-05-03T12:51:16Z</time>
      </trkpt>
      <trkpt lat="50.61611" lon="1.79213">
        <ele>187.59</ele>
        <time>2014-05-03T12:51:23Z</time>
      </trkpt>
      <trkpt lat="50.61613" lon="1.7923">
        <ele>187.59</ele>
        <time>2014-05-03T12:51:30Z</time>
      </trkpt>
      <trkpt lat="50.61614" lon="1.79245">
        <ele>187.59</ele>
        <time>2014-05-03T12:51:37Z</time>
      </trkpt>
      <trkpt lat="50.61615" lon="1.79262">
        <ele>188.56</ele>
        <time>2014-05-03T12:51:44Z</time>
      </trkpt>
      <trkpt lat="50.61615" lon="1.7928">
        <ele>189.52</ele>
        <time>2014-05-03T12:51:50Z</time>
      </trkpt>
      <trkpt lat="50.61614" lon="1.79295">
        <ele>189.52</ele>
        <time>2014-05-03T12:51:56Z</time>
      </trkpt>
      <trkpt lat="50.61613" lon="1.79311">
        <ele>189.52</ele>
        <time>2014-05-03T12:52:02Z</time>
      </trkpt>
      <trkpt lat="50.61612" lon="1.79327">
        <ele>190.48</ele>
        <time>2014-05-03T12:52:08Z</time>
      </trkpt>
      <trkpt lat="50.61611" lon="1.79344">
        <ele>190.96</ele>
        <time>2014-05-03T12:52:14Z</time>
      </trkpt>
      <trkpt lat="50.61609" lon="1.7936">
        <ele>191.44</ele>
        <time>2014-05-03T12:52:20Z</time>
      </trkpt>
      <trkpt lat="50.61607" lon="1.79376">
        <ele>191.92</ele>
        <time>2014-05-03T12:52:26Z</time>
      </trkpt>
      <trkpt lat="50.61604" lon="1.79393">
        <ele>191.92</ele>
        <time>2014-05-03T12:52:32Z</time>
      </trkpt>
      <trkpt lat="50.61601" lon="1.79408">
        <ele>191.44</ele>
        <time>2014-05-03T12:52:37Z</time>
      </trkpt>
      <trkpt lat="50.61598" lon="1.79424">
        <ele>191.44</ele>
        <time>2014-05-03T12:52:43Z</time>
      </trkpt>
      <trkpt lat="50.61595" lon="1.7944">
        <ele>190.96</ele>
        <time>2014-05-03T12:52:49Z</time>
      </trkpt>
      <trkpt lat="50.61591" lon="1.79456">
        <ele>190</ele>
        <time>2014-05-03T12:52:55Z</time>
      </trkpt>
      <trkpt lat="50.61588" lon="1.79474">
        <ele>190</ele>
        <time>2014-05-03T12:53:01Z</time>
      </trkpt>
      <trkpt lat="50.61585" lon="1.79488">
        <ele>189.52</ele>
        <time>2014-05-03T12:53:06Z</time>
      </trkpt>
      <trkpt lat="50.61582" lon="1.79503">
        <ele>189.52</ele>
        <time>2014-05-03T12:53:11Z</time>
      </trkpt>
      <trkpt lat="50.6158" lon="1.79517">
        <ele>189.04</ele>
        <time>2014-05-03T12:53:16Z</time>
      </trkpt>
      <trkpt lat="50.61576" lon="1.79529">
        <ele>189.04</ele>
        <time>2014-05-03T12:53:32Z</time>
      </trkpt>
      <trkpt lat="50.61575" lon="1.79544">
        <ele>188.08</ele>
        <time>2014-05-03T12:53:39Z</time>
      </trkpt>
      <trkpt lat="50.61575" lon="1.7956">
        <ele>186.63</ele>
        <time>2014-05-03T12:53:45Z</time>
      </trkpt>
      <trkpt lat="50.61573" lon="1.79576">
        <ele>186.15</ele>
        <time>2014-05-03T12:53:51Z</time>
      </trkpt>
      <trkpt lat="50.61572" lon="1.79593">
        <ele>185.67</ele>
        <time>2014-05-03T12:53:57Z</time>
      </trkpt>
      <trkpt lat="50.61572" lon="1.79609">
        <ele>185.19</ele>
        <time>2014-05-03T12:54:03Z</time>
      </trkpt>
      <trkpt lat="50.61572" lon="1.79625">
        <ele>184.71</ele>
        <time>2014-05-03T12:54:08Z</time>
      </trkpt>
      <trkpt lat="50.61572" lon="1.79642">
        <ele>184.23</ele>
        <time>2014-05-03T12:54:14Z</time>
      </trkpt>
      <trkpt lat="50.61573" lon="1.79659">
        <ele>184.71</ele>
        <time>2014-05-03T12:54:20Z</time>
      </trkpt>
      <trkpt lat="50.61574" lon="1.79676">
        <ele>185.67</ele>
        <time>2014-05-03T12:54:26Z</time>
      </trkpt>
      <trkpt lat="50.61575" lon="1.79692">
        <ele>185.67</ele>
        <time>2014-05-03T12:54:32Z</time>
      </trkpt>
      <trkpt lat="50.61578" lon="1.79709">
        <ele>186.63</ele>
        <time>2014-05-03T12:54:39Z</time>
      </trkpt>
      <trkpt lat="50.6158" lon="1.79724">
        <ele>187.59</ele>
        <time>2014-05-03T12:54:45Z</time>
      </trkpt>
      <trkpt lat="50.61581" lon="1.79739">
        <ele>187.11</ele>
        <time>2014-05-03T12:54:51Z</time>
      </trkpt>
      <trkpt lat="50.61582" lon="1.79755">
        <ele>187.59</ele>
        <time>2014-05-03T12:54:57Z</time>
      </trkpt>
      <trkpt lat="50.61582" lon="1.79772">
        <ele>188.08</ele>
        <time>2014-05-03T12:55:03Z</time>
      </trkpt>
      <trkpt lat="50.61583" lon="1.79788">
        <ele>189.04</ele>
        <time>2014-05-03T12:55:09Z</time>
      </trkpt>
      <trkpt lat="50.61584" lon="1.79804">
        <ele>189.52</ele>
        <time>2014-05-03T12:55:15Z</time>
      </trkpt>
      <trkpt lat="50.61586" lon="1.79819">
        <ele>189.52</ele>
        <time>2014-05-03T12:55:21Z</time>
      </trkpt>
      <trkpt lat="50.61587" lon="1.79837">
        <ele>189.04</ele>
        <time>2014-05-03T12:55:28Z</time>
      </trkpt>
      <trkpt lat="50.61589" lon="1.79855">
        <ele>190</ele>
        <time>2014-05-03T12:55:34Z</time>
      </trkpt>
      <trkpt lat="50.61592" lon="1.79872">
        <ele>188.56</ele>
        <time>2014-05-03T12:55:40Z</time>
      </trkpt>
      <trkpt lat="50.61596" lon="1.7989">
        <ele>189.04</ele>
        <time>2014-05-03T12:55:46Z</time>
      </trkpt>
      <trkpt lat="50.61602" lon="1.79907">
        <ele>189.04</ele>
        <time>2014-05-03T12:55:52Z</time>
      </trkpt>
      <trkpt lat="50.61603" lon="1.79923">
        <ele>188.08</ele>
        <time>2014-05-03T12:55:58Z</time>
      </trkpt>
      <trkpt lat="50.61602" lon="1.79941">
        <ele>188.08</ele>
        <time>2014-05-03T12:56:05Z</time>
      </trkpt>
      <trkpt lat="50.61602" lon="1.79959">
        <ele>186.63</ele>
        <time>2014-05-03T12:56:12Z</time>
      </trkpt>
      <trkpt lat="50.61605" lon="1.79976">
        <ele>186.63</ele>
        <time>2014-05-03T12:56:19Z</time>
      </trkpt>
      <trkpt lat="50.61611" lon="1.79972">
        <ele>187.11</ele>
        <time>2014-05-03T12:56:27Z</time>
      </trkpt>
      <trkpt lat="50.6161" lon="1.79955">
        <ele>187.11</ele>
        <time>2014-05-03T12:56:34Z</time>
      </trkpt>
      <trkpt lat="50.61609" lon="1.79939">
        <ele>187.59</ele>
        <time>2014-05-03T12:56:41Z</time>
      </trkpt>
      <trkpt lat="50.6161" lon="1.79951">
        <ele>185.67</ele>
        <time>2014-05-03T12:56:54Z</time>
      </trkpt>
      <trkpt lat="50.61611" lon="1.79967">
        <ele>186.63</ele>
        <time>2014-05-03T12:57:00Z</time>
      </trkpt>
      <trkpt lat="50.61611" lon="1.79981">
        <ele>186.15</ele>
        <time>2014-05-03T12:57:05Z</time>
      </trkpt>
      <trkpt lat="50.6161" lon="1.79998">
        <ele>185.19</ele>
        <time>2014-05-03T12:57:11Z</time>
      </trkpt>
      <trkpt lat="50.61612" lon="1.80015">
        <ele>184.23</ele>
        <time>2014-05-03T12:57:17Z</time>
      </trkpt>
      <trkpt lat="50.61615" lon="1.80031">
        <ele>183.75</ele>
        <time>2014-05-03T12:57:23Z</time>
      </trkpt>
      <trkpt lat="50.61618" lon="1.80047">
        <ele>182.31</ele>
        <time>2014-05-03T12:57:30Z</time>
      </trkpt>
      <trkpt lat="50.61622" lon="1.80064">
        <ele>181.83</ele>
        <time>2014-05-03T12:57:37Z</time>
      </trkpt>
      <trkpt lat="50.61623" lon="1.80083">
        <ele>182.31</ele>
        <time>2014-05-03T12:57:45Z</time>
      </trkpt>
      <trkpt lat="50.61626" lon="1.80102">
        <ele>181.35</ele>
        <time>2014-05-03T12:57:52Z</time>
      </trkpt>
      <trkpt lat="50.61626" lon="1.8012">
        <ele>180.38</ele>
        <time>2014-05-03T12:57:59Z</time>
      </trkpt>
      <trkpt lat="50.6163" lon="1.80137">
        <ele>180.38</ele>
        <time>2014-05-03T12:58:06Z</time>
      </trkpt>
      <trkpt lat="50.61633" lon="1.80157">
        <ele>179.9</ele>
        <time>2014-05-03T12:58:14Z</time>
      </trkpt>
      <trkpt lat="50.61637" lon="1.80177">
        <ele>179.9</ele>
        <time>2014-05-03T12:58:21Z</time>
      </trkpt>
      <trkpt lat="50.61644" lon="1.8019">
        <ele>179.9</ele>
        <time>2014-05-03T12:58:30Z</time>
      </trkpt>
      <trkpt lat="50.61652" lon="1.80202">
        <ele>178.94</ele>
        <time>2014-05-03T12:58:37Z</time>
      </trkpt>
      <trkpt lat="50.6166" lon="1.8021">
        <ele>177.5</ele>
        <time>2014-05-03T12:58:44Z</time>
      </trkpt>
      <trkpt lat="50.61669" lon="1.80217">
        <ele>175.58</ele>
        <time>2014-05-03T12:58:50Z</time>
      </trkpt>
      <trkpt lat="50.61677" lon="1.80224">
        <ele>175.58</ele>
        <time>2014-05-03T12:58:55Z</time>
      </trkpt>
      <trkpt lat="50.61686" lon="1.80231">
        <ele>175.1</ele>
        <time>2014-05-03T12:59:00Z</time>
      </trkpt>
      <trkpt lat="50.61694" lon="1.80239">
        <ele>174.62</ele>
        <time>2014-05-03T12:59:06Z</time>
      </trkpt>
      <trkpt lat="50.61692" lon="1.80238">
        <ele>175.58</ele>
        <time>2014-05-03T12:59:33Z</time>
      </trkpt>
      <trkpt lat="50.61685" lon="1.8023">
        <ele>176.54</ele>
        <time>2014-05-03T12:59:39Z</time>
      </trkpt>
      <trkpt lat="50.61676" lon="1.80221">
        <ele>177.02</ele>
        <time>2014-05-03T12:59:45Z</time>
      </trkpt>
      <trkpt lat="50.61666" lon="1.80214">
        <ele>178.46</ele>
        <time>2014-05-03T12:59:51Z</time>
      </trkpt>
      <trkpt lat="50.61657" lon="1.80206">
        <ele>179.42</ele>
        <time>2014-05-03T12:59:57Z</time>
      </trkpt>
      <trkpt lat="50.61648" lon="1.80199">
        <ele>179.9</ele>
        <time>2014-05-03T13:00:03Z</time>
      </trkpt>
      <trkpt lat="50.61639" lon="1.80199">
        <ele>179.9</ele>
        <time>2014-05-03T13:00:10Z</time>
      </trkpt>
      <trkpt lat="50.61639" lon="1.80217">
        <ele>178.94</ele>
        <time>2014-05-03T13:00:17Z</time>
      </trkpt>
      <trkpt lat="50.6164" lon="1.80235">
        <ele>179.42</ele>
        <time>2014-05-03T13:00:23Z</time>
      </trkpt>
      <trkpt lat="50.61639" lon="1.80254">
        <ele>179.42</ele>
        <time>2014-05-03T13:00:30Z</time>
      </trkpt>
      <trkpt lat="50.61639" lon="1.80271">
        <ele>178.94</ele>
        <time>2014-05-03T13:00:37Z</time>
      </trkpt>
      <trkpt lat="50.61638" lon="1.80287">
        <ele>178.94</ele>
        <time>2014-05-03T13:00:43Z</time>
      </trkpt>
      <trkpt lat="50.61638" lon="1.80302">
        <ele>178.94</ele>
        <time>2014-05-03T13:00:49Z</time>
      </trkpt>
      <trkpt lat="50.61639" lon="1.8032">
        <ele>178.94</ele>
        <time>2014-05-03T13:00:56Z</time>
      </trkpt>
      <trkpt lat="50.61639" lon="1.80338">
        <ele>179.42</ele>
        <time>2014-05-03T13:01:03Z</time>
      </trkpt>
      <trkpt lat="50.61639" lon="1.80355">
        <ele>178.94</ele>
        <time>2014-05-03T13:01:09Z</time>
      </trkpt>
      <trkpt lat="50.61636" lon="1.8037">
        <ele>179.9</ele>
        <time>2014-05-03T13:01:15Z</time>
      </trkpt>
      <trkpt lat="50.61633" lon="1.80386">
        <ele>180.38</ele>
        <time>2014-05-03T13:01:21Z</time>
      </trkpt>
      <trkpt lat="50.61629" lon="1.80401">
        <ele>181.83</ele>
        <time>2014-05-03T13:01:27Z</time>
      </trkpt>
      <trkpt lat="50.61625" lon="1.80416">
        <ele>181.83</ele>
        <time>2014-05-03T13:01:33Z</time>
      </trkpt>
      <trkpt lat="50.61621" lon="1.80429">
        <ele>181.83</ele>
        <time>2014-05-03T13:01:38Z</time>
      </trkpt>
      <trkpt lat="50.61617" lon="1.80445">
        <ele>181.83</ele>
        <time>2014-05-03T13:01:44Z</time>
      </trkpt>
      <trkpt lat="50.61614" lon="1.8046">
        <ele>181.83</ele>
        <time>2014-05-03T13:01:50Z</time>
      </trkpt>
      <trkpt lat="50.61609" lon="1.80475">
        <ele>182.31</ele>
        <time>2014-05-03T13:01:56Z</time>
      </trkpt>
      <trkpt lat="50.61606" lon="1.8049">
        <ele>182.31</ele>
        <time>2014-05-03T13:02:02Z</time>
      </trkpt>
      <trkpt lat="50.61602" lon="1.80504">
        <ele>182.79</ele>
        <time>2014-05-03T13:02:08Z</time>
      </trkpt>
      <trkpt lat="50.61599" lon="1.8052">
        <ele>182.79</ele>
        <time>2014-05-03T13:02:14Z</time>
      </trkpt>
      <trkpt lat="50.61596" lon="1.80536">
        <ele>183.75</ele>
        <time>2014-05-03T13:02:20Z</time>
      </trkpt>
      <trkpt lat="50.61593" lon="1.80552">
        <ele>183.27</ele>
        <time>2014-05-03T13:02:26Z</time>
      </trkpt>
      <trkpt lat="50.61591" lon="1.80568">
        <ele>182.79</ele>
        <time>2014-05-03T13:02:32Z</time>
      </trkpt>
      <trkpt lat="50.61589" lon="1.80585">
        <ele>181.35</ele>
        <time>2014-05-03T13:02:38Z</time>
      </trkpt>
      <trkpt lat="50.61587" lon="1.80601">
        <ele>182.31</ele>
        <time>2014-05-03T13:02:44Z</time>
      </trkpt>
      <trkpt lat="50.61585" lon="1.80619">
        <ele>182.79</ele>
        <time>2014-05-03T13:02:50Z</time>
      </trkpt>
      <trkpt lat="50.61583" lon="1.80635">
        <ele>181.83</ele>
        <time>2014-05-03T13:02:56Z</time>
      </trkpt>
      <trkpt lat="50.6158" lon="1.80653">
        <ele>181.35</ele>
        <time>2014-05-03T13:03:02Z</time>
      </trkpt>
      <trkpt lat="50.61577" lon="1.80667">
        <ele>180.87</ele>
        <time>2014-05-03T13:03:07Z</time>
      </trkpt>
      <trkpt lat="50.61573" lon="1.80681">
        <ele>179.9</ele>
        <time>2014-05-03T13:03:12Z</time>
      </trkpt>
      <trkpt lat="50.6157" lon="1.80696">
        <ele>179.42</ele>
        <time>2014-05-03T13:03:17Z</time>
      </trkpt>
      <trkpt lat="50.61567" lon="1.80711">
        <ele>179.42</ele>
        <time>2014-05-03T13:03:23Z</time>
      </trkpt>
      <trkpt lat="50.61562" lon="1.80727">
        <ele>179.42</ele>
        <time>2014-05-03T13:03:30Z</time>
      </trkpt>
      <trkpt lat="50.61559" lon="1.80745">
        <ele>177.98</ele>
        <time>2014-05-03T13:03:37Z</time>
      </trkpt>
      <trkpt lat="50.61556" lon="1.80759">
        <ele>177.98</ele>
        <time>2014-05-03T13:03:42Z</time>
      </trkpt>
      <trkpt lat="50.61552" lon="1.80773">
        <ele>177.98</ele>
        <time>2014-05-03T13:03:48Z</time>
      </trkpt>
      <trkpt lat="50.61548" lon="1.8079">
        <ele>177.98</ele>
        <time>2014-05-03T13:03:55Z</time>
      </trkpt>
      <trkpt lat="50.61544" lon="1.80805">
        <ele>177.98</ele>
        <time>2014-05-03T13:04:01Z</time>
      </trkpt>
      <trkpt lat="50.6154" lon="1.8082">
        <ele>177.98</ele>
        <time>2014-05-03T13:04:07Z</time>
      </trkpt>
      <trkpt lat="50.61535" lon="1.80836">
        <ele>179.42</ele>
        <time>2014-05-03T13:04:14Z</time>
      </trkpt>
      <trkpt lat="50.6153" lon="1.80854">
        <ele>178.94</ele>
        <time>2014-05-03T13:04:22Z</time>
      </trkpt>
      <trkpt lat="50.61525" lon="1.80872">
        <ele>179.42</ele>
        <time>2014-05-03T13:04:30Z</time>
      </trkpt>
      <trkpt lat="50.61518" lon="1.80885">
        <ele>179.9</ele>
        <time>2014-05-03T13:04:36Z</time>
      </trkpt>
      <trkpt lat="50.61513" lon="1.80899">
        <ele>180.38</ele>
        <time>2014-05-03T13:04:42Z</time>
      </trkpt>
      <trkpt lat="50.61511" lon="1.80918">
        <ele>179.9</ele>
        <time>2014-05-03T13:04:48Z</time>
      </trkpt>
      <trkpt lat="50.6151" lon="1.80937">
        <ele>179.42</ele>
        <time>2014-05-03T13:04:54Z</time>
      </trkpt>
      <trkpt lat="50.61509" lon="1.80955">
        <ele>178.46</ele>
        <time>2014-05-03T13:05:00Z</time>
      </trkpt>
      <trkpt lat="50.61508" lon="1.80973">
        <ele>178.46</ele>
        <time>2014-05-03T13:05:06Z</time>
      </trkpt>
      <trkpt lat="50.61507" lon="1.80989">
        <ele>178.46</ele>
        <time>2014-05-03T13:05:12Z</time>
      </trkpt>
      <trkpt lat="50.61506" lon="1.81007">
        <ele>177.5</ele>
        <time>2014-05-03T13:05:18Z</time>
      </trkpt>
      <trkpt lat="50.61504" lon="1.81025">
        <ele>178.46</ele>
        <time>2014-05-03T13:05:24Z</time>
      </trkpt>
      <trkpt lat="50.61503" lon="1.8104">
        <ele>177.5</ele>
        <time>2014-05-03T13:05:29Z</time>
      </trkpt>
      <trkpt lat="50.61501" lon="1.81055">
        <ele>177.98</ele>
        <time>2014-05-03T13:05:34Z</time>
      </trkpt>
      <trkpt lat="50.61498" lon="1.81072">
        <ele>178.46</ele>
        <time>2014-05-03T13:05:40Z</time>
      </trkpt>
      <trkpt lat="50.61496" lon="1.81089">
        <ele>177.5</ele>
        <time>2014-05-03T13:05:46Z</time>
      </trkpt>
      <trkpt lat="50.61494" lon="1.81106">
        <ele>177.5</ele>
        <time>2014-05-03T13:05:52Z</time>
      </trkpt>
      <trkpt lat="50.61491" lon="1.81124">
        <ele>176.54</ele>
        <time>2014-05-03T13:05:58Z</time>
      </trkpt>
      <trkpt lat="50.61489" lon="1.8114">
        <ele>176.54</ele>
        <time>2014-05-03T13:06:03Z</time>
      </trkpt>
      <trkpt lat="50.61487" lon="1.81155">
        <ele>176.06</ele>
        <time>2014-05-03T13:06:08Z</time>
      </trkpt>
      <trkpt lat="50.61485" lon="1.81172">
        <ele>175.58</ele>
        <time>2014-05-03T13:06:14Z</time>
      </trkpt>
      <trkpt lat="50.61482" lon="1.81189">
        <ele>175.1</ele>
        <time>2014-05-03T13:06:20Z</time>
      </trkpt>
      <trkpt lat="50.61477" lon="1.81206">
        <ele>175.1</ele>
        <time>2014-05-03T13:06:26Z</time>
      </trkpt>
      <trkpt lat="50.61474" lon="1.81226">
        <ele>174.14</ele>
        <time>2014-05-03T13:06:32Z</time>
      </trkpt>
      <trkpt lat="50.61471" lon="1.81244">
        <ele>174.14</ele>
        <time>2014-05-03T13:06:39Z</time>
      </trkpt>
      <trkpt lat="50.61468" lon="1.81262">
        <ele>174.62</ele>
        <time>2014-05-03T13:06:45Z</time>
      </trkpt>
      <trkpt lat="50.61466" lon="1.81281">
        <ele>174.62</ele>
        <time>2014-05-03T13:06:52Z</time>
      </trkpt>
      <trkpt lat="50.61463" lon="1.813">
        <ele>174.14</ele>
        <time>2014-05-03T13:06:58Z</time>
      </trkpt>
      <trkpt lat="50.61461" lon="1.81317">
        <ele>174.14</ele>
        <time>2014-05-03T13:07:06Z</time>
      </trkpt>
      <trkpt lat="50.61459" lon="1.81337">
        <ele>172.69</ele>
        <time>2014-05-03T13:07:13Z</time>
      </trkpt>
      <trkpt lat="50.61458" lon="1.81359">
        <ele>173.66</ele>
        <time>2014-05-03T13:07:21Z</time>
      </trkpt>
      <trkpt lat="50.61459" lon="1.81379">
        <ele>173.17</ele>
        <time>2014-05-03T13:07:28Z</time>
      </trkpt>
      <trkpt lat="50.61459" lon="1.81396">
        <ele>173.66</ele>
        <time>2014-05-03T13:07:35Z</time>
      </trkpt>
      <trkpt lat="50.61458" lon="1.81417">
        <ele>173.17</ele>
        <time>2014-05-03T13:07:42Z</time>
      </trkpt>
      <trkpt lat="50.61459" lon="1.81437">
        <ele>172.69</ele>
        <time>2014-05-03T13:07:48Z</time>
      </trkpt>
      <trkpt lat="50.61457" lon="1.81456">
        <ele>172.69</ele>
        <time>2014-05-03T13:07:54Z</time>
      </trkpt>
      <trkpt lat="50.61454" lon="1.81473">
        <ele>171.73</ele>
        <time>2014-05-03T13:08:00Z</time>
      </trkpt>
      <trkpt lat="50.61453" lon="1.8149">
        <ele>171.25</ele>
        <time>2014-05-03T13:08:05Z</time>
      </trkpt>
      <trkpt lat="50.61453" lon="1.81507">
        <ele>169.81</ele>
        <time>2014-05-03T13:08:11Z</time>
      </trkpt>
      <trkpt lat="50.61452" lon="1.81524">
        <ele>168.85</ele>
        <time>2014-05-03T13:08:17Z</time>
      </trkpt>
      <trkpt lat="50.61454" lon="1.81539">
        <ele>167.41</ele>
        <time>2014-05-03T13:08:23Z</time>
      </trkpt>
      <trkpt lat="50.61456" lon="1.81559">
        <ele>166.93</ele>
        <time>2014-05-03T13:08:30Z</time>
      </trkpt>
      <trkpt lat="50.61459" lon="1.81577">
        <ele>165.96</ele>
        <time>2014-05-03T13:08:36Z</time>
      </trkpt>
      <trkpt lat="50.61464" lon="1.81594">
        <ele>165.96</ele>
        <time>2014-05-03T13:08:42Z</time>
      </trkpt>
      <trkpt lat="50.6147" lon="1.81612">
        <ele>165</ele>
        <time>2014-05-03T13:08:48Z</time>
      </trkpt>
      <trkpt lat="50.61477" lon="1.81629">
        <ele>163.56</ele>
        <time>2014-05-03T13:08:55Z</time>
      </trkpt>
      <trkpt lat="50.61482" lon="1.8165">
        <ele>164.52</ele>
        <time>2014-05-03T13:09:02Z</time>
      </trkpt>
      <trkpt lat="50.61486" lon="1.8167">
        <ele>162.12</ele>
        <time>2014-05-03T13:09:09Z</time>
      </trkpt>
      <trkpt lat="50.61489" lon="1.81688">
        <ele>161.16</ele>
        <time>2014-05-03T13:09:14Z</time>
      </trkpt>
      <trkpt lat="50.61493" lon="1.81706">
        <ele>161.16</ele>
        <time>2014-05-03T13:09:19Z</time>
      </trkpt>
      <trkpt lat="50.61498" lon="1.81722">
        <ele>160.2</ele>
        <time>2014-05-03T13:09:24Z</time>
      </trkpt>
      <trkpt lat="50.61499" lon="1.81739">
        <ele>159.72</ele>
        <time>2014-05-03T13:09:29Z</time>
      </trkpt>
      <trkpt lat="50.61501" lon="1.81761">
        <ele>158.27</ele>
        <time>2014-05-03T13:09:35Z</time>
      </trkpt>
      <trkpt lat="50.61503" lon="1.81777">
        <ele>157.31</ele>
        <time>2014-05-03T13:09:40Z</time>
      </trkpt>
      <trkpt lat="50.61507" lon="1.81794">
        <ele>156.83</ele>
        <time>2014-05-03T13:09:46Z</time>
      </trkpt>
      <trkpt lat="50.61512" lon="1.81808">
        <ele>155.39</ele>
        <time>2014-05-03T13:09:52Z</time>
      </trkpt>
      <trkpt lat="50.61518" lon="1.81821">
        <ele>154.91</ele>
        <time>2014-05-03T13:09:57Z</time>
      </trkpt>
      <trkpt lat="50.61524" lon="1.81834">
        <ele>153.47</ele>
        <time>2014-05-03T13:10:02Z</time>
      </trkpt>
      <trkpt lat="50.61533" lon="1.81845">
        <ele>152.51</ele>
        <time>2014-05-03T13:10:08Z</time>
      </trkpt>
      <trkpt lat="50.61541" lon="1.81858">
        <ele>150.1</ele>
        <time>2014-05-03T13:10:13Z</time>
      </trkpt>
      <trkpt lat="50.61548" lon="1.81869">
        <ele>149.62</ele>
        <time>2014-05-03T13:10:18Z</time>
      </trkpt>
      <trkpt lat="50.61555" lon="1.81882">
        <ele>148.18</ele>
        <time>2014-05-03T13:10:24Z</time>
      </trkpt>
      <trkpt lat="50.61565" lon="1.81895">
        <ele>146.74</ele>
        <time>2014-05-03T13:10:30Z</time>
      </trkpt>
      <trkpt lat="50.61572" lon="1.81906">
        <ele>145.78</ele>
        <time>2014-05-03T13:10:35Z</time>
      </trkpt>
      <trkpt lat="50.61578" lon="1.8192">
        <ele>144.34</ele>
        <time>2014-05-03T13:10:41Z</time>
      </trkpt>
      <trkpt lat="50.61585" lon="1.81934">
        <ele>143.37</ele>
        <time>2014-05-03T13:10:47Z</time>
      </trkpt>
      <trkpt lat="50.61592" lon="1.81948">
        <ele>142.41</ele>
        <time>2014-05-03T13:10:53Z</time>
      </trkpt>
      <trkpt lat="50.61598" lon="1.81964">
        <ele>140.97</ele>
        <time>2014-05-03T13:11:00Z</time>
      </trkpt>
      <trkpt lat="50.61604" lon="1.81978">
        <ele>139.53</ele>
        <time>2014-05-03T13:11:06Z</time>
      </trkpt>
      <trkpt lat="50.61609" lon="1.81993">
        <ele>138.09</ele>
        <time>2014-05-03T13:11:12Z</time>
      </trkpt>
      <trkpt lat="50.61614" lon="1.82006">
        <ele>137.13</ele>
        <time>2014-05-03T13:11:17Z</time>
      </trkpt>
      <trkpt lat="50.61619" lon="1.82021">
        <ele>136.16</ele>
        <time>2014-05-03T13:11:23Z</time>
      </trkpt>
      <trkpt lat="50.61623" lon="1.82035">
        <ele>135.68</ele>
        <time>2014-05-03T13:11:28Z</time>
      </trkpt>
      <trkpt lat="50.61625" lon="1.8205">
        <ele>135.2</ele>
        <time>2014-05-03T13:11:33Z</time>
      </trkpt>
      <trkpt lat="50.61629" lon="1.82067">
        <ele>134.24</ele>
        <time>2014-05-03T13:11:39Z</time>
      </trkpt>
      <trkpt lat="50.61631" lon="1.82082">
        <ele>133.28</ele>
        <time>2014-05-03T13:11:45Z</time>
      </trkpt>
      <trkpt lat="50.61635" lon="1.82099">
        <ele>131.36</ele>
        <time>2014-05-03T13:11:51Z</time>
      </trkpt>
      <trkpt lat="50.61638" lon="1.82115">
        <ele>131.84</ele>
        <time>2014-05-03T13:11:57Z</time>
      </trkpt>
      <trkpt lat="50.6164" lon="1.82129">
        <ele>131.36</ele>
        <time>2014-05-03T13:12:02Z</time>
      </trkpt>
      <trkpt lat="50.61643" lon="1.82145">
        <ele>130.88</ele>
        <time>2014-05-03T13:12:08Z</time>
      </trkpt>
      <trkpt lat="50.61646" lon="1.82162">
        <ele>130.4</ele>
        <time>2014-05-03T13:12:14Z</time>
      </trkpt>
      <trkpt lat="50.61648" lon="1.82179">
        <ele>129.92</ele>
        <time>2014-05-03T13:12:20Z</time>
      </trkpt>
      <trkpt lat="50.61649" lon="1.82195">
        <ele>129.43</ele>
        <time>2014-05-03T13:12:26Z</time>
      </trkpt>
      <trkpt lat="50.61651" lon="1.82213">
        <ele>128.95</ele>
        <time>2014-05-03T13:12:32Z</time>
      </trkpt>
      <trkpt lat="50.61652" lon="1.82228">
        <ele>128.47</ele>
        <time>2014-05-03T13:12:37Z</time>
      </trkpt>
      <trkpt lat="50.61652" lon="1.82245">
        <ele>127.51</ele>
        <time>2014-05-03T13:12:43Z</time>
      </trkpt>
      <trkpt lat="50.61653" lon="1.82262">
        <ele>126.55</ele>
        <time>2014-05-03T13:12:49Z</time>
      </trkpt>
      <trkpt lat="50.61653" lon="1.82277">
        <ele>126.55</ele>
        <time>2014-05-03T13:12:54Z</time>
      </trkpt>
      <trkpt lat="50.61652" lon="1.82292">
        <ele>125.11</ele>
        <time>2014-05-03T13:12:59Z</time>
      </trkpt>
      <trkpt lat="50.61653" lon="1.82306">
        <ele>125.11</ele>
        <time>2014-05-03T13:13:04Z</time>
      </trkpt>
      <trkpt lat="50.61652" lon="1.82321">
        <ele>125.11</ele>
        <time>2014-05-03T13:13:09Z</time>
      </trkpt>
      <trkpt lat="50.61651" lon="1.82335">
        <ele>124.15</ele>
        <time>2014-05-03T13:13:14Z</time>
      </trkpt>
      <trkpt lat="50.61649" lon="1.82349">
        <ele>123.67</ele>
        <time>2014-05-03T13:13:19Z</time>
      </trkpt>
      <trkpt lat="50.61646" lon="1.82364">
        <ele>123.19</ele>
        <time>2014-05-03T13:13:25Z</time>
      </trkpt>
      <trkpt lat="50.61643" lon="1.8238">
        <ele>123.19</ele>
        <time>2014-05-03T13:13:31Z</time>
      </trkpt>
      <trkpt lat="50.61638" lon="1.82393">
        <ele>122.71</ele>
        <time>2014-05-03T13:13:36Z</time>
      </trkpt>
      <trkpt lat="50.61635" lon="1.82407">
        <ele>121.74</ele>
        <time>2014-05-03T13:13:41Z</time>
      </trkpt>
      <trkpt lat="50.6163" lon="1.8242">
        <ele>120.78</ele>
        <time>2014-05-03T13:13:46Z</time>
      </trkpt>
      <trkpt lat="50.61626" lon="1.82432">
        <ele>120.3</ele>
        <time>2014-05-03T13:13:51Z</time>
      </trkpt>
      <trkpt lat="50.6162" lon="1.82444">
        <ele>119.34</ele>
        <time>2014-05-03T13:13:57Z</time>
      </trkpt>
      <trkpt lat="50.61615" lon="1.82456">
        <ele>117.9</ele>
        <time>2014-05-03T13:14:03Z</time>
      </trkpt>
      <trkpt lat="50.61608" lon="1.82466">
        <ele>116.46</ele>
        <time>2014-05-03T13:14:09Z</time>
      </trkpt>
      <trkpt lat="50.61601" lon="1.82477">
        <ele>114.53</ele>
        <time>2014-05-03T13:14:15Z</time>
      </trkpt>
      <trkpt lat="50.61593" lon="1.82487">
        <ele>112.61</ele>
        <time>2014-05-03T13:14:21Z</time>
      </trkpt>
      <trkpt lat="50.61586" lon="1.82497">
        <ele>111.17</ele>
        <time>2014-05-03T13:14:27Z</time>
      </trkpt>
      <trkpt lat="50.61578" lon="1.82504">
        <ele>109.73</ele>
        <time>2014-05-03T13:14:33Z</time>
      </trkpt>
      <trkpt lat="50.61569" lon="1.82514">
        <ele>108.77</ele>
        <time>2014-05-03T13:14:39Z</time>
      </trkpt>
      <trkpt lat="50.61561" lon="1.82523">
        <ele>106.84</ele>
        <time>2014-05-03T13:14:45Z</time>
      </trkpt>
      <trkpt lat="50.61552" lon="1.82533">
        <ele>106.36</ele>
        <time>2014-05-03T13:14:51Z</time>
      </trkpt>
      <trkpt lat="50.61546" lon="1.82546">
        <ele>104.92</ele>
        <time>2014-05-03T13:14:57Z</time>
      </trkpt>
      <trkpt lat="50.61541" lon="1.82558">
        <ele>104.44</ele>
        <time>2014-05-03T13:15:03Z</time>
      </trkpt>
      <trkpt lat="50.61537" lon="1.82544">
        <ele>105.4</ele>
        <time>2014-05-03T13:15:13Z</time>
      </trkpt>
      <trkpt lat="50.6154" lon="1.82559">
        <ele>104.44</ele>
        <time>2014-05-03T13:16:00Z</time>
      </trkpt>
      <trkpt lat="50.6154" lon="1.82577">
        <ele>103.48</ele>
        <time>2014-05-03T13:16:06Z</time>
      </trkpt>
      <trkpt lat="50.61536" lon="1.82592">
        <ele>103</ele>
        <time>2014-05-03T13:16:12Z</time>
      </trkpt>
      <trkpt lat="50.61534" lon="1.82608">
        <ele>102.04</ele>
        <time>2014-05-03T13:16:19Z</time>
      </trkpt>
      <trkpt lat="50.61533" lon="1.82626">
        <ele>101.56</ele>
        <time>2014-05-03T13:16:28Z</time>
      </trkpt>
      <trkpt lat="50.6153" lon="1.82647">
        <ele>100.6</ele>
        <time>2014-05-03T13:16:36Z</time>
      </trkpt>
      <trkpt lat="50.6153" lon="1.82667">
        <ele>99.63</ele>
        <time>2014-05-03T13:16:43Z</time>
      </trkpt>
      <trkpt lat="50.61528" lon="1.82686">
        <ele>98.67</ele>
        <time>2014-05-03T13:16:49Z</time>
      </trkpt>
      <trkpt lat="50.61525" lon="1.82706">
        <ele>97.71</ele>
        <time>2014-05-03T13:16:56Z</time>
      </trkpt>
      <trkpt lat="50.61521" lon="1.82724">
        <ele>96.75</ele>
        <time>2014-05-03T13:17:03Z</time>
      </trkpt>
      <trkpt lat="50.61517" lon="1.82742">
        <ele>96.75</ele>
        <time>2014-05-03T13:17:10Z</time>
      </trkpt>
      <trkpt lat="50.61515" lon="1.8276">
        <ele>95.31</ele>
        <time>2014-05-03T13:17:17Z</time>
      </trkpt>
      <trkpt lat="50.61513" lon="1.82782">
        <ele>94.35</ele>
        <time>2014-05-03T13:17:25Z</time>
      </trkpt>
      <trkpt lat="50.61513" lon="1.82803">
        <ele>93.87</ele>
        <time>2014-05-03T13:17:32Z</time>
      </trkpt>
      <trkpt lat="50.61505" lon="1.82818">
        <ele>92.9</ele>
        <time>2014-05-03T13:17:38Z</time>
      </trkpt>
      <trkpt lat="50.61496" lon="1.82825">
        <ele>91.94</ele>
        <time>2014-05-03T13:17:43Z</time>
      </trkpt>
      <trkpt lat="50.61486" lon="1.8283">
        <ele>91.94</ele>
        <time>2014-05-03T13:17:48Z</time>
      </trkpt>
      <trkpt lat="50.61477" lon="1.82832">
        <ele>91.46</ele>
        <time>2014-05-03T13:17:54Z</time>
      </trkpt>
      <trkpt lat="50.61469" lon="1.82839">
        <ele>90.5</ele>
        <time>2014-05-03T13:17:59Z</time>
      </trkpt>
      <trkpt lat="50.61461" lon="1.8285">
        <ele>90.5</ele>
        <time>2014-05-03T13:18:04Z</time>
      </trkpt>
      <trkpt lat="50.61454" lon="1.82862">
        <ele>90.02</ele>
        <time>2014-05-03T13:18:09Z</time>
      </trkpt>
      <trkpt lat="50.61447" lon="1.82874">
        <ele>90.02</ele>
        <time>2014-05-03T13:18:14Z</time>
      </trkpt>
      <trkpt lat="50.61441" lon="1.82887">
        <ele>89.54</ele>
        <time>2014-05-03T13:18:19Z</time>
      </trkpt>
      <trkpt lat="50.61435" lon="1.829">
        <ele>89.06</ele>
        <time>2014-05-03T13:18:24Z</time>
      </trkpt>
      <trkpt lat="50.6143" lon="1.82913">
        <ele>88.58</ele>
        <time>2014-05-03T13:18:29Z</time>
      </trkpt>
      <trkpt lat="50.61423" lon="1.82926">
        <ele>88.1</ele>
        <time>2014-05-03T13:18:34Z</time>
      </trkpt>
      <trkpt lat="50.61417" lon="1.82939">
        <ele>87.62</ele>
        <time>2014-05-03T13:18:39Z</time>
      </trkpt>
      <trkpt lat="50.61411" lon="1.82951">
        <ele>87.62</ele>
        <time>2014-05-03T13:18:44Z</time>
      </trkpt>
      <trkpt lat="50.61404" lon="1.82963">
        <ele>87.14</ele>
        <time>2014-05-03T13:18:49Z</time>
      </trkpt>
      <trkpt lat="50.61398" lon="1.82976">
        <ele>86.18</ele>
        <time>2014-05-03T13:18:54Z</time>
      </trkpt>
      <trkpt lat="50.61395" lon="1.82989">
        <ele>86.66</ele>
        <time>2014-05-03T13:18:59Z</time>
      </trkpt>
      <trkpt lat="50.61388" lon="1.82999">
        <ele>86.66</ele>
        <time>2014-05-03T13:19:18Z</time>
      </trkpt>
      <trkpt lat="50.61383" lon="1.8301">
        <ele>86.18</ele>
        <time>2014-05-03T13:19:52Z</time>
      </trkpt>
      <trkpt lat="50.61376" lon="1.83022">
        <ele>85.69</ele>
        <time>2014-05-03T13:20:04Z</time>
      </trkpt>
      <trkpt lat="50.61369" lon="1.83034">
        <ele>85.21</ele>
        <time>2014-05-03T13:20:11Z</time>
      </trkpt>
      <trkpt lat="50.61361" lon="1.83045">
        <ele>84.73</ele>
        <time>2014-05-03T13:20:18Z</time>
      </trkpt>
      <trkpt lat="50.61355" lon="1.83055">
        <ele>85.21</ele>
        <time>2014-05-03T13:20:24Z</time>
      </trkpt>
      <trkpt lat="50.61345" lon="1.83051">
        <ele>85.21</ele>
        <time>2014-05-03T13:20:31Z</time>
      </trkpt>
      <trkpt lat="50.61336" lon="1.83044">
        <ele>84.73</ele>
        <time>2014-05-03T13:20:37Z</time>
      </trkpt>
      <trkpt lat="50.61326" lon="1.83041">
        <ele>84.25</ele>
        <time>2014-05-03T13:20:44Z</time>
      </trkpt>
      <trkpt lat="50.61317" lon="1.83039">
        <ele>84.25</ele>
        <time>2014-05-03T13:20:50Z</time>
      </trkpt>
      <trkpt lat="50.61308" lon="1.83036">
        <ele>83.77</ele>
        <time>2014-05-03T13:20:56Z</time>
      </trkpt>
      <trkpt lat="50.61297" lon="1.83034">
        <ele>83.77</ele>
        <time>2014-05-03T13:21:02Z</time>
      </trkpt>
      <trkpt lat="50.61288" lon="1.83033">
        <ele>83.77</ele>
        <time>2014-05-03T13:21:09Z</time>
      </trkpt>
      <trkpt lat="50.61277" lon="1.83032">
        <ele>83.77</ele>
        <time>2014-05-03T13:21:17Z</time>
      </trkpt>
      <trkpt lat="50.61266" lon="1.83031">
        <ele>83.29</ele>
        <time>2014-05-03T13:21:24Z</time>
      </trkpt>
      <trkpt lat="50.61255" lon="1.83027">
        <ele>83.77</ele>
        <time>2014-05-03T13:21:31Z</time>
      </trkpt>
      <trkpt lat="50.61245" lon="1.83023">
        <ele>83.77</ele>
        <time>2014-05-03T13:21:37Z</time>
      </trkpt>
      <trkpt lat="50.61235" lon="1.8302">
        <ele>83.77</ele>
        <time>2014-05-03T13:21:43Z</time>
      </trkpt>
      <trkpt lat="50.61225" lon="1.83014">
        <ele>83.29</ele>
        <time>2014-05-03T13:21:49Z</time>
      </trkpt>
      <trkpt lat="50.61215" lon="1.83009">
        <ele>82.81</ele>
        <time>2014-05-03T13:21:55Z</time>
      </trkpt>
      <trkpt lat="50.61204" lon="1.83001">
        <ele>83.29</ele>
        <time>2014-05-03T13:22:03Z</time>
      </trkpt>
      <trkpt lat="50.61194" lon="1.82997">
        <ele>83.77</ele>
        <time>2014-05-03T13:22:12Z</time>
      </trkpt>
      <trkpt lat="50.61185" lon="1.83">
        <ele>83.29</ele>
        <time>2014-05-03T13:22:28Z</time>
      </trkpt>
      <trkpt lat="50.61181" lon="1.82998">
        <ele>83.29</ele>
        <time>2014-05-03T13:24:32Z</time>
      </trkpt>
      <trkpt lat="50.61181" lon="1.82987">
        <ele>83.77</ele>
        <time>2014-05-03T13:24:41Z</time>
      </trkpt>
      <trkpt lat="50.61172" lon="1.82979">
        <ele>84.25</ele>
        <time>2014-05-03T13:24:48Z</time>
      </trkpt>
      <trkpt lat="50.61162" lon="1.82978">
        <ele>84.25</ele>
        <time>2014-05-03T13:24:54Z</time>
      </trkpt>
      <trkpt lat="50.61152" lon="1.82976">
        <ele>84.25</ele>
        <time>2014-05-03T13:25:01Z</time>
      </trkpt>
      <trkpt lat="50.61142" lon="1.82974">
        <ele>84.25</ele>
        <time>2014-05-03T13:25:07Z</time>
      </trkpt>
      <trkpt lat="50.61131" lon="1.82968">
        <ele>83.77</ele>
        <time>2014-05-03T13:25:13Z</time>
      </trkpt>
      <trkpt lat="50.61121" lon="1.82963">
        <ele>83.77</ele>
        <time>2014-05-03T13:25:19Z</time>
      </trkpt>
      <trkpt lat="50.6111" lon="1.82964">
        <ele>83.77</ele>
        <time>2014-05-03T13:25:26Z</time>
      </trkpt>
      <trkpt lat="50.61099" lon="1.82967">
        <ele>83.77</ele>
        <time>2014-05-03T13:25:33Z</time>
      </trkpt>
      <trkpt lat="50.61089" lon="1.8297">
        <ele>83.77</ele>
        <time>2014-05-03T13:25:39Z</time>
      </trkpt>
      <trkpt lat="50.61078" lon="1.82976">
        <ele>83.29</ele>
        <time>2014-05-03T13:25:45Z</time>
      </trkpt>
      <trkpt lat="50.61068" lon="1.82981">
        <ele>82.81</ele>
        <time>2014-05-03T13:25:50Z</time>
      </trkpt>
      <trkpt lat="50.61059" lon="1.82985">
        <ele>82.33</ele>
        <time>2014-05-03T13:25:55Z</time>
      </trkpt>
      <trkpt lat="50.6105" lon="1.8299">
        <ele>82.33</ele>
        <time>2014-05-03T13:26:00Z</time>
      </trkpt>
      <trkpt lat="50.61041" lon="1.82994">
        <ele>82.81</ele>
        <time>2014-05-03T13:26:05Z</time>
      </trkpt>
      <trkpt lat="50.61033" lon="1.82999">
        <ele>82.33</ele>
        <time>2014-05-03T13:26:10Z</time>
      </trkpt>
      <trkpt lat="50.61025" lon="1.83004">
        <ele>81.85</ele>
        <time>2014-05-03T13:26:15Z</time>
      </trkpt>
      <trkpt lat="50.61015" lon="1.83008">
        <ele>81.85</ele>
        <time>2014-05-03T13:26:21Z</time>
      </trkpt>
      <trkpt lat="50.61007" lon="1.83011">
        <ele>82.33</ele>
        <time>2014-05-03T13:26:26Z</time>
      </trkpt>
      <trkpt lat="50.60997" lon="1.83013">
        <ele>81.85</ele>
        <time>2014-05-03T13:26:32Z</time>
      </trkpt>
      <trkpt lat="50.60987" lon="1.83013">
        <ele>82.33</ele>
        <time>2014-05-03T13:26:38Z</time>
      </trkpt>
      <trkpt lat="50.60977" lon="1.83013">
        <ele>82.33</ele>
        <time>2014-05-03T13:26:45Z</time>
      </trkpt>
      <trkpt lat="50.60967" lon="1.83011">
        <ele>82.33</ele>
        <time>2014-05-03T13:26:52Z</time>
      </trkpt>
      <trkpt lat="50.60958" lon="1.8301">
        <ele>82.33</ele>
        <time>2014-05-03T13:27:00Z</time>
      </trkpt>
      <trkpt lat="50.60948" lon="1.83008">
        <ele>81.85</ele>
        <time>2014-05-03T13:27:06Z</time>
      </trkpt>
      <trkpt lat="50.60937" lon="1.83007">
        <ele>81.85</ele>
        <time>2014-05-03T13:27:12Z</time>
      </trkpt>
      <trkpt lat="50.60927" lon="1.83005">
        <ele>81.37</ele>
        <time>2014-05-03T13:27:18Z</time>
      </trkpt>
      <trkpt lat="50.60918" lon="1.83004">
        <ele>81.37</ele>
        <time>2014-05-03T13:27:24Z</time>
      </trkpt>
      <trkpt lat="50.60909" lon="1.83004">
        <ele>81.85</ele>
        <time>2014-05-03T13:27:29Z</time>
      </trkpt>
      <trkpt lat="50.60898" lon="1.83004">
        <ele>81.85</ele>
        <time>2014-05-03T13:27:35Z</time>
      </trkpt>
      <trkpt lat="50.60887" lon="1.83004">
        <ele>81.37</ele>
        <time>2014-05-03T13:27:41Z</time>
      </trkpt>
      <trkpt lat="50.60877" lon="1.83006">
        <ele>81.37</ele>
        <time>2014-05-03T13:27:47Z</time>
      </trkpt>
      <trkpt lat="50.60868" lon="1.83014">
        <ele>81.37</ele>
        <time>2014-05-03T13:27:54Z</time>
      </trkpt>
      <trkpt lat="50.6086" lon="1.83025">
        <ele>81.37</ele>
        <time>2014-05-03T13:28:00Z</time>
      </trkpt>
      <trkpt lat="50.60855" lon="1.8304">
        <ele>81.37</ele>
        <time>2014-05-03T13:28:06Z</time>
      </trkpt>
      <trkpt lat="50.60853" lon="1.83056">
        <ele>82.33</ele>
        <time>2014-05-03T13:28:12Z</time>
      </trkpt>
      <trkpt lat="50.60854" lon="1.83074">
        <ele>82.81</ele>
        <time>2014-05-03T13:28:18Z</time>
      </trkpt>
      <trkpt lat="50.60856" lon="1.83091">
        <ele>83.77</ele>
        <time>2014-05-03T13:28:24Z</time>
      </trkpt>
      <trkpt lat="50.60858" lon="1.83108">
        <ele>85.21</ele>
        <time>2014-05-03T13:28:30Z</time>
      </trkpt>
      <trkpt lat="50.6086" lon="1.83124">
        <ele>86.66</ele>
        <time>2014-05-03T13:28:36Z</time>
      </trkpt>
      <trkpt lat="50.60863" lon="1.8314">
        <ele>87.62</ele>
        <time>2014-05-03T13:28:42Z</time>
      </trkpt>
      <trkpt lat="50.60865" lon="1.83155">
        <ele>88.58</ele>
        <time>2014-05-03T13:28:48Z</time>
      </trkpt>
      <trkpt lat="50.60866" lon="1.8317">
        <ele>89.54</ele>
        <time>2014-05-03T13:28:54Z</time>
      </trkpt>
      <trkpt lat="50.60865" lon="1.83186">
        <ele>91.46</ele>
        <time>2014-05-03T13:29:01Z</time>
      </trkpt>
      <trkpt lat="50.60856" lon="1.83194">
        <ele>92.42</ele>
        <time>2014-05-03T13:29:07Z</time>
      </trkpt>
      <trkpt lat="50.60846" lon="1.83199">
        <ele>93.87</ele>
        <time>2014-05-03T13:29:13Z</time>
      </trkpt>
      <trkpt lat="50.60836" lon="1.83202">
        <ele>93.87</ele>
        <time>2014-05-03T13:29:18Z</time>
      </trkpt>
      <trkpt lat="50.60826" lon="1.83204">
        <ele>94.35</ele>
        <time>2014-05-03T13:29:24Z</time>
      </trkpt>
      <trkpt lat="50.60816" lon="1.83205">
        <ele>94.83</ele>
        <time>2014-05-03T13:29:29Z</time>
      </trkpt>
      <trkpt lat="50.60807" lon="1.83207">
        <ele>94.35</ele>
        <time>2014-05-03T13:29:34Z</time>
      </trkpt>
      <trkpt lat="50.60796" lon="1.83208">
        <ele>93.39</ele>
        <time>2014-05-03T13:29:40Z</time>
      </trkpt>
      <trkpt lat="50.60787" lon="1.83209">
        <ele>93.39</ele>
        <time>2014-05-03T13:29:45Z</time>
      </trkpt>
      <trkpt lat="50.60777" lon="1.83211">
        <ele>92.9</ele>
        <time>2014-05-03T13:29:50Z</time>
      </trkpt>
      <trkpt lat="50.60767" lon="1.83211">
        <ele>92.9</ele>
        <time>2014-05-03T13:29:55Z</time>
      </trkpt>
      <trkpt lat="50.60756" lon="1.83213">
        <ele>92.9</ele>
        <time>2014-05-03T13:30:00Z</time>
      </trkpt>
      <trkpt lat="50.60747" lon="1.83213">
        <ele>91.94</ele>
        <time>2014-05-03T13:30:05Z</time>
      </trkpt>
      <trkpt lat="50.60738" lon="1.83215">
        <ele>92.42</ele>
        <time>2014-05-03T13:30:10Z</time>
      </trkpt>
      <trkpt lat="50.60727" lon="1.83215">
        <ele>91.94</ele>
        <time>2014-05-03T13:30:16Z</time>
      </trkpt>
      <trkpt lat="50.60717" lon="1.83217">
        <ele>91.94</ele>
        <time>2014-05-03T13:30:21Z</time>
      </trkpt>
      <trkpt lat="50.60708" lon="1.83219">
        <ele>91.94</ele>
        <time>2014-05-03T13:30:26Z</time>
      </trkpt>
      <trkpt lat="50.60698" lon="1.83223">
        <ele>92.9</ele>
        <time>2014-05-03T13:30:32Z</time>
      </trkpt>
      <trkpt lat="50.60687" lon="1.83224">
        <ele>92.9</ele>
        <time>2014-05-03T13:30:38Z</time>
      </trkpt>
      <trkpt lat="50.60676" lon="1.83225">
        <ele>93.87</ele>
        <time>2014-05-03T13:30:43Z</time>
      </trkpt>
      <trkpt lat="50.60666" lon="1.83225">
        <ele>93.87</ele>
        <time>2014-05-03T13:30:48Z</time>
      </trkpt>
      <trkpt lat="50.60656" lon="1.83225">
        <ele>93.87</ele>
        <time>2014-05-03T13:30:53Z</time>
      </trkpt>
      <trkpt lat="50.60644" lon="1.83225">
        <ele>94.83</ele>
        <time>2014-05-03T13:30:59Z</time>
      </trkpt>
      <trkpt lat="50.60635" lon="1.83226">
        <ele>95.31</ele>
        <time>2014-05-03T13:31:04Z</time>
      </trkpt>
      <trkpt lat="50.60624" lon="1.83226">
        <ele>96.27</ele>
        <time>2014-05-03T13:31:10Z</time>
      </trkpt>
      <trkpt lat="50.60613" lon="1.8323">
        <ele>96.75</ele>
        <time>2014-05-03T13:31:16Z</time>
      </trkpt>
      <trkpt lat="50.60601" lon="1.8323">
        <ele>97.71</ele>
        <time>2014-05-03T13:31:22Z</time>
      </trkpt>
      <trkpt lat="50.6059" lon="1.8323">
        <ele>97.71</ele>
        <time>2014-05-03T13:31:28Z</time>
      </trkpt>
      <trkpt lat="50.6058" lon="1.83232">
        <ele>98.67</ele>
        <time>2014-05-03T13:31:34Z</time>
      </trkpt>
      <trkpt lat="50.60569" lon="1.83234">
        <ele>99.15</ele>
        <time>2014-05-03T13:31:41Z</time>
      </trkpt>
      <trkpt lat="50.60557" lon="1.83234">
        <ele>100.11</ele>
        <time>2014-05-03T13:31:47Z</time>
      </trkpt>
      <trkpt lat="50.60547" lon="1.83235">
        <ele>100.11</ele>
        <time>2014-05-03T13:31:52Z</time>
      </trkpt>
      <trkpt lat="50.60537" lon="1.83234">
        <ele>101.56</ele>
        <time>2014-05-03T13:31:58Z</time>
      </trkpt>
      <trkpt lat="50.60525" lon="1.83236">
        <ele>103</ele>
        <time>2014-05-03T13:32:06Z</time>
      </trkpt>
      <trkpt lat="50.60513" lon="1.83237">
        <ele>103.48</ele>
        <time>2014-05-03T13:32:13Z</time>
      </trkpt>
      <trkpt lat="50.60501" lon="1.83239">
        <ele>104.92</ele>
        <time>2014-05-03T13:32:19Z</time>
      </trkpt>
      <trkpt lat="50.6049" lon="1.83239">
        <ele>106.36</ele>
        <time>2014-05-03T13:32:25Z</time>
      </trkpt>
      <trkpt lat="50.60481" lon="1.83239">
        <ele>107.81</ele>
        <time>2014-05-03T13:32:31Z</time>
      </trkpt>
      <trkpt lat="50.60471" lon="1.83239">
        <ele>108.29</ele>
        <time>2014-05-03T13:32:39Z</time>
      </trkpt>
      <trkpt lat="50.60463" lon="1.83239">
        <ele>109.73</ele>
        <time>2014-05-03T13:32:45Z</time>
      </trkpt>
      <trkpt lat="50.60453" lon="1.83239">
        <ele>110.69</ele>
        <time>2014-05-03T13:32:50Z</time>
      </trkpt>
      <trkpt lat="50.60444" lon="1.83241">
        <ele>111.17</ele>
        <time>2014-05-03T13:32:55Z</time>
      </trkpt>
      <trkpt lat="50.60435" lon="1.83242">
        <ele>111.65</ele>
        <time>2014-05-03T13:33:00Z</time>
      </trkpt>
      <trkpt lat="50.60425" lon="1.83247">
        <ele>112.13</ele>
        <time>2014-05-03T13:33:06Z</time>
      </trkpt>
      <trkpt lat="50.60415" lon="1.83253">
        <ele>113.09</ele>
        <time>2014-05-03T13:33:12Z</time>
      </trkpt>
      <trkpt lat="50.60405" lon="1.83257">
        <ele>113.09</ele>
        <time>2014-05-03T13:33:18Z</time>
      </trkpt>
      <trkpt lat="50.60395" lon="1.83256">
        <ele>112.61</ele>
        <time>2014-05-03T13:33:24Z</time>
      </trkpt>
      <trkpt lat="50.60386" lon="1.8325">
        <ele>112.61</ele>
        <time>2014-05-03T13:33:30Z</time>
      </trkpt>
      <trkpt lat="50.60378" lon="1.83242">
        <ele>111.17</ele>
        <time>2014-05-03T13:33:35Z</time>
      </trkpt>
      <trkpt lat="50.6037" lon="1.83231">
        <ele>111.17</ele>
        <time>2014-05-03T13:33:41Z</time>
      </trkpt>
      <trkpt lat="50.60364" lon="1.8322">
        <ele>110.21</ele>
        <time>2014-05-03T13:33:46Z</time>
      </trkpt>
      <trkpt lat="50.60357" lon="1.83208">
        <ele>109.25</ele>
        <time>2014-05-03T13:33:52Z</time>
      </trkpt>
      <trkpt lat="50.6035" lon="1.83196">
        <ele>109.25</ele>
        <time>2014-05-03T13:33:58Z</time>
      </trkpt>
      <trkpt lat="50.60343" lon="1.83184">
        <ele>108.29</ele>
        <time>2014-05-03T13:34:04Z</time>
      </trkpt>
      <trkpt lat="50.60337" lon="1.83172">
        <ele>107.81</ele>
        <time>2014-05-03T13:34:09Z</time>
      </trkpt>
      <trkpt lat="50.60329" lon="1.83159">
        <ele>106.84</ele>
        <time>2014-05-03T13:34:15Z</time>
      </trkpt>
      <trkpt lat="50.60323" lon="1.83147">
        <ele>105.88</ele>
        <time>2014-05-03T13:34:20Z</time>
      </trkpt>
      <trkpt lat="50.60318" lon="1.83137">
        <ele>105.4</ele>
        <time>2014-05-03T13:34:25Z</time>
      </trkpt>
      <trkpt lat="50.60312" lon="1.83125">
        <ele>104.44</ele>
        <time>2014-05-03T13:34:30Z</time>
      </trkpt>
      <trkpt lat="50.60305" lon="1.83114">
        <ele>103.96</ele>
        <time>2014-05-03T13:34:35Z</time>
      </trkpt>
      <trkpt lat="50.60299" lon="1.83102">
        <ele>103</ele>
        <time>2014-05-03T13:34:40Z</time>
      </trkpt>
      <trkpt lat="50.60292" lon="1.8309">
        <ele>102.52</ele>
        <time>2014-05-03T13:34:45Z</time>
      </trkpt>
      <trkpt lat="50.60287" lon="1.83079">
        <ele>102.04</ele>
        <time>2014-05-03T13:34:50Z</time>
      </trkpt>
      <trkpt lat="50.60281" lon="1.83068">
        <ele>101.08</ele>
        <time>2014-05-03T13:34:55Z</time>
      </trkpt>
      <trkpt lat="50.60273" lon="1.83055">
        <ele>101.08</ele>
        <time>2014-05-03T13:35:01Z</time>
      </trkpt>
      <trkpt lat="50.60267" lon="1.83043">
        <ele>100.11</ele>
        <time>2014-05-03T13:35:06Z</time>
      </trkpt>
      <trkpt lat="50.6026" lon="1.8303">
        <ele>99.63</ele>
        <time>2014-05-03T13:35:12Z</time>
      </trkpt>
      <trkpt lat="50.60254" lon="1.83018">
        <ele>99.15</ele>
        <time>2014-05-03T13:35:17Z</time>
      </trkpt>
      <trkpt lat="50.60247" lon="1.83007">
        <ele>99.15</ele>
        <time>2014-05-03T13:35:22Z</time>
      </trkpt>
      <trkpt lat="50.60241" lon="1.82995">
        <ele>98.67</ele>
        <time>2014-05-03T13:35:27Z</time>
      </trkpt>
      <trkpt lat="50.60236" lon="1.82984">
        <ele>98.67</ele>
        <time>2014-05-03T13:35:32Z</time>
      </trkpt>
      <trkpt lat="50.60228" lon="1.82972">
        <ele>98.19</ele>
        <time>2014-05-03T13:35:37Z</time>
      </trkpt>
      <trkpt lat="50.60223" lon="1.8296">
        <ele>98.67</ele>
        <time>2014-05-03T13:35:42Z</time>
      </trkpt>
      <trkpt lat="50.60216" lon="1.82949">
        <ele>99.15</ele>
        <time>2014-05-03T13:35:47Z</time>
      </trkpt>
      <trkpt lat="50.6021" lon="1.82937">
        <ele>98.67</ele>
        <time>2014-05-03T13:35:52Z</time>
      </trkpt>
      <trkpt lat="50.60203" lon="1.82925">
        <ele>98.67</ele>
        <time>2014-05-03T13:35:58Z</time>
      </trkpt>
      <trkpt lat="50.60196" lon="1.82912">
        <ele>98.67</ele>
        <time>2014-05-03T13:36:04Z</time>
      </trkpt>
      <trkpt lat="50.60189" lon="1.829">
        <ele>98.19</ele>
        <time>2014-05-03T13:36:10Z</time>
      </trkpt>
      <trkpt lat="50.60183" lon="1.82888">
        <ele>98.19</ele>
        <time>2014-05-03T13:36:15Z</time>
      </trkpt>
      <trkpt lat="50.60177" lon="1.82877">
        <ele>98.19</ele>
        <time>2014-05-03T13:36:20Z</time>
      </trkpt>
      <trkpt lat="50.60169" lon="1.82866">
        <ele>98.67</ele>
        <time>2014-05-03T13:36:26Z</time>
      </trkpt>
      <trkpt lat="50.60162" lon="1.82854">
        <ele>98.19</ele>
        <time>2014-05-03T13:36:32Z</time>
      </trkpt>
      <trkpt lat="50.60157" lon="1.82841">
        <ele>97.23</ele>
        <time>2014-05-03T13:36:38Z</time>
      </trkpt>
      <trkpt lat="50.6015" lon="1.82828">
        <ele>98.19</ele>
        <time>2014-05-03T13:36:44Z</time>
      </trkpt>
      <trkpt lat="50.60141" lon="1.82817">
        <ele>98.67</ele>
        <time>2014-05-03T13:36:50Z</time>
      </trkpt>
      <trkpt lat="50.60134" lon="1.82809">
        <ele>98.19</ele>
        <time>2014-05-03T13:36:55Z</time>
      </trkpt>
      <trkpt lat="50.60125" lon="1.82799">
        <ele>98.19</ele>
        <time>2014-05-03T13:37:01Z</time>
      </trkpt>
      <trkpt lat="50.60117" lon="1.82789">
        <ele>98.67</ele>
        <time>2014-05-03T13:37:07Z</time>
      </trkpt>
      <trkpt lat="50.60109" lon="1.8278">
        <ele>98.67</ele>
        <time>2014-05-03T13:37:12Z</time>
      </trkpt>
      <trkpt lat="50.601" lon="1.82772">
        <ele>99.15</ele>
        <time>2014-05-03T13:37:17Z</time>
      </trkpt>
      <trkpt lat="50.60093" lon="1.82764">
        <ele>98.67</ele>
        <time>2014-05-03T13:37:22Z</time>
      </trkpt>
      <trkpt lat="50.60085" lon="1.82757">
        <ele>98.19</ele>
        <time>2014-05-03T13:37:27Z</time>
      </trkpt>
      <trkpt lat="50.60078" lon="1.82749">
        <ele>98.67</ele>
        <time>2014-05-03T13:37:32Z</time>
      </trkpt>
      <trkpt lat="50.6007" lon="1.82739">
        <ele>99.15</ele>
        <time>2014-05-03T13:37:38Z</time>
      </trkpt>
      <trkpt lat="50.60061" lon="1.82728">
        <ele>99.63</ele>
        <time>2014-05-03T13:37:44Z</time>
      </trkpt>
      <trkpt lat="50.60052" lon="1.82717">
        <ele>99.63</ele>
        <time>2014-05-03T13:37:50Z</time>
      </trkpt>
      <trkpt lat="50.60045" lon="1.82707">
        <ele>99.15</ele>
        <time>2014-05-03T13:37:55Z</time>
      </trkpt>
      <trkpt lat="50.60037" lon="1.82695">
        <ele>100.11</ele>
        <time>2014-05-03T13:38:01Z</time>
      </trkpt>
      <trkpt lat="50.60029" lon="1.82684">
        <ele>99.15</ele>
        <time>2014-05-03T13:38:07Z</time>
      </trkpt>
      <trkpt lat="50.60022" lon="1.82673">
        <ele>99.15</ele>
        <time>2014-05-03T13:38:12Z</time>
      </trkpt>
      <trkpt lat="50.60015" lon="1.82661">
        <ele>99.15</ele>
        <time>2014-05-03T13:38:18Z</time>
      </trkpt>
      <trkpt lat="50.60008" lon="1.82651">
        <ele>98.67</ele>
        <time>2014-05-03T13:38:23Z</time>
      </trkpt>
      <trkpt lat="50.60001" lon="1.82642">
        <ele>98.67</ele>
        <time>2014-05-03T13:38:29Z</time>
      </trkpt>
      <trkpt lat="50.59992" lon="1.82629">
        <ele>99.15</ele>
        <time>2014-05-03T13:38:35Z</time>
      </trkpt>
      <trkpt lat="50.59985" lon="1.82619">
        <ele>98.67</ele>
        <time>2014-05-03T13:38:40Z</time>
      </trkpt>
      <trkpt lat="50.59977" lon="1.82608">
        <ele>99.63</ele>
        <time>2014-05-03T13:38:45Z</time>
      </trkpt>
      <trkpt lat="50.59969" lon="1.826">
        <ele>99.63</ele>
        <time>2014-05-03T13:38:50Z</time>
      </trkpt>
      <trkpt lat="50.59961" lon="1.82591">
        <ele>100.11</ele>
        <time>2014-05-03T13:38:56Z</time>
      </trkpt>
      <trkpt lat="50.59953" lon="1.82583">
        <ele>100.6</ele>
        <time>2014-05-03T13:39:02Z</time>
      </trkpt>
      <trkpt lat="50.59944" lon="1.82573">
        <ele>101.56</ele>
        <time>2014-05-03T13:39:08Z</time>
      </trkpt>
      <trkpt lat="50.59935" lon="1.82566">
        <ele>102.04</ele>
        <time>2014-05-03T13:39:13Z</time>
      </trkpt>
      <trkpt lat="50.59928" lon="1.82557">
        <ele>102.04</ele>
        <time>2014-05-03T13:39:19Z</time>
      </trkpt>
      <trkpt lat="50.59921" lon="1.82546">
        <ele>103.48</ele>
        <time>2014-05-03T13:39:25Z</time>
      </trkpt>
      <trkpt lat="50.59914" lon="1.82535">
        <ele>103.96</ele>
        <time>2014-05-03T13:39:30Z</time>
      </trkpt>
      <trkpt lat="50.59908" lon="1.82521">
        <ele>103.96</ele>
        <time>2014-05-03T13:39:36Z</time>
      </trkpt>
      <trkpt lat="50.59903" lon="1.82509">
        <ele>103.96</ele>
        <time>2014-05-03T13:39:41Z</time>
      </trkpt>
      <trkpt lat="50.59897" lon="1.82497">
        <ele>105.4</ele>
        <time>2014-05-03T13:39:46Z</time>
      </trkpt>
      <trkpt lat="50.5989" lon="1.82485">
        <ele>105.88</ele>
        <time>2014-05-03T13:39:52Z</time>
      </trkpt>
      <trkpt lat="50.59884" lon="1.82473">
        <ele>106.84</ele>
        <time>2014-05-03T13:39:57Z</time>
      </trkpt>
      <trkpt lat="50.59877" lon="1.82462">
        <ele>106.84</ele>
        <time>2014-05-03T13:40:03Z</time>
      </trkpt>
      <trkpt lat="50.59869" lon="1.82451">
        <ele>107.81</ele>
        <time>2014-05-03T13:40:08Z</time>
      </trkpt>
      <trkpt lat="50.59863" lon="1.82439">
        <ele>107.81</ele>
        <time>2014-05-03T13:40:14Z</time>
      </trkpt>
      <trkpt lat="50.59856" lon="1.82427">
        <ele>108.77</ele>
        <time>2014-05-03T13:40:20Z</time>
      </trkpt>
      <trkpt lat="50.59852" lon="1.82419">
        <ele>110.21</ele>
        <time>2014-05-03T13:40:40Z</time>
      </trkpt>
      <trkpt lat="50.59847" lon="1.82409">
        <ele>110.21</ele>
        <time>2014-05-03T13:41:11Z</time>
      </trkpt>
      <trkpt lat="50.5984" lon="1.82396">
        <ele>110.69</ele>
        <time>2014-05-03T13:41:17Z</time>
      </trkpt>
      <trkpt lat="50.59834" lon="1.82383">
        <ele>111.65</ele>
        <time>2014-05-03T13:41:23Z</time>
      </trkpt>
      <trkpt lat="50.59827" lon="1.82372">
        <ele>111.65</ele>
        <time>2014-05-03T13:41:29Z</time>
      </trkpt>
      <trkpt lat="50.5982" lon="1.82361">
        <ele>113.09</ele>
        <time>2014-05-03T13:41:35Z</time>
      </trkpt>
      <trkpt lat="50.59814" lon="1.82348">
        <ele>113.09</ele>
        <time>2014-05-03T13:41:41Z</time>
      </trkpt>
      <trkpt lat="50.59806" lon="1.82336">
        <ele>115.01</ele>
        <time>2014-05-03T13:41:47Z</time>
      </trkpt>
      <trkpt lat="50.598" lon="1.82325">
        <ele>115.5</ele>
        <time>2014-05-03T13:41:52Z</time>
      </trkpt>
      <trkpt lat="50.59794" lon="1.82314">
        <ele>115.5</ele>
        <time>2014-05-03T13:41:57Z</time>
      </trkpt>
      <trkpt lat="50.59787" lon="1.82303">
        <ele>115.98</ele>
        <time>2014-05-03T13:42:03Z</time>
      </trkpt>
      <trkpt lat="50.59779" lon="1.82289">
        <ele>116.46</ele>
        <time>2014-05-03T13:42:09Z</time>
      </trkpt>
      <trkpt lat="50.59773" lon="1.82279">
        <ele>116.46</ele>
        <time>2014-05-03T13:42:14Z</time>
      </trkpt>
      <trkpt lat="50.59765" lon="1.82266">
        <ele>117.42</ele>
        <time>2014-05-03T13:42:20Z</time>
      </trkpt>
      <trkpt lat="50.59758" lon="1.82254">
        <ele>117.9</ele>
        <time>2014-05-03T13:42:25Z</time>
      </trkpt>
      <trkpt lat="50.59752" lon="1.82242">
        <ele>118.38</ele>
        <time>2014-05-03T13:42:30Z</time>
      </trkpt>
      <trkpt lat="50.59745" lon="1.82231">
        <ele>118.86</ele>
        <time>2014-05-03T13:42:35Z</time>
      </trkpt>
      <trkpt lat="50.59739" lon="1.82219">
        <ele>118.38</ele>
        <time>2014-05-03T13:42:40Z</time>
      </trkpt>
      <trkpt lat="50.5973" lon="1.82206">
        <ele>119.34</ele>
        <time>2014-05-03T13:42:46Z</time>
      </trkpt>
      <trkpt lat="50.59723" lon="1.82196">
        <ele>119.34</ele>
        <time>2014-05-03T13:42:51Z</time>
      </trkpt>
      <trkpt lat="50.59717" lon="1.82185">
        <ele>119.34</ele>
        <time>2014-05-03T13:42:56Z</time>
      </trkpt>
      <trkpt lat="50.5971" lon="1.82174">
        <ele>120.3</ele>
        <time>2014-05-03T13:43:02Z</time>
      </trkpt>
      <trkpt lat="50.59702" lon="1.82162">
        <ele>121.26</ele>
        <time>2014-05-03T13:43:08Z</time>
      </trkpt>
      <trkpt lat="50.59695" lon="1.82151">
        <ele>120.3</ele>
        <time>2014-05-03T13:43:14Z</time>
      </trkpt>
      <trkpt lat="50.59687" lon="1.82139">
        <ele>121.74</ele>
        <time>2014-05-03T13:43:20Z</time>
      </trkpt>
      <trkpt lat="50.5968" lon="1.82129">
        <ele>121.26</ele>
        <time>2014-05-03T13:43:25Z</time>
      </trkpt>
      <trkpt lat="50.59673" lon="1.82118">
        <ele>121.26</ele>
        <time>2014-05-03T13:43:30Z</time>
      </trkpt>
      <trkpt lat="50.59665" lon="1.82108">
        <ele>121.74</ele>
        <time>2014-05-03T13:43:36Z</time>
      </trkpt>
      <trkpt lat="50.59657" lon="1.82099">
        <ele>121.26</ele>
        <time>2014-05-03T13:43:41Z</time>
      </trkpt>
      <trkpt lat="50.59649" lon="1.82088">
        <ele>121.26</ele>
        <time>2014-05-03T13:43:46Z</time>
      </trkpt>
      <trkpt lat="50.59642" lon="1.82078">
        <ele>121.26</ele>
        <time>2014-05-03T13:43:51Z</time>
      </trkpt>
      <trkpt lat="50.59636" lon="1.82068">
        <ele>121.74</ele>
        <time>2014-05-03T13:43:56Z</time>
      </trkpt>
      <trkpt lat="50.59627" lon="1.82057">
        <ele>121.74</ele>
        <time>2014-05-03T13:44:02Z</time>
      </trkpt>
      <trkpt lat="50.5962" lon="1.82046">
        <ele>122.22</ele>
        <time>2014-05-03T13:44:07Z</time>
      </trkpt>
      <trkpt lat="50.59613" lon="1.82037">
        <ele>122.22</ele>
        <time>2014-05-03T13:44:12Z</time>
      </trkpt>
      <trkpt lat="50.59605" lon="1.82026">
        <ele>122.22</ele>
        <time>2014-05-03T13:44:17Z</time>
      </trkpt>
      <trkpt lat="50.59598" lon="1.82016">
        <ele>122.22</ele>
        <time>2014-05-03T13:44:23Z</time>
      </trkpt>
      <trkpt lat="50.5959" lon="1.82005">
        <ele>122.71</ele>
        <time>2014-05-03T13:44:29Z</time>
      </trkpt>
      <trkpt lat="50.59583" lon="1.81997">
        <ele>122.22</ele>
        <time>2014-05-03T13:44:34Z</time>
      </trkpt>
      <trkpt lat="50.59575" lon="1.81988">
        <ele>122.22</ele>
        <time>2014-05-03T13:44:39Z</time>
      </trkpt>
      <trkpt lat="50.59567" lon="1.81978">
        <ele>122.71</ele>
        <time>2014-05-03T13:44:45Z</time>
      </trkpt>
      <trkpt lat="50.59558" lon="1.81969">
        <ele>123.19</ele>
        <time>2014-05-03T13:44:51Z</time>
      </trkpt>
      <trkpt lat="50.59549" lon="1.81967">
        <ele>124.15</ele>
        <time>2014-05-03T13:44:57Z</time>
      </trkpt>
      <trkpt lat="50.59544" lon="1.81979">
        <ele>123.67</ele>
        <time>2014-05-03T13:45:03Z</time>
      </trkpt>
      <trkpt lat="50.59539" lon="1.81991">
        <ele>124.15</ele>
        <time>2014-05-03T13:45:15Z</time>
      </trkpt>
      <trkpt lat="50.59535" lon="1.82005">
        <ele>122.71</ele>
        <time>2014-05-03T13:45:22Z</time>
      </trkpt>
      <trkpt lat="50.5953" lon="1.82018">
        <ele>121.74</ele>
        <time>2014-05-03T13:45:28Z</time>
      </trkpt>
      <trkpt lat="50.59526" lon="1.82031">
        <ele>119.82</ele>
        <time>2014-05-03T13:45:34Z</time>
      </trkpt>
      <trkpt lat="50.59522" lon="1.82048">
        <ele>117.9</ele>
        <time>2014-05-03T13:45:40Z</time>
      </trkpt>
      <trkpt lat="50.59517" lon="1.82061">
        <ele>116.94</ele>
        <time>2014-05-03T13:45:46Z</time>
      </trkpt>
      <trkpt lat="50.59514" lon="1.82077">
        <ele>115.01</ele>
        <time>2014-05-03T13:45:52Z</time>
      </trkpt>
      <trkpt lat="50.5951" lon="1.82093">
        <ele>113.57</ele>
        <time>2014-05-03T13:45:58Z</time>
      </trkpt>
      <trkpt lat="50.59507" lon="1.82109">
        <ele>110.69</ele>
        <time>2014-05-03T13:46:04Z</time>
      </trkpt>
      <trkpt lat="50.59501" lon="1.8212">
        <ele>110.21</ele>
        <time>2014-05-03T13:46:10Z</time>
      </trkpt>
      <trkpt lat="50.59495" lon="1.82129">
        <ele>108.29</ele>
        <time>2014-05-03T13:46:16Z</time>
      </trkpt>
      <trkpt lat="50.59487" lon="1.82135">
        <ele>105.88</ele>
        <time>2014-05-03T13:46:22Z</time>
      </trkpt>
      <trkpt lat="50.59479" lon="1.82144">
        <ele>102.52</ele>
        <time>2014-05-03T13:46:31Z</time>
      </trkpt>
      <trkpt lat="50.59472" lon="1.82154">
        <ele>101.08</ele>
        <time>2014-05-03T13:46:38Z</time>
      </trkpt>
      <trkpt lat="50.59466" lon="1.82167">
        <ele>99.15</ele>
        <time>2014-05-03T13:46:45Z</time>
      </trkpt>
      <trkpt lat="50.5946" lon="1.8218">
        <ele>97.23</ele>
        <time>2014-05-03T13:46:51Z</time>
      </trkpt>
      <trkpt lat="50.59453" lon="1.82194">
        <ele>95.31</ele>
        <time>2014-05-03T13:46:58Z</time>
      </trkpt>
      <trkpt lat="50.59445" lon="1.82212">
        <ele>92.42</ele>
        <time>2014-05-03T13:47:06Z</time>
      </trkpt>
      <trkpt lat="50.59439" lon="1.82228">
        <ele>90.5</ele>
        <time>2014-05-03T13:47:14Z</time>
      </trkpt>
      <trkpt lat="50.59432" lon="1.82244">
        <ele>88.58</ele>
        <time>2014-05-03T13:47:21Z</time>
      </trkpt>
      <trkpt lat="50.59426" lon="1.82258">
        <ele>87.62</ele>
        <time>2014-05-03T13:47:27Z</time>
      </trkpt>
      <trkpt lat="50.5942" lon="1.82274">
        <ele>86.18</ele>
        <time>2014-05-03T13:47:34Z</time>
      </trkpt>
      <trkpt lat="50.59415" lon="1.8229">
        <ele>83.77</ele>
        <time>2014-05-03T13:47:40Z</time>
      </trkpt>
      <trkpt lat="50.5941" lon="1.82304">
        <ele>82.33</ele>
        <time>2014-05-03T13:47:46Z</time>
      </trkpt>
      <trkpt lat="50.59406" lon="1.82321">
        <ele>81.85</ele>
        <time>2014-05-03T13:47:53Z</time>
      </trkpt>
      <trkpt lat="50.59404" lon="1.82337">
        <ele>79.93</ele>
        <time>2014-05-03T13:48:00Z</time>
      </trkpt>
      <trkpt lat="50.59403" lon="1.82355">
        <ele>77.52</ele>
        <time>2014-05-03T13:48:10Z</time>
      </trkpt>
      <trkpt lat="50.59403" lon="1.82376">
        <ele>75.6</ele>
        <time>2014-05-03T13:48:18Z</time>
      </trkpt>
      <trkpt lat="50.59395" lon="1.82385">
        <ele>75.12</ele>
        <time>2014-05-03T13:49:23Z</time>
      </trkpt>
      <trkpt lat="50.59384" lon="1.82386">
        <ele>74.16</ele>
        <time>2014-05-03T13:49:36Z</time>
      </trkpt>
      <trkpt lat="50.59369" lon="1.82385">
        <ele>72.72</ele>
        <time>2014-05-03T13:49:44Z</time>
      </trkpt>
      <trkpt lat="50.59358" lon="1.82384">
        <ele>71.76</ele>
        <time>2014-05-03T13:49:50Z</time>
      </trkpt>
      <trkpt lat="50.59346" lon="1.82383">
        <ele>70.31</ele>
        <time>2014-05-03T13:49:57Z</time>
      </trkpt>
      <trkpt lat="50.59334" lon="1.82382">
        <ele>70.31</ele>
        <time>2014-05-03T13:50:04Z</time>
      </trkpt>
      <trkpt lat="50.59324" lon="1.82379">
        <ele>69.83</ele>
        <time>2014-05-03T13:50:10Z</time>
      </trkpt>
      <trkpt lat="50.59313" lon="1.82377">
        <ele>70.79</ele>
        <time>2014-05-03T13:50:17Z</time>
      </trkpt>
      <trkpt lat="50.59302" lon="1.82376">
        <ele>68.87</ele>
        <time>2014-05-03T13:50:24Z</time>
      </trkpt>
      <trkpt lat="50.59292" lon="1.82373">
        <ele>68.87</ele>
        <time>2014-05-03T13:50:30Z</time>
      </trkpt>
      <trkpt lat="50.59282" lon="1.82372">
        <ele>68.39</ele>
        <time>2014-05-03T13:50:36Z</time>
      </trkpt>
      <trkpt lat="50.59272" lon="1.82368">
        <ele>68.87</ele>
        <time>2014-05-03T13:50:42Z</time>
      </trkpt>
      <trkpt lat="50.59263" lon="1.82365">
        <ele>67.91</ele>
        <time>2014-05-03T13:50:48Z</time>
      </trkpt>
      <trkpt lat="50.59253" lon="1.82363">
        <ele>67.43</ele>
        <time>2014-05-03T13:50:54Z</time>
      </trkpt>
      <trkpt lat="50.59241" lon="1.8236">
        <ele>67.43</ele>
        <time>2014-05-03T13:51:01Z</time>
      </trkpt>
      <trkpt lat="50.5923" lon="1.82357">
        <ele>66.95</ele>
        <time>2014-05-03T13:51:07Z</time>
      </trkpt>
      <trkpt lat="50.59221" lon="1.82353">
        <ele>67.43</ele>
        <time>2014-05-03T13:51:13Z</time>
      </trkpt>
      <trkpt lat="50.59211" lon="1.82351">
        <ele>67.43</ele>
        <time>2014-05-03T13:51:19Z</time>
      </trkpt>
      <trkpt lat="50.59201" lon="1.82348">
        <ele>67.43</ele>
        <time>2014-05-03T13:51:25Z</time>
      </trkpt>
      <trkpt lat="50.59191" lon="1.82345">
        <ele>66.47</ele>
        <time>2014-05-03T13:51:31Z</time>
      </trkpt>
      <trkpt lat="50.59181" lon="1.82341">
        <ele>66.95</ele>
        <time>2014-05-03T13:51:38Z</time>
      </trkpt>
      <trkpt lat="50.5917" lon="1.82337">
        <ele>66.47</ele>
        <time>2014-05-03T13:51:44Z</time>
      </trkpt>
      <trkpt lat="50.5916" lon="1.82334">
        <ele>65.51</ele>
        <time>2014-05-03T13:51:49Z</time>
      </trkpt>
      <trkpt lat="50.59151" lon="1.82331">
        <ele>66.47</ele>
        <time>2014-05-03T13:51:54Z</time>
      </trkpt>
      <trkpt lat="50.59142" lon="1.82328">
        <ele>66.47</ele>
        <time>2014-05-03T13:51:59Z</time>
      </trkpt>
      <trkpt lat="50.59132" lon="1.82327">
        <ele>65.99</ele>
        <time>2014-05-03T13:52:05Z</time>
      </trkpt>
      <trkpt lat="50.59122" lon="1.82326">
        <ele>65.99</ele>
        <time>2014-05-03T13:52:11Z</time>
      </trkpt>
      <trkpt lat="50.59113" lon="1.82327">
        <ele>66.47</ele>
        <time>2014-05-03T13:52:16Z</time>
      </trkpt>
      <trkpt lat="50.59102" lon="1.82324">
        <ele>65.99</ele>
        <time>2014-05-03T13:52:22Z</time>
      </trkpt>
      <trkpt lat="50.59091" lon="1.82322">
        <ele>65.51</ele>
        <time>2014-05-03T13:52:28Z</time>
      </trkpt>
      <trkpt lat="50.59082" lon="1.82324">
        <ele>65.51</ele>
        <time>2014-05-03T13:52:34Z</time>
      </trkpt>
      <trkpt lat="50.59071" lon="1.82324">
        <ele>65.51</ele>
        <time>2014-05-03T13:52:40Z</time>
      </trkpt>
      <trkpt lat="50.59062" lon="1.82325">
        <ele>65.51</ele>
        <time>2014-05-03T13:52:45Z</time>
      </trkpt>
      <trkpt lat="50.59052" lon="1.82328">
        <ele>66.47</ele>
        <time>2014-05-03T13:52:50Z</time>
      </trkpt>
      <trkpt lat="50.59043" lon="1.82331">
        <ele>65.51</ele>
        <time>2014-05-03T13:52:55Z</time>
      </trkpt>
      <trkpt lat="50.59033" lon="1.82332">
        <ele>65.51</ele>
        <time>2014-05-03T13:53:00Z</time>
      </trkpt>
      <trkpt lat="50.59023" lon="1.82337">
        <ele>65.51</ele>
        <time>2014-05-03T13:53:06Z</time>
      </trkpt>
      <trkpt lat="50.59014" lon="1.82341">
        <ele>65.99</ele>
        <time>2014-05-03T13:53:11Z</time>
      </trkpt>
      <trkpt lat="50.59005" lon="1.82346">
        <ele>65.99</ele>
        <time>2014-05-03T13:53:16Z</time>
      </trkpt>
      <trkpt lat="50.58994" lon="1.82349">
        <ele>65.51</ele>
        <time>2014-05-03T13:53:22Z</time>
      </trkpt>
      <trkpt lat="50.58984" lon="1.82353">
        <ele>65.51</ele>
        <time>2014-05-03T13:53:28Z</time>
      </trkpt>
      <trkpt lat="50.5897" lon="1.82359">
        <ele>66.47</ele>
        <time>2014-05-03T13:53:36Z</time>
      </trkpt>
      <trkpt lat="50.5896" lon="1.82362">
        <ele>66.47</ele>
        <time>2014-05-03T13:53:41Z</time>
      </trkpt>
      <trkpt lat="50.5895" lon="1.82365">
        <ele>65.99</ele>
        <time>2014-05-03T13:53:46Z</time>
      </trkpt>
      <trkpt lat="50.58939" lon="1.8237">
        <ele>66.95</ele>
        <time>2014-05-03T13:53:52Z</time>
      </trkpt>
      <trkpt lat="50.58928" lon="1.82374">
        <ele>65.99</ele>
        <time>2014-05-03T13:53:59Z</time>
      </trkpt>
      <trkpt lat="50.58919" lon="1.82377">
        <ele>65.99</ele>
        <time>2014-05-03T13:54:04Z</time>
      </trkpt>
      <trkpt lat="50.5891" lon="1.8238">
        <ele>66.47</ele>
        <time>2014-05-03T13:54:09Z</time>
      </trkpt>
      <trkpt lat="50.58899" lon="1.82384">
        <ele>65.99</ele>
        <time>2014-05-03T13:54:14Z</time>
      </trkpt>
      <trkpt lat="50.58889" lon="1.82388">
        <ele>65.99</ele>
        <time>2014-05-03T13:54:19Z</time>
      </trkpt>
      <trkpt lat="50.58878" lon="1.82391">
        <ele>65.99</ele>
        <time>2014-05-03T13:54:25Z</time>
      </trkpt>
      <trkpt lat="50.58868" lon="1.82393">
        <ele>65.99</ele>
        <time>2014-05-03T13:54:30Z</time>
      </trkpt>
      <trkpt lat="50.58858" lon="1.82398">
        <ele>65.51</ele>
        <time>2014-05-03T13:54:35Z</time>
      </trkpt>
      <trkpt lat="50.58847" lon="1.82403">
        <ele>65.99</ele>
        <time>2014-05-03T13:54:40Z</time>
      </trkpt>
      <trkpt lat="50.58836" lon="1.82404">
        <ele>65.99</ele>
        <time>2014-05-03T13:54:46Z</time>
      </trkpt>
      <trkpt lat="50.58827" lon="1.82408">
        <ele>65.99</ele>
        <time>2014-05-03T13:54:51Z</time>
      </trkpt>
      <trkpt lat="50.58816" lon="1.8241">
        <ele>65.51</ele>
        <time>2014-05-03T13:54:57Z</time>
      </trkpt>
      <trkpt lat="50.58805" lon="1.82409">
        <ele>65.51</ele>
        <time>2014-05-03T13:55:03Z</time>
      </trkpt>
      <trkpt lat="50.58794" lon="1.82405">
        <ele>65.99</ele>
        <time>2014-05-03T13:55:09Z</time>
      </trkpt>
      <trkpt lat="50.58784" lon="1.82404">
        <ele>65.99</ele>
        <time>2014-05-03T13:55:14Z</time>
      </trkpt>
      <trkpt lat="50.58775" lon="1.82403">
        <ele>65.51</ele>
        <time>2014-05-03T13:55:19Z</time>
      </trkpt>
      <trkpt lat="50.58765" lon="1.82401">
        <ele>65.51</ele>
        <time>2014-05-03T13:55:24Z</time>
      </trkpt>
      <trkpt lat="50.58756" lon="1.82399">
        <ele>65.99</ele>
        <time>2014-05-03T13:55:29Z</time>
      </trkpt>
      <trkpt lat="50.58747" lon="1.82396">
        <ele>65.99</ele>
        <time>2014-05-03T13:55:34Z</time>
      </trkpt>
      <trkpt lat="50.58737" lon="1.82395">
        <ele>65.99</ele>
        <time>2014-05-03T13:55:40Z</time>
      </trkpt>
      <trkpt lat="50.58724" lon="1.82398">
        <ele>66.47</ele>
        <time>2014-05-03T13:55:48Z</time>
      </trkpt>
      <trkpt lat="50.5871" lon="1.82397">
        <ele>66.47</ele>
        <time>2014-05-03T13:55:55Z</time>
      </trkpt>
      <trkpt lat="50.58698" lon="1.82397">
        <ele>66.95</ele>
        <time>2014-05-03T13:56:01Z</time>
      </trkpt>
      <trkpt lat="50.58686" lon="1.82397">
        <ele>66.95</ele>
        <time>2014-05-03T13:56:07Z</time>
      </trkpt>
      <trkpt lat="50.58676" lon="1.82397">
        <ele>66.95</ele>
        <time>2014-05-03T13:56:13Z</time>
      </trkpt>
      <trkpt lat="50.58665" lon="1.82397">
        <ele>66.95</ele>
        <time>2014-05-03T13:56:20Z</time>
      </trkpt>
      <trkpt lat="50.58651" lon="1.824">
        <ele>65.99</ele>
        <time>2014-05-03T13:56:28Z</time>
      </trkpt>
      <trkpt lat="50.58641" lon="1.82403">
        <ele>65.99</ele>
        <time>2014-05-03T13:56:35Z</time>
      </trkpt>
      <trkpt lat="50.58623" lon="1.82405">
        <ele>65.99</ele>
        <time>2014-05-03T13:56:45Z</time>
      </trkpt>
      <trkpt lat="50.5861" lon="1.82404">
        <ele>65.99</ele>
        <time>2014-05-03T13:56:54Z</time>
      </trkpt>
      <trkpt lat="50.58598" lon="1.82401">
        <ele>65.51</ele>
        <time>2014-05-03T13:57:01Z</time>
      </trkpt>
      <trkpt lat="50.58587" lon="1.82394">
        <ele>65.03</ele>
        <time>2014-05-03T13:57:07Z</time>
      </trkpt>
      <trkpt lat="50.58576" lon="1.82389">
        <ele>65.99</ele>
        <time>2014-05-03T13:57:14Z</time>
      </trkpt>
      <trkpt lat="50.58565" lon="1.82386">
        <ele>65.99</ele>
        <time>2014-05-03T13:57:20Z</time>
      </trkpt>
      <trkpt lat="50.58555" lon="1.82385">
        <ele>66.47</ele>
        <time>2014-05-03T13:57:28Z</time>
      </trkpt>
      <trkpt lat="50.5854" lon="1.82384">
        <ele>66.47</ele>
        <time>2014-05-03T13:57:39Z</time>
      </trkpt>
      <trkpt lat="50.58521" lon="1.82376">
        <ele>67.43</ele>
        <time>2014-05-03T13:57:49Z</time>
      </trkpt>
      <trkpt lat="50.58501" lon="1.82357">
        <ele>68.39</ele>
        <time>2014-05-03T13:57:58Z</time>
      </trkpt>
      <trkpt lat="50.58483" lon="1.82353">
        <ele>70.31</ele>
        <time>2014-05-03T13:58:07Z</time>
      </trkpt>
      <trkpt lat="50.58471" lon="1.8234">
        <ele>71.27</ele>
        <time>2014-05-03T13:58:15Z</time>
      </trkpt>
      <trkpt lat="50.58459" lon="1.82326">
        <ele>71.27</ele>
        <time>2014-05-03T13:58:22Z</time>
      </trkpt>
      <trkpt lat="50.58448" lon="1.82315">
        <ele>68.87</ele>
        <time>2014-05-03T13:58:29Z</time>
      </trkpt>
      <trkpt lat="50.58436" lon="1.82304">
        <ele>68.87</ele>
        <time>2014-05-03T13:58:36Z</time>
      </trkpt>
      <trkpt lat="50.58423" lon="1.82292">
        <ele>67.43</ele>
        <time>2014-05-03T13:58:44Z</time>
      </trkpt>
      <trkpt lat="50.58413" lon="1.82277">
        <ele>66.47</ele>
        <time>2014-05-03T13:58:50Z</time>
      </trkpt>
      <trkpt lat="50.58403" lon="1.82265">
        <ele>65.51</ele>
        <time>2014-05-03T13:58:56Z</time>
      </trkpt>
      <trkpt lat="50.58395" lon="1.82254">
        <ele>64.55</ele>
        <time>2014-05-03T13:59:03Z</time>
      </trkpt>
      <trkpt lat="50.58386" lon="1.8224">
        <ele>63.1</ele>
        <time>2014-05-03T13:59:10Z</time>
      </trkpt>
      <trkpt lat="50.58378" lon="1.82227">
        <ele>62.14</ele>
        <time>2014-05-03T13:59:16Z</time>
      </trkpt>
      <trkpt lat="50.58371" lon="1.82215">
        <ele>60.7</ele>
        <time>2014-05-03T13:59:22Z</time>
      </trkpt>
      <trkpt lat="50.58363" lon="1.822">
        <ele>59.74</ele>
        <time>2014-05-03T13:59:29Z</time>
      </trkpt>
      <trkpt lat="50.58354" lon="1.82187">
        <ele>59.26</ele>
        <time>2014-05-03T13:59:35Z</time>
      </trkpt>
      <trkpt lat="50.58346" lon="1.82174">
        <ele>57.82</ele>
        <time>2014-05-03T13:59:41Z</time>
      </trkpt>
      <trkpt lat="50.58338" lon="1.82159">
        <ele>57.82</ele>
        <time>2014-05-03T13:59:48Z</time>
      </trkpt>
      <trkpt lat="50.58329" lon="1.82152">
        <ele>56.86</ele>
        <time>2014-05-03T13:59:55Z</time>
      </trkpt>
      <trkpt lat="50.58317" lon="1.82146">
        <ele>56.37</ele>
        <time>2014-05-03T14:00:02Z</time>
      </trkpt>
      <trkpt lat="50.58303" lon="1.82146">
        <ele>56.37</ele>
        <time>2014-05-03T14:00:09Z</time>
      </trkpt>
      <trkpt lat="50.58288" lon="1.82148">
        <ele>56.86</ele>
        <time>2014-05-03T14:00:18Z</time>
      </trkpt>
      <trkpt lat="50.58273" lon="1.82149">
        <ele>56.86</ele>
        <time>2014-05-03T14:00:26Z</time>
      </trkpt>
      <trkpt lat="50.58263" lon="1.82155">
        <ele>56.37</ele>
        <time>2014-05-03T14:00:32Z</time>
      </trkpt>
      <trkpt lat="50.58254" lon="1.82161">
        <ele>56.86</ele>
        <time>2014-05-03T14:00:38Z</time>
      </trkpt>
      <trkpt lat="50.58243" lon="1.82169">
        <ele>56.86</ele>
        <time>2014-05-03T14:00:45Z</time>
      </trkpt>
      <trkpt lat="50.58231" lon="1.82178">
        <ele>56.86</ele>
        <time>2014-05-03T14:00:51Z</time>
      </trkpt>
      <trkpt lat="50.58217" lon="1.82185">
        <ele>56.37</ele>
        <time>2014-05-03T14:00:57Z</time>
      </trkpt>
      <trkpt lat="50.58208" lon="1.82191">
        <ele>56.86</ele>
        <time>2014-05-03T14:01:02Z</time>
      </trkpt>
      <trkpt lat="50.58197" lon="1.82197">
        <ele>55.89</ele>
        <time>2014-05-03T14:01:08Z</time>
      </trkpt>
      <trkpt lat="50.58188" lon="1.82202">
        <ele>56.37</ele>
        <time>2014-05-03T14:01:13Z</time>
      </trkpt>
      <trkpt lat="50.58178" lon="1.82208">
        <ele>56.86</ele>
        <time>2014-05-03T14:01:19Z</time>
      </trkpt>
      <trkpt lat="50.58168" lon="1.82216">
        <ele>56.37</ele>
        <time>2014-05-03T14:01:25Z</time>
      </trkpt>
      <trkpt lat="50.58159" lon="1.82223">
        <ele>56.37</ele>
        <time>2014-05-03T14:01:30Z</time>
      </trkpt>
      <trkpt lat="50.58149" lon="1.82229">
        <ele>57.34</ele>
        <time>2014-05-03T14:01:36Z</time>
      </trkpt>
      <trkpt lat="50.58139" lon="1.82235">
        <ele>57.34</ele>
        <time>2014-05-03T14:01:41Z</time>
      </trkpt>
      <trkpt lat="50.58129" lon="1.82241">
        <ele>57.82</ele>
        <time>2014-05-03T14:01:49Z</time>
      </trkpt>
      <trkpt lat="50.58117" lon="1.82251">
        <ele>58.78</ele>
        <time>2014-05-03T14:01:56Z</time>
      </trkpt>
      <trkpt lat="50.58104" lon="1.82262">
        <ele>58.78</ele>
        <time>2014-05-03T14:02:02Z</time>
      </trkpt>
      <trkpt lat="50.58093" lon="1.82269">
        <ele>58.78</ele>
        <time>2014-05-03T14:02:08Z</time>
      </trkpt>
      <trkpt lat="50.58081" lon="1.82274">
        <ele>59.74</ele>
        <time>2014-05-03T14:02:14Z</time>
      </trkpt>
      <trkpt lat="50.58071" lon="1.82276">
        <ele>60.22</ele>
        <time>2014-05-03T14:02:21Z</time>
      </trkpt>
      <trkpt lat="50.58057" lon="1.82283">
        <ele>60.22</ele>
        <time>2014-05-03T14:02:30Z</time>
      </trkpt>
      <trkpt lat="50.58045" lon="1.82286">
        <ele>60.7</ele>
        <time>2014-05-03T14:02:37Z</time>
      </trkpt>
      <trkpt lat="50.58032" lon="1.82289">
        <ele>61.18</ele>
        <time>2014-05-03T14:02:45Z</time>
      </trkpt>
      <trkpt lat="50.58017" lon="1.82291">
        <ele>62.62</ele>
        <time>2014-05-03T14:02:52Z</time>
      </trkpt>
      <trkpt lat="50.58004" lon="1.82293">
        <ele>64.55</ele>
        <time>2014-05-03T14:03:00Z</time>
      </trkpt>
      <trkpt lat="50.57992" lon="1.82289">
        <ele>65.99</ele>
        <time>2014-05-03T14:03:08Z</time>
      </trkpt>
      <trkpt lat="50.57982" lon="1.82289">
        <ele>65.99</ele>
        <time>2014-05-03T14:03:15Z</time>
      </trkpt>
      <trkpt lat="50.5797" lon="1.8229">
        <ele>66.47</ele>
        <time>2014-05-03T14:03:21Z</time>
      </trkpt>
      <trkpt lat="50.57956" lon="1.82292">
        <ele>66.95</ele>
        <time>2014-05-03T14:03:27Z</time>
      </trkpt>
      <trkpt lat="50.57945" lon="1.82295">
        <ele>66.47</ele>
        <time>2014-05-03T14:03:32Z</time>
      </trkpt>
      <trkpt lat="50.57934" lon="1.82296">
        <ele>67.43</ele>
        <time>2014-05-03T14:03:38Z</time>
      </trkpt>
      <trkpt lat="50.57924" lon="1.82298">
        <ele>67.91</ele>
        <time>2014-05-03T14:03:44Z</time>
      </trkpt>
      <trkpt lat="50.57913" lon="1.823">
        <ele>68.87</ele>
        <time>2014-05-03T14:03:50Z</time>
      </trkpt>
      <trkpt lat="50.57904" lon="1.82301">
        <ele>68.87</ele>
        <time>2014-05-03T14:03:56Z</time>
      </trkpt>
      <trkpt lat="50.57895" lon="1.82305">
        <ele>70.31</ele>
        <time>2014-05-03T14:04:02Z</time>
      </trkpt>
      <trkpt lat="50.57884" lon="1.82312">
        <ele>69.35</ele>
        <time>2014-05-03T14:04:08Z</time>
      </trkpt>
      <trkpt lat="50.57874" lon="1.82318">
        <ele>68.87</ele>
        <time>2014-05-03T14:04:14Z</time>
      </trkpt>
      <trkpt lat="50.57865" lon="1.82323">
        <ele>68.39</ele>
        <time>2014-05-03T14:04:20Z</time>
      </trkpt>
      <trkpt lat="50.57855" lon="1.8233">
        <ele>69.35</ele>
        <time>2014-05-03T14:04:26Z</time>
      </trkpt>
      <trkpt lat="50.57845" lon="1.82334">
        <ele>68.87</ele>
        <time>2014-05-03T14:04:32Z</time>
      </trkpt>
      <trkpt lat="50.57835" lon="1.82341">
        <ele>68.87</ele>
        <time>2014-05-03T14:04:39Z</time>
      </trkpt>
      <trkpt lat="50.57824" lon="1.82345">
        <ele>69.35</ele>
        <time>2014-05-03T14:04:45Z</time>
      </trkpt>
      <trkpt lat="50.57814" lon="1.82349">
        <ele>68.87</ele>
        <time>2014-05-03T14:04:51Z</time>
      </trkpt>
      <trkpt lat="50.57803" lon="1.82353">
        <ele>68.87</ele>
        <time>2014-05-03T14:04:57Z</time>
      </trkpt>
      <trkpt lat="50.57792" lon="1.82356">
        <ele>69.35</ele>
        <time>2014-05-03T14:05:03Z</time>
      </trkpt>
      <trkpt lat="50.57783" lon="1.82359">
        <ele>69.35</ele>
        <time>2014-05-03T14:05:09Z</time>
      </trkpt>
      <trkpt lat="50.57772" lon="1.82365">
        <ele>69.35</ele>
        <time>2014-05-03T14:05:15Z</time>
      </trkpt>
      <trkpt lat="50.57763" lon="1.82369">
        <ele>69.83</ele>
        <time>2014-05-03T14:05:21Z</time>
      </trkpt>
      <trkpt lat="50.57753" lon="1.82375">
        <ele>69.83</ele>
        <time>2014-05-03T14:05:27Z</time>
      </trkpt>
      <trkpt lat="50.57744" lon="1.82381">
        <ele>69.83</ele>
        <time>2014-05-03T14:05:32Z</time>
      </trkpt>
      <trkpt lat="50.57736" lon="1.82387">
        <ele>69.35</ele>
        <time>2014-05-03T14:05:37Z</time>
      </trkpt>
      <trkpt lat="50.57726" lon="1.82392">
        <ele>69.35</ele>
        <time>2014-05-03T14:05:44Z</time>
      </trkpt>
      <trkpt lat="50.57716" lon="1.82397">
        <ele>69.35</ele>
        <time>2014-05-03T14:05:50Z</time>
      </trkpt>
      <trkpt lat="50.57705" lon="1.82402">
        <ele>69.83</ele>
        <time>2014-05-03T14:05:56Z</time>
      </trkpt>
      <trkpt lat="50.57694" lon="1.82408">
        <ele>69.35</ele>
        <time>2014-05-03T14:06:02Z</time>
      </trkpt>
      <trkpt lat="50.57684" lon="1.82413">
        <ele>69.83</ele>
        <time>2014-05-03T14:06:08Z</time>
      </trkpt>
      <trkpt lat="50.57676" lon="1.82417">
        <ele>69.83</ele>
        <time>2014-05-03T14:06:14Z</time>
      </trkpt>
      <trkpt lat="50.57666" lon="1.82421">
        <ele>69.83</ele>
        <time>2014-05-03T14:06:21Z</time>
      </trkpt>
      <trkpt lat="50.57653" lon="1.82429">
        <ele>69.35</ele>
        <time>2014-05-03T14:06:27Z</time>
      </trkpt>
      <trkpt lat="50.57643" lon="1.82433">
        <ele>68.87</ele>
        <time>2014-05-03T14:06:33Z</time>
      </trkpt>
      <trkpt lat="50.57633" lon="1.82439">
        <ele>68.39</ele>
        <time>2014-05-03T14:06:38Z</time>
      </trkpt>
      <trkpt lat="50.57623" lon="1.82442">
        <ele>68.39</ele>
        <time>2014-05-03T14:06:44Z</time>
      </trkpt>
      <trkpt lat="50.57613" lon="1.82447">
        <ele>67.43</ele>
        <time>2014-05-03T14:06:49Z</time>
      </trkpt>
      <trkpt lat="50.57605" lon="1.82448">
        <ele>65.99</ele>
        <time>2014-05-03T14:06:54Z</time>
      </trkpt>
      <trkpt lat="50.57594" lon="1.8245">
        <ele>65.99</ele>
        <time>2014-05-03T14:07:00Z</time>
      </trkpt>
      <trkpt lat="50.57584" lon="1.82453">
        <ele>65.03</ele>
        <time>2014-05-03T14:07:05Z</time>
      </trkpt>
      <trkpt lat="50.57575" lon="1.82457">
        <ele>65.03</ele>
        <time>2014-05-03T14:07:11Z</time>
      </trkpt>
      <trkpt lat="50.57563" lon="1.82459">
        <ele>63.58</ele>
        <time>2014-05-03T14:07:19Z</time>
      </trkpt>
      <trkpt lat="50.57552" lon="1.82459">
        <ele>63.1</ele>
        <time>2014-05-03T14:07:25Z</time>
      </trkpt>
      <trkpt lat="50.57542" lon="1.8246">
        <ele>62.14</ele>
        <time>2014-05-03T14:07:31Z</time>
      </trkpt>
      <trkpt lat="50.57532" lon="1.82458">
        <ele>60.7</ele>
        <time>2014-05-03T14:07:37Z</time>
      </trkpt>
      <trkpt lat="50.57521" lon="1.82454">
        <ele>60.7</ele>
        <time>2014-05-03T14:07:43Z</time>
      </trkpt>
      <trkpt lat="50.57511" lon="1.82452">
        <ele>59.74</ele>
        <time>2014-05-03T14:07:48Z</time>
      </trkpt>
      <trkpt lat="50.57502" lon="1.82443">
        <ele>58.3</ele>
        <time>2014-05-03T14:07:55Z</time>
      </trkpt>
      <trkpt lat="50.57492" lon="1.82436">
        <ele>58.3</ele>
        <time>2014-05-03T14:08:01Z</time>
      </trkpt>
      <trkpt lat="50.57481" lon="1.8243">
        <ele>56.86</ele>
        <time>2014-05-03T14:08:07Z</time>
      </trkpt>
      <trkpt lat="50.5747" lon="1.82426">
        <ele>56.37</ele>
        <time>2014-05-03T14:08:13Z</time>
      </trkpt>
      <trkpt lat="50.57459" lon="1.82421">
        <ele>54.93</ele>
        <time>2014-05-03T14:08:20Z</time>
      </trkpt>
      <trkpt lat="50.57449" lon="1.82419">
        <ele>54.45</ele>
        <time>2014-05-03T14:08:26Z</time>
      </trkpt>
      <trkpt lat="50.57439" lon="1.82411">
        <ele>53.97</ele>
        <time>2014-05-03T14:08:33Z</time>
      </trkpt>
      <trkpt lat="50.5743" lon="1.82406">
        <ele>53.97</ele>
        <time>2014-05-03T14:08:39Z</time>
      </trkpt>
      <trkpt lat="50.57422" lon="1.82412">
        <ele>53.49</ele>
        <time>2014-05-03T14:08:47Z</time>
      </trkpt>
      <trkpt lat="50.57424" lon="1.8243">
        <ele>53.97</ele>
        <time>2014-05-03T14:08:54Z</time>
      </trkpt>
      <trkpt lat="50.57428" lon="1.82448">
        <ele>53.01</ele>
        <time>2014-05-03T14:09:00Z</time>
      </trkpt>
      <trkpt lat="50.57435" lon="1.82463">
        <ele>53.01</ele>
        <time>2014-05-03T14:09:05Z</time>
      </trkpt>
      <trkpt lat="50.57441" lon="1.82477">
        <ele>53.49</ele>
        <time>2014-05-03T14:09:10Z</time>
      </trkpt>
      <trkpt lat="50.57447" lon="1.82493">
        <ele>53.49</ele>
        <time>2014-05-03T14:09:16Z</time>
      </trkpt>
      <trkpt lat="50.57451" lon="1.82507">
        <ele>53.49</ele>
        <time>2014-05-03T14:09:22Z</time>
      </trkpt>
      <trkpt lat="50.57455" lon="1.82523">
        <ele>52.53</ele>
        <time>2014-05-03T14:09:28Z</time>
      </trkpt>
      <trkpt lat="50.57459" lon="1.82537">
        <ele>52.53</ele>
        <time>2014-05-03T14:09:33Z</time>
      </trkpt>
      <trkpt lat="50.57464" lon="1.82552">
        <ele>52.53</ele>
        <time>2014-05-03T14:09:39Z</time>
      </trkpt>
      <trkpt lat="50.57467" lon="1.8257">
        <ele>53.01</ele>
        <time>2014-05-03T14:09:46Z</time>
      </trkpt>
      <trkpt lat="50.57468" lon="1.82589">
        <ele>52.05</ele>
        <time>2014-05-03T14:09:53Z</time>
      </trkpt>
      <trkpt lat="50.57468" lon="1.82611">
        <ele>51.57</ele>
        <time>2014-05-03T14:10:00Z</time>
      </trkpt>
      <trkpt lat="50.57468" lon="1.82628">
        <ele>51.57</ele>
        <time>2014-05-03T14:10:06Z</time>
      </trkpt>
      <trkpt lat="50.57469" lon="1.82644">
        <ele>50.61</ele>
        <time>2014-05-03T14:10:12Z</time>
      </trkpt>
      <trkpt lat="50.5747" lon="1.82662">
        <ele>49.65</ele>
        <time>2014-05-03T14:10:18Z</time>
      </trkpt>
      <trkpt lat="50.57468" lon="1.82682">
        <ele>48.68</ele>
        <time>2014-05-03T14:10:24Z</time>
      </trkpt>
      <trkpt lat="50.57472" lon="1.82698">
        <ele>49.65</ele>
        <time>2014-05-03T14:10:30Z</time>
      </trkpt>
      <trkpt lat="50.57475" lon="1.82714">
        <ele>49.16</ele>
        <time>2014-05-03T14:10:37Z</time>
      </trkpt>
      <trkpt lat="50.57477" lon="1.8273">
        <ele>49.16</ele>
        <time>2014-05-03T14:10:42Z</time>
      </trkpt>
      <trkpt lat="50.57481" lon="1.82745">
        <ele>48.2</ele>
        <time>2014-05-03T14:10:48Z</time>
      </trkpt>
      <trkpt lat="50.57485" lon="1.8276">
        <ele>49.16</ele>
        <time>2014-05-03T14:10:54Z</time>
      </trkpt>
      <trkpt lat="50.57488" lon="1.82775">
        <ele>48.2</ele>
        <time>2014-05-03T14:11:00Z</time>
      </trkpt>
      <trkpt lat="50.57499" lon="1.82786">
        <ele>48.2</ele>
        <time>2014-05-03T14:11:06Z</time>
      </trkpt>
      <trkpt lat="50.57502" lon="1.82801">
        <ele>48.2</ele>
        <time>2014-05-03T14:11:12Z</time>
      </trkpt>
      <trkpt lat="50.57507" lon="1.82815">
        <ele>48.68</ele>
        <time>2014-05-03T14:11:18Z</time>
      </trkpt>
      <trkpt lat="50.5751" lon="1.82832">
        <ele>47.72</ele>
        <time>2014-05-03T14:11:24Z</time>
      </trkpt>
      <trkpt lat="50.57511" lon="1.82847">
        <ele>48.68</ele>
        <time>2014-05-03T14:11:30Z</time>
      </trkpt>
      <trkpt lat="50.57513" lon="1.82863">
        <ele>48.2</ele>
        <time>2014-05-03T14:11:37Z</time>
      </trkpt>
      <trkpt lat="50.57514" lon="1.82879">
        <ele>49.65</ele>
        <time>2014-05-03T14:11:43Z</time>
      </trkpt>
      <trkpt lat="50.57517" lon="1.82897">
        <ele>49.65</ele>
        <time>2014-05-03T14:11:50Z</time>
      </trkpt>
      <trkpt lat="50.57524" lon="1.82913">
        <ele>49.16</ele>
        <time>2014-05-03T14:11:56Z</time>
      </trkpt>
      <trkpt lat="50.57531" lon="1.82923">
        <ele>48.68</ele>
        <time>2014-05-03T14:12:02Z</time>
      </trkpt>
      <trkpt lat="50.57539" lon="1.82931">
        <ele>48.68</ele>
        <time>2014-05-03T14:12:10Z</time>
      </trkpt>
      <trkpt lat="50.57545" lon="1.82934">
        <ele>47.72</ele>
        <time>2014-05-03T14:12:45Z</time>
      </trkpt>
      <trkpt lat="50.57555" lon="1.8294">
        <ele>47.24</ele>
        <time>2014-05-03T14:12:52Z</time>
      </trkpt>
      <trkpt lat="50.57565" lon="1.82947">
        <ele>48.68</ele>
        <time>2014-05-03T14:12:59Z</time>
      </trkpt>
      <trkpt lat="50.57578" lon="1.82951">
        <ele>47.72</ele>
        <time>2014-05-03T14:13:06Z</time>
      </trkpt>
      <trkpt lat="50.57588" lon="1.82959">
        <ele>47.72</ele>
        <time>2014-05-03T14:13:13Z</time>
      </trkpt>
      <trkpt lat="50.57597" lon="1.82966">
        <ele>47.24</ele>
        <time>2014-05-03T14:13:20Z</time>
      </trkpt>
      <trkpt lat="50.57605" lon="1.82975">
        <ele>48.68</ele>
        <time>2014-05-03T14:13:27Z</time>
      </trkpt>
      <trkpt lat="50.57613" lon="1.82985">
        <ele>48.68</ele>
        <time>2014-05-03T14:13:34Z</time>
      </trkpt>
      <trkpt lat="50.57614" lon="1.83">
        <ele>49.16</ele>
        <time>2014-05-03T14:13:41Z</time>
      </trkpt>
      <trkpt lat="50.57607" lon="1.83009">
        <ele>48.68</ele>
        <time>2014-05-03T14:13:47Z</time>
      </trkpt>
      <trkpt lat="50.57597" lon="1.83019">
        <ele>47.72</ele>
        <time>2014-05-03T14:13:53Z</time>
      </trkpt>
      <trkpt lat="50.57586" lon="1.83026">
        <ele>48.2</ele>
        <time>2014-05-03T14:13:59Z</time>
      </trkpt>
      <trkpt lat="50.57576" lon="1.83032">
        <ele>48.68</ele>
        <time>2014-05-03T14:14:05Z</time>
      </trkpt>
      <trkpt lat="50.57567" lon="1.83041">
        <ele>48.2</ele>
        <time>2014-05-03T14:14:11Z</time>
      </trkpt>
      <trkpt lat="50.57559" lon="1.83049">
        <ele>47.72</ele>
        <time>2014-05-03T14:14:17Z</time>
      </trkpt>
      <trkpt lat="50.57551" lon="1.83059">
        <ele>48.2</ele>
        <time>2014-05-03T14:14:23Z</time>
      </trkpt>
      <trkpt lat="50.57544" lon="1.83071">
        <ele>48.2</ele>
        <time>2014-05-03T14:14:29Z</time>
      </trkpt>
      <trkpt lat="50.57537" lon="1.8308">
        <ele>47.72</ele>
        <time>2014-05-03T14:14:35Z</time>
      </trkpt>
      <trkpt lat="50.57527" lon="1.83089">
        <ele>47.72</ele>
        <time>2014-05-03T14:14:42Z</time>
      </trkpt>
      <trkpt lat="50.57517" lon="1.83094">
        <ele>48.2</ele>
        <time>2014-05-03T14:14:48Z</time>
      </trkpt>
      <trkpt lat="50.57507" lon="1.831">
        <ele>47.72</ele>
        <time>2014-05-03T14:14:54Z</time>
      </trkpt>
      <trkpt lat="50.57499" lon="1.83106">
        <ele>47.72</ele>
        <time>2014-05-03T14:15:00Z</time>
      </trkpt>
      <trkpt lat="50.5749" lon="1.83113">
        <ele>48.2</ele>
        <time>2014-05-03T14:15:06Z</time>
      </trkpt>
      <trkpt lat="50.57481" lon="1.83122">
        <ele>48.68</ele>
        <time>2014-05-03T14:15:12Z</time>
      </trkpt>
      <trkpt lat="50.57473" lon="1.83129">
        <ele>49.16</ele>
        <time>2014-05-03T14:15:18Z</time>
      </trkpt>
      <trkpt lat="50.57464" lon="1.83135">
        <ele>48.2</ele>
        <time>2014-05-03T14:15:24Z</time>
      </trkpt>
      <trkpt lat="50.57454" lon="1.83145">
        <ele>48.68</ele>
        <time>2014-05-03T14:15:30Z</time>
      </trkpt>
      <trkpt lat="50.57444" lon="1.83153">
        <ele>49.16</ele>
        <time>2014-05-03T14:15:37Z</time>
      </trkpt>
      <trkpt lat="50.57436" lon="1.8316">
        <ele>49.16</ele>
        <time>2014-05-03T14:15:43Z</time>
      </trkpt>
      <trkpt lat="50.57428" lon="1.83169">
        <ele>49.65</ele>
        <time>2014-05-03T14:15:49Z</time>
      </trkpt>
      <trkpt lat="50.57419" lon="1.83177">
        <ele>48.68</ele>
        <time>2014-05-03T14:15:56Z</time>
      </trkpt>
      <trkpt lat="50.57409" lon="1.83184">
        <ele>49.16</ele>
        <time>2014-05-03T14:16:03Z</time>
      </trkpt>
      <trkpt lat="50.57397" lon="1.83192">
        <ele>49.65</ele>
        <time>2014-05-03T14:16:10Z</time>
      </trkpt>
      <trkpt lat="50.57385" lon="1.832">
        <ele>50.61</ele>
        <time>2014-05-03T14:16:18Z</time>
      </trkpt>
      <trkpt lat="50.57375" lon="1.83208">
        <ele>51.09</ele>
        <time>2014-05-03T14:16:26Z</time>
      </trkpt>
      <trkpt lat="50.5736" lon="1.83214">
        <ele>52.05</ele>
        <time>2014-05-03T14:16:33Z</time>
      </trkpt>
      <trkpt lat="50.5735" lon="1.83222">
        <ele>52.05</ele>
        <time>2014-05-03T14:16:40Z</time>
      </trkpt>
      <trkpt lat="50.57339" lon="1.83227">
        <ele>52.53</ele>
        <time>2014-05-03T14:16:46Z</time>
      </trkpt>
      <trkpt lat="50.5733" lon="1.83236">
        <ele>53.49</ele>
        <time>2014-05-03T14:16:52Z</time>
      </trkpt>
      <trkpt lat="50.57322" lon="1.83244">
        <ele>53.49</ele>
        <time>2014-05-03T14:16:58Z</time>
      </trkpt>
      <trkpt lat="50.57314" lon="1.83254">
        <ele>53.49</ele>
        <time>2014-05-03T14:17:04Z</time>
      </trkpt>
      <trkpt lat="50.57306" lon="1.83263">
        <ele>54.93</ele>
        <time>2014-05-03T14:17:10Z</time>
      </trkpt>
      <trkpt lat="50.57299" lon="1.83273">
        <ele>55.41</ele>
        <time>2014-05-03T14:17:16Z</time>
      </trkpt>
      <trkpt lat="50.57292" lon="1.83286">
        <ele>55.41</ele>
        <time>2014-05-03T14:17:22Z</time>
      </trkpt>
      <trkpt lat="50.57287" lon="1.83298">
        <ele>56.37</ele>
        <time>2014-05-03T14:17:28Z</time>
      </trkpt>
      <trkpt lat="50.57282" lon="1.83314">
        <ele>56.86</ele>
        <time>2014-05-03T14:17:34Z</time>
      </trkpt>
      <trkpt lat="50.57279" lon="1.8333">
        <ele>57.34</ele>
        <time>2014-05-03T14:17:40Z</time>
      </trkpt>
      <trkpt lat="50.57277" lon="1.83343">
        <ele>57.82</ele>
        <time>2014-05-03T14:17:45Z</time>
      </trkpt>
      <trkpt lat="50.57276" lon="1.83358">
        <ele>57.82</ele>
        <time>2014-05-03T14:17:51Z</time>
      </trkpt>
      <trkpt lat="50.57275" lon="1.83374">
        <ele>57.82</ele>
        <time>2014-05-03T14:17:57Z</time>
      </trkpt>
      <trkpt lat="50.57275" lon="1.83388">
        <ele>58.3</ele>
        <time>2014-05-03T14:18:03Z</time>
      </trkpt>
      <trkpt lat="50.57273" lon="1.83402">
        <ele>57.82</ele>
        <time>2014-05-03T14:18:09Z</time>
      </trkpt>
      <trkpt lat="50.57271" lon="1.83418">
        <ele>57.82</ele>
        <time>2014-05-03T14:18:15Z</time>
      </trkpt>
      <trkpt lat="50.57272" lon="1.83432">
        <ele>57.82</ele>
        <time>2014-05-03T14:18:21Z</time>
      </trkpt>
      <trkpt lat="50.57274" lon="1.83446">
        <ele>57.82</ele>
        <time>2014-05-03T14:18:27Z</time>
      </trkpt>
      <trkpt lat="50.57273" lon="1.83462">
        <ele>57.82</ele>
        <time>2014-05-03T14:18:33Z</time>
      </trkpt>
      <trkpt lat="50.57273" lon="1.83479">
        <ele>57.82</ele>
        <time>2014-05-03T14:18:39Z</time>
      </trkpt>
      <trkpt lat="50.57274" lon="1.83494">
        <ele>57.82</ele>
        <time>2014-05-03T14:18:45Z</time>
      </trkpt>
      <trkpt lat="50.57275" lon="1.83511">
        <ele>58.3</ele>
        <time>2014-05-03T14:18:51Z</time>
      </trkpt>
      <trkpt lat="50.57275" lon="1.83526">
        <ele>57.34</ele>
        <time>2014-05-03T14:18:58Z</time>
      </trkpt>
      <trkpt lat="50.57267" lon="1.83536">
        <ele>55.41</ele>
        <time>2014-05-03T14:19:05Z</time>
      </trkpt>
      <trkpt lat="50.57257" lon="1.83544">
        <ele>54.45</ele>
        <time>2014-05-03T14:19:12Z</time>
      </trkpt>
      <trkpt lat="50.57245" lon="1.83554">
        <ele>52.53</ele>
        <time>2014-05-03T14:19:19Z</time>
      </trkpt>
      <trkpt lat="50.57235" lon="1.83564">
        <ele>51.09</ele>
        <time>2014-05-03T14:19:27Z</time>
      </trkpt>
      <trkpt lat="50.57223" lon="1.83569">
        <ele>51.09</ele>
        <time>2014-05-03T14:19:33Z</time>
      </trkpt>
      <trkpt lat="50.57214" lon="1.83576">
        <ele>49.65</ele>
        <time>2014-05-03T14:19:40Z</time>
      </trkpt>
      <trkpt lat="50.57201" lon="1.83582">
        <ele>48.2</ele>
        <time>2014-05-03T14:19:47Z</time>
      </trkpt>
      <trkpt lat="50.57193" lon="1.83593">
        <ele>47.72</ele>
        <time>2014-05-03T14:19:54Z</time>
      </trkpt>
      <trkpt lat="50.57189" lon="1.83606">
        <ele>47.72</ele>
        <time>2014-05-03T14:20:00Z</time>
      </trkpt>
      <trkpt lat="50.57185" lon="1.83621">
        <ele>48.2</ele>
        <time>2014-05-03T14:20:06Z</time>
      </trkpt>
      <trkpt lat="50.5718" lon="1.83637">
        <ele>47.72</ele>
        <time>2014-05-03T14:20:12Z</time>
      </trkpt>
      <trkpt lat="50.57175" lon="1.83653">
        <ele>48.2</ele>
        <time>2014-05-03T14:20:18Z</time>
      </trkpt>
      <trkpt lat="50.5717" lon="1.83664">
        <ele>48.68</ele>
        <time>2014-05-03T14:20:23Z</time>
      </trkpt>
      <trkpt lat="50.57163" lon="1.83675">
        <ele>48.68</ele>
        <time>2014-05-03T14:20:29Z</time>
      </trkpt>
      <trkpt lat="50.57155" lon="1.83686">
        <ele>47.24</ele>
        <time>2014-05-03T14:20:35Z</time>
      </trkpt>
      <trkpt lat="50.5715" lon="1.837">
        <ele>46.76</ele>
        <time>2014-05-03T14:20:41Z</time>
      </trkpt>
      <trkpt lat="50.57142" lon="1.83711">
        <ele>46.76</ele>
        <time>2014-05-03T14:20:47Z</time>
      </trkpt>
      <trkpt lat="50.57136" lon="1.83725">
        <ele>46.76</ele>
        <time>2014-05-03T14:20:54Z</time>
      </trkpt>
      <trkpt lat="50.57128" lon="1.83733">
        <ele>46.76</ele>
        <time>2014-05-03T14:21:00Z</time>
      </trkpt>
      <trkpt lat="50.57119" lon="1.8374">
        <ele>47.72</ele>
        <time>2014-05-03T14:21:06Z</time>
      </trkpt>
      <trkpt lat="50.5711" lon="1.83745">
        <ele>46.76</ele>
        <time>2014-05-03T14:21:12Z</time>
      </trkpt>
      <trkpt lat="50.571" lon="1.8375">
        <ele>47.72</ele>
        <time>2014-05-03T14:21:18Z</time>
      </trkpt>
      <trkpt lat="50.57091" lon="1.83757">
        <ele>47.72</ele>
        <time>2014-05-03T14:21:24Z</time>
      </trkpt>
      <trkpt lat="50.57083" lon="1.83765">
        <ele>47.24</ele>
        <time>2014-05-03T14:21:30Z</time>
      </trkpt>
      <trkpt lat="50.57078" lon="1.83778">
        <ele>47.24</ele>
        <time>2014-05-03T14:21:36Z</time>
      </trkpt>
      <trkpt lat="50.57076" lon="1.83792">
        <ele>46.76</ele>
        <time>2014-05-03T14:21:42Z</time>
      </trkpt>
      <trkpt lat="50.57072" lon="1.83806">
        <ele>46.28</ele>
        <time>2014-05-03T14:21:48Z</time>
      </trkpt>
      <trkpt lat="50.57068" lon="1.83818">
        <ele>46.28</ele>
        <time>2014-05-03T14:21:53Z</time>
      </trkpt>
      <trkpt lat="50.57061" lon="1.83833">
        <ele>45.8</ele>
        <time>2014-05-03T14:21:59Z</time>
      </trkpt>
      <trkpt lat="50.57056" lon="1.83848">
        <ele>50.13</ele>
        <time>2014-05-03T14:22:05Z</time>
      </trkpt>
      <trkpt lat="50.57049" lon="1.83861">
        <ele>46.76</ele>
        <time>2014-05-03T14:22:11Z</time>
      </trkpt>
      <trkpt lat="50.57043" lon="1.83874">
        <ele>48.2</ele>
        <time>2014-05-03T14:22:17Z</time>
      </trkpt>
      <trkpt lat="50.57037" lon="1.83891">
        <ele>45.8</ele>
        <time>2014-05-03T14:22:23Z</time>
      </trkpt>
      <trkpt lat="50.57033" lon="1.83905">
        <ele>47.24</ele>
        <time>2014-05-03T14:22:29Z</time>
      </trkpt>
      <trkpt lat="50.57029" lon="1.8392">
        <ele>47.72</ele>
        <time>2014-05-03T14:22:35Z</time>
      </trkpt>
      <trkpt lat="50.57024" lon="1.83934">
        <ele>48.2</ele>
        <time>2014-05-03T14:22:41Z</time>
      </trkpt>
      <trkpt lat="50.57021" lon="1.83949">
        <ele>48.68</ele>
        <time>2014-05-03T14:22:47Z</time>
      </trkpt>
      <trkpt lat="50.57018" lon="1.83964">
        <ele>48.68</ele>
        <time>2014-05-03T14:22:54Z</time>
      </trkpt>
      <trkpt lat="50.57014" lon="1.8398">
        <ele>47.24</ele>
        <time>2014-05-03T14:23:00Z</time>
      </trkpt>
      <trkpt lat="50.57011" lon="1.83997">
        <ele>47.72</ele>
        <time>2014-05-03T14:23:06Z</time>
      </trkpt>
      <trkpt lat="50.57008" lon="1.84015">
        <ele>48.2</ele>
        <time>2014-05-03T14:23:12Z</time>
      </trkpt>
      <trkpt lat="50.57004" lon="1.84031">
        <ele>50.13</ele>
        <time>2014-05-03T14:23:19Z</time>
      </trkpt>
      <trkpt lat="50.56999" lon="1.84046">
        <ele>50.13</ele>
        <time>2014-05-03T14:23:26Z</time>
      </trkpt>
      <trkpt lat="50.56995" lon="1.84061">
        <ele>49.16</ele>
        <time>2014-05-03T14:23:32Z</time>
      </trkpt>
      <trkpt lat="50.5699" lon="1.84076">
        <ele>49.65</ele>
        <time>2014-05-03T14:23:39Z</time>
      </trkpt>
      <trkpt lat="50.56985" lon="1.84092">
        <ele>50.61</ele>
        <time>2014-05-03T14:23:46Z</time>
      </trkpt>
      <trkpt lat="50.5698" lon="1.8411">
        <ele>50.61</ele>
        <time>2014-05-03T14:23:53Z</time>
      </trkpt>
      <trkpt lat="50.56978" lon="1.84127">
        <ele>50.13</ele>
        <time>2014-05-03T14:23:59Z</time>
      </trkpt>
      <trkpt lat="50.56976" lon="1.84143">
        <ele>50.61</ele>
        <time>2014-05-03T14:24:04Z</time>
      </trkpt>
      <trkpt lat="50.56974" lon="1.84162">
        <ele>51.09</ele>
        <time>2014-05-03T14:24:12Z</time>
      </trkpt>
      <trkpt lat="50.56973" lon="1.8418">
        <ele>51.57</ele>
        <time>2014-05-03T14:24:18Z</time>
      </trkpt>
      <trkpt lat="50.56971" lon="1.84199">
        <ele>52.05</ele>
        <time>2014-05-03T14:24:24Z</time>
      </trkpt>
      <trkpt lat="50.5697" lon="1.84218">
        <ele>52.53</ele>
        <time>2014-05-03T14:24:31Z</time>
      </trkpt>
      <trkpt lat="50.56969" lon="1.8424">
        <ele>50.61</ele>
        <time>2014-05-03T14:24:39Z</time>
      </trkpt>
      <trkpt lat="50.56968" lon="1.84257">
        <ele>52.53</ele>
        <time>2014-05-03T14:24:45Z</time>
      </trkpt>
      <trkpt lat="50.56965" lon="1.84276">
        <ele>52.53</ele>
        <time>2014-05-03T14:24:51Z</time>
      </trkpt>
      <trkpt lat="50.56963" lon="1.84291">
        <ele>53.01</ele>
        <time>2014-05-03T14:24:56Z</time>
      </trkpt>
      <trkpt lat="50.5696" lon="1.84308">
        <ele>53.01</ele>
        <time>2014-05-03T14:25:01Z</time>
      </trkpt>
      <trkpt lat="50.56959" lon="1.84322">
        <ele>52.53</ele>
        <time>2014-05-03T14:25:06Z</time>
      </trkpt>
      <trkpt lat="50.56958" lon="1.84339">
        <ele>53.49</ele>
        <time>2014-05-03T14:25:12Z</time>
      </trkpt>
      <trkpt lat="50.56957" lon="1.84355">
        <ele>51.57</ele>
        <time>2014-05-03T14:25:18Z</time>
      </trkpt>
      <trkpt lat="50.56955" lon="1.84375">
        <ele>53.97</ele>
        <time>2014-05-03T14:25:26Z</time>
      </trkpt>
      <trkpt lat="50.56952" lon="1.84394">
        <ele>53.49</ele>
        <time>2014-05-03T14:25:33Z</time>
      </trkpt>
      <trkpt lat="50.56951" lon="1.84413">
        <ele>53.97</ele>
        <time>2014-05-03T14:25:39Z</time>
      </trkpt>
      <trkpt lat="50.5695" lon="1.8443">
        <ele>54.93</ele>
        <time>2014-05-03T14:25:45Z</time>
      </trkpt>
      <trkpt lat="50.56949" lon="1.84447">
        <ele>54.93</ele>
        <time>2014-05-03T14:25:51Z</time>
      </trkpt>
      <trkpt lat="50.56947" lon="1.84463">
        <ele>55.41</ele>
        <time>2014-05-03T14:25:57Z</time>
      </trkpt>
      <trkpt lat="50.56946" lon="1.84478">
        <ele>55.41</ele>
        <time>2014-05-03T14:26:03Z</time>
      </trkpt>
      <trkpt lat="50.56946" lon="1.84494">
        <ele>54.93</ele>
        <time>2014-05-03T14:26:09Z</time>
      </trkpt>
      <trkpt lat="50.56945" lon="1.8451">
        <ele>54.45</ele>
        <time>2014-05-03T14:26:15Z</time>
      </trkpt>
      <trkpt lat="50.56945" lon="1.84525">
        <ele>54.93</ele>
        <time>2014-05-03T14:26:20Z</time>
      </trkpt>
      <trkpt lat="50.56944" lon="1.84542">
        <ele>54.93</ele>
        <time>2014-05-03T14:26:26Z</time>
      </trkpt>
      <trkpt lat="50.56944" lon="1.84558">
        <ele>55.41</ele>
        <time>2014-05-03T14:26:31Z</time>
      </trkpt>
      <trkpt lat="50.56944" lon="1.84572">
        <ele>55.41</ele>
        <time>2014-05-03T14:26:36Z</time>
      </trkpt>
      <trkpt lat="50.56944" lon="1.84589">
        <ele>55.41</ele>
        <time>2014-05-03T14:26:42Z</time>
      </trkpt>
      <trkpt lat="50.56943" lon="1.84605">
        <ele>54.93</ele>
        <time>2014-05-03T14:26:48Z</time>
      </trkpt>
      <trkpt lat="50.56944" lon="1.84621">
        <ele>54.93</ele>
        <time>2014-05-03T14:26:54Z</time>
      </trkpt>
      <trkpt lat="50.56943" lon="1.84639">
        <ele>55.41</ele>
        <time>2014-05-03T14:27:00Z</time>
      </trkpt>
      <trkpt lat="50.56941" lon="1.84654">
        <ele>55.89</ele>
        <time>2014-05-03T14:27:05Z</time>
      </trkpt>
      <trkpt lat="50.5694" lon="1.84672">
        <ele>55.89</ele>
        <time>2014-05-03T14:27:11Z</time>
      </trkpt>
      <trkpt lat="50.5694" lon="1.84687">
        <ele>55.89</ele>
        <time>2014-05-03T14:27:16Z</time>
      </trkpt>
      <trkpt lat="50.56939" lon="1.84703">
        <ele>55.41</ele>
        <time>2014-05-03T14:27:21Z</time>
      </trkpt>
      <trkpt lat="50.56939" lon="1.8472">
        <ele>55.41</ele>
        <time>2014-05-03T14:27:27Z</time>
      </trkpt>
      <trkpt lat="50.56939" lon="1.84738">
        <ele>55.41</ele>
        <time>2014-05-03T14:27:34Z</time>
      </trkpt>
      <trkpt lat="50.56939" lon="1.84755">
        <ele>56.86</ele>
        <time>2014-05-03T14:27:41Z</time>
      </trkpt>
      <trkpt lat="50.56938" lon="1.8477">
        <ele>55.41</ele>
        <time>2014-05-03T14:27:47Z</time>
      </trkpt>
      <trkpt lat="50.56937" lon="1.84787">
        <ele>55.89</ele>
        <time>2014-05-03T14:27:54Z</time>
      </trkpt>
      <trkpt lat="50.56935" lon="1.84803">
        <ele>54.45</ele>
        <time>2014-05-03T14:28:01Z</time>
      </trkpt>
      <trkpt lat="50.56934" lon="1.84819">
        <ele>54.93</ele>
        <time>2014-05-03T14:28:07Z</time>
      </trkpt>
      <trkpt lat="50.56934" lon="1.84835">
        <ele>53.97</ele>
        <time>2014-05-03T14:28:12Z</time>
      </trkpt>
      <trkpt lat="50.56934" lon="1.8485">
        <ele>54.45</ele>
        <time>2014-05-03T14:28:17Z</time>
      </trkpt>
      <trkpt lat="50.56934" lon="1.84868">
        <ele>54.45</ele>
        <time>2014-05-03T14:28:23Z</time>
      </trkpt>
      <trkpt lat="50.56935" lon="1.84884">
        <ele>54.93</ele>
        <time>2014-05-03T14:28:29Z</time>
      </trkpt>
      <trkpt lat="50.56936" lon="1.84903">
        <ele>54.93</ele>
        <time>2014-05-03T14:28:35Z</time>
      </trkpt>
      <trkpt lat="50.56937" lon="1.84919">
        <ele>54.93</ele>
        <time>2014-05-03T14:28:41Z</time>
      </trkpt>
      <trkpt lat="50.56937" lon="1.84933">
        <ele>54.93</ele>
        <time>2014-05-03T14:28:46Z</time>
      </trkpt>
      <trkpt lat="50.56938" lon="1.84947">
        <ele>54.93</ele>
        <time>2014-05-03T14:28:51Z</time>
      </trkpt>
      <trkpt lat="50.56941" lon="1.84964">
        <ele>55.41</ele>
        <time>2014-05-03T14:28:57Z</time>
      </trkpt>
      <trkpt lat="50.56942" lon="1.84981">
        <ele>55.89</ele>
        <time>2014-05-03T14:29:03Z</time>
      </trkpt>
      <trkpt lat="50.56944" lon="1.84996">
        <ele>55.41</ele>
        <time>2014-05-03T14:29:08Z</time>
      </trkpt>
      <trkpt lat="50.56946" lon="1.85011">
        <ele>55.89</ele>
        <time>2014-05-03T14:29:13Z</time>
      </trkpt>
      <trkpt lat="50.56949" lon="1.85025">
        <ele>55.89</ele>
        <time>2014-05-03T14:29:18Z</time>
      </trkpt>
      <trkpt lat="50.56952" lon="1.85041">
        <ele>55.89</ele>
        <time>2014-05-03T14:29:24Z</time>
      </trkpt>
      <trkpt lat="50.56954" lon="1.85055">
        <ele>56.37</ele>
        <time>2014-05-03T14:29:29Z</time>
      </trkpt>
      <trkpt lat="50.56957" lon="1.8507">
        <ele>56.37</ele>
        <time>2014-05-03T14:29:35Z</time>
      </trkpt>
      <trkpt lat="50.5696" lon="1.85088">
        <ele>56.86</ele>
        <time>2014-05-03T14:29:42Z</time>
      </trkpt>
      <trkpt lat="50.56964" lon="1.85105">
        <ele>55.89</ele>
        <time>2014-05-03T14:29:49Z</time>
      </trkpt>
      <trkpt lat="50.56965" lon="1.85121">
        <ele>56.37</ele>
        <time>2014-05-03T14:29:55Z</time>
      </trkpt>
      <trkpt lat="50.56966" lon="1.85139">
        <ele>57.34</ele>
        <time>2014-05-03T14:30:01Z</time>
      </trkpt>
      <trkpt lat="50.56966" lon="1.8516">
        <ele>56.86</ele>
        <time>2014-05-03T14:30:07Z</time>
      </trkpt>
      <trkpt lat="50.56963" lon="1.85175">
        <ele>57.82</ele>
        <time>2014-05-03T14:30:13Z</time>
      </trkpt>
      <trkpt lat="50.5696" lon="1.85193">
        <ele>57.82</ele>
        <time>2014-05-03T14:30:19Z</time>
      </trkpt>
      <trkpt lat="50.56957" lon="1.8521">
        <ele>57.82</ele>
        <time>2014-05-03T14:30:25Z</time>
      </trkpt>
      <trkpt lat="50.56956" lon="1.85224">
        <ele>58.3</ele>
        <time>2014-05-03T14:30:30Z</time>
      </trkpt>
      <trkpt lat="50.56955" lon="1.85239">
        <ele>58.78</ele>
        <time>2014-05-03T14:30:35Z</time>
      </trkpt>
      <trkpt lat="50.56953" lon="1.85256">
        <ele>58.78</ele>
        <time>2014-05-03T14:30:41Z</time>
      </trkpt>
      <trkpt lat="50.56951" lon="1.85271">
        <ele>58.3</ele>
        <time>2014-05-03T14:30:46Z</time>
      </trkpt>
      <trkpt lat="50.56949" lon="1.85287">
        <ele>59.74</ele>
        <time>2014-05-03T14:30:52Z</time>
      </trkpt>
      <trkpt lat="50.56948" lon="1.85303">
        <ele>59.74</ele>
        <time>2014-05-03T14:30:58Z</time>
      </trkpt>
      <trkpt lat="50.56947" lon="1.8532">
        <ele>60.7</ele>
        <time>2014-05-03T14:31:04Z</time>
      </trkpt>
      <trkpt lat="50.56945" lon="1.85337">
        <ele>59.74</ele>
        <time>2014-05-03T14:31:10Z</time>
      </trkpt>
      <trkpt lat="50.56943" lon="1.85351">
        <ele>60.7</ele>
        <time>2014-05-03T14:31:15Z</time>
      </trkpt>
      <trkpt lat="50.56942" lon="1.85366">
        <ele>60.7</ele>
        <time>2014-05-03T14:31:20Z</time>
      </trkpt>
      <trkpt lat="50.56942" lon="1.8538">
        <ele>60.7</ele>
        <time>2014-05-03T14:31:25Z</time>
      </trkpt>
      <trkpt lat="50.5694" lon="1.85396">
        <ele>62.14</ele>
        <time>2014-05-03T14:31:31Z</time>
      </trkpt>
      <trkpt lat="50.56939" lon="1.85413">
        <ele>62.62</ele>
        <time>2014-05-03T14:31:37Z</time>
      </trkpt>
      <trkpt lat="50.56938" lon="1.85429">
        <ele>63.58</ele>
        <time>2014-05-03T14:31:42Z</time>
      </trkpt>
      <trkpt lat="50.56937" lon="1.85445">
        <ele>63.58</ele>
        <time>2014-05-03T14:31:48Z</time>
      </trkpt>
      <trkpt lat="50.56937" lon="1.85462">
        <ele>64.07</ele>
        <time>2014-05-03T14:31:54Z</time>
      </trkpt>
      <trkpt lat="50.56937" lon="1.85477">
        <ele>64.07</ele>
        <time>2014-05-03T14:32:00Z</time>
      </trkpt>
      <trkpt lat="50.56938" lon="1.85492">
        <ele>63.58</ele>
        <time>2014-05-03T14:32:06Z</time>
      </trkpt>
      <trkpt lat="50.56941" lon="1.85509">
        <ele>63.1</ele>
        <time>2014-05-03T14:32:12Z</time>
      </trkpt>
      <trkpt lat="50.56941" lon="1.85524">
        <ele>62.62</ele>
        <time>2014-05-03T14:32:17Z</time>
      </trkpt>
      <trkpt lat="50.56941" lon="1.85539">
        <ele>62.62</ele>
        <time>2014-05-03T14:32:22Z</time>
      </trkpt>
      <trkpt lat="50.56941" lon="1.85554">
        <ele>61.66</ele>
        <time>2014-05-03T14:32:27Z</time>
      </trkpt>
      <trkpt lat="50.56942" lon="1.8557">
        <ele>62.62</ele>
        <time>2014-05-03T14:32:33Z</time>
      </trkpt>
      <trkpt lat="50.56941" lon="1.85585">
        <ele>62.14</ele>
        <time>2014-05-03T14:32:38Z</time>
      </trkpt>
      <trkpt lat="50.56941" lon="1.856">
        <ele>61.66</ele>
        <time>2014-05-03T14:32:43Z</time>
      </trkpt>
      <trkpt lat="50.56943" lon="1.85614">
        <ele>61.66</ele>
        <time>2014-05-03T14:32:48Z</time>
      </trkpt>
      <trkpt lat="50.56943" lon="1.8563">
        <ele>61.18</ele>
        <time>2014-05-03T14:32:54Z</time>
      </trkpt>
      <trkpt lat="50.56943" lon="1.85647">
        <ele>60.7</ele>
        <time>2014-05-03T14:33:01Z</time>
      </trkpt>
      <trkpt lat="50.56944" lon="1.85665">
        <ele>61.18</ele>
        <time>2014-05-03T14:33:07Z</time>
      </trkpt>
      <trkpt lat="50.56947" lon="1.85681">
        <ele>60.7</ele>
        <time>2014-05-03T14:33:13Z</time>
      </trkpt>
      <trkpt lat="50.56948" lon="1.85698">
        <ele>60.22</ele>
        <time>2014-05-03T14:33:19Z</time>
      </trkpt>
      <trkpt lat="50.5695" lon="1.85712">
        <ele>60.7</ele>
        <time>2014-05-03T14:33:24Z</time>
      </trkpt>
      <trkpt lat="50.56952" lon="1.85727">
        <ele>60.22</ele>
        <time>2014-05-03T14:33:29Z</time>
      </trkpt>
      <trkpt lat="50.56955" lon="1.85742">
        <ele>60.22</ele>
        <time>2014-05-03T14:33:35Z</time>
      </trkpt>
      <trkpt lat="50.56958" lon="1.8576">
        <ele>60.7</ele>
        <time>2014-05-03T14:33:41Z</time>
      </trkpt>
      <trkpt lat="50.5696" lon="1.85775">
        <ele>60.7</ele>
        <time>2014-05-03T14:33:46Z</time>
      </trkpt>
      <trkpt lat="50.56962" lon="1.85789">
        <ele>60.22</ele>
        <time>2014-05-03T14:33:51Z</time>
      </trkpt>
      <trkpt lat="50.56965" lon="1.85804">
        <ele>60.22</ele>
        <time>2014-05-03T14:33:56Z</time>
      </trkpt>
      <trkpt lat="50.56968" lon="1.85818">
        <ele>60.22</ele>
        <time>2014-05-03T14:34:01Z</time>
      </trkpt>
      <trkpt lat="50.56972" lon="1.85834">
        <ele>59.74</ele>
        <time>2014-05-03T14:34:07Z</time>
      </trkpt>
      <trkpt lat="50.56974" lon="1.85849">
        <ele>60.7</ele>
        <time>2014-05-03T14:34:12Z</time>
      </trkpt>
      <trkpt lat="50.56978" lon="1.85866">
        <ele>60.7</ele>
        <time>2014-05-03T14:34:18Z</time>
      </trkpt>
      <trkpt lat="50.56981" lon="1.85881">
        <ele>59.74</ele>
        <time>2014-05-03T14:34:23Z</time>
      </trkpt>
      <trkpt lat="50.56984" lon="1.85895">
        <ele>60.22</ele>
        <time>2014-05-03T14:34:28Z</time>
      </trkpt>
      <trkpt lat="50.56988" lon="1.85913">
        <ele>60.22</ele>
        <time>2014-05-03T14:34:34Z</time>
      </trkpt>
      <trkpt lat="50.56992" lon="1.85932">
        <ele>60.22</ele>
        <time>2014-05-03T14:34:40Z</time>
      </trkpt>
      <trkpt lat="50.56995" lon="1.85948">
        <ele>60.22</ele>
        <time>2014-05-03T14:34:46Z</time>
      </trkpt>
      <trkpt lat="50.56997" lon="1.85961">
        <ele>61.18</ele>
        <time>2014-05-03T14:34:56Z</time>
      </trkpt>
      <trkpt lat="50.57002" lon="1.85975">
        <ele>60.22</ele>
        <time>2014-05-03T14:35:04Z</time>
      </trkpt>
      <trkpt lat="50.57006" lon="1.8599">
        <ele>60.22</ele>
        <time>2014-05-03T14:35:10Z</time>
      </trkpt>
      <trkpt lat="50.57009" lon="1.86007">
        <ele>60.22</ele>
        <time>2014-05-03T14:35:16Z</time>
      </trkpt>
      <trkpt lat="50.57013" lon="1.86021">
        <ele>60.7</ele>
        <time>2014-05-03T14:35:22Z</time>
      </trkpt>
      <trkpt lat="50.57016" lon="1.86039">
        <ele>61.18</ele>
        <time>2014-05-03T14:35:28Z</time>
      </trkpt>
      <trkpt lat="50.57019" lon="1.86055">
        <ele>61.66</ele>
        <time>2014-05-03T14:35:34Z</time>
      </trkpt>
      <trkpt lat="50.57023" lon="1.86072">
        <ele>62.14</ele>
        <time>2014-05-03T14:35:40Z</time>
      </trkpt>
      <trkpt lat="50.57026" lon="1.86087">
        <ele>62.14</ele>
        <time>2014-05-03T14:35:46Z</time>
      </trkpt>
      <trkpt lat="50.57029" lon="1.86104">
        <ele>62.14</ele>
        <time>2014-05-03T14:35:52Z</time>
      </trkpt>
      <trkpt lat="50.57032" lon="1.8612">
        <ele>62.62</ele>
        <time>2014-05-03T14:35:58Z</time>
      </trkpt>
      <trkpt lat="50.57036" lon="1.86136">
        <ele>63.1</ele>
        <time>2014-05-03T14:36:04Z</time>
      </trkpt>
      <trkpt lat="50.5704" lon="1.86151">
        <ele>63.1</ele>
        <time>2014-05-03T14:36:10Z</time>
      </trkpt>
      <trkpt lat="50.57042" lon="1.86167">
        <ele>63.1</ele>
        <time>2014-05-03T14:36:16Z</time>
      </trkpt>
      <trkpt lat="50.57042" lon="1.86183">
        <ele>63.1</ele>
        <time>2014-05-03T14:36:22Z</time>
      </trkpt>
      <trkpt lat="50.57043" lon="1.86199">
        <ele>63.58</ele>
        <time>2014-05-03T14:36:28Z</time>
      </trkpt>
      <trkpt lat="50.57042" lon="1.86215">
        <ele>64.07</ele>
        <time>2014-05-03T14:36:34Z</time>
      </trkpt>
      <trkpt lat="50.57041" lon="1.86231">
        <ele>65.03</ele>
        <time>2014-05-03T14:36:40Z</time>
      </trkpt>
      <trkpt lat="50.5704" lon="1.86247">
        <ele>65.03</ele>
        <time>2014-05-03T14:36:45Z</time>
      </trkpt>
      <trkpt lat="50.57039" lon="1.86262">
        <ele>65.03</ele>
        <time>2014-05-03T14:36:50Z</time>
      </trkpt>
      <trkpt lat="50.57038" lon="1.86277">
        <ele>65.51</ele>
        <time>2014-05-03T14:36:55Z</time>
      </trkpt>
      <trkpt lat="50.57038" lon="1.86292">
        <ele>65.51</ele>
        <time>2014-05-03T14:37:01Z</time>
      </trkpt>
      <trkpt lat="50.57037" lon="1.86309">
        <ele>65.51</ele>
        <time>2014-05-03T14:37:07Z</time>
      </trkpt>
      <trkpt lat="50.57038" lon="1.86327">
        <ele>65.99</ele>
        <time>2014-05-03T14:37:13Z</time>
      </trkpt>
      <trkpt lat="50.57039" lon="1.86344">
        <ele>67.91</ele>
        <time>2014-05-03T14:37:19Z</time>
      </trkpt>
      <trkpt lat="50.57039" lon="1.86361">
        <ele>67.43</ele>
        <time>2014-05-03T14:37:25Z</time>
      </trkpt>
      <trkpt lat="50.57039" lon="1.86377">
        <ele>68.39</ele>
        <time>2014-05-03T14:37:31Z</time>
      </trkpt>
      <trkpt lat="50.57039" lon="1.86393">
        <ele>68.87</ele>
        <time>2014-05-03T14:37:37Z</time>
      </trkpt>
      <trkpt lat="50.5704" lon="1.86409">
        <ele>68.87</ele>
        <time>2014-05-03T14:37:43Z</time>
      </trkpt>
      <trkpt lat="50.57041" lon="1.86425">
        <ele>69.35</ele>
        <time>2014-05-03T14:37:48Z</time>
      </trkpt>
      <trkpt lat="50.57042" lon="1.86439">
        <ele>69.35</ele>
        <time>2014-05-03T14:37:54Z</time>
      </trkpt>
      <trkpt lat="50.57043" lon="1.86455">
        <ele>70.31</ele>
        <time>2014-05-03T14:38:00Z</time>
      </trkpt>
      <trkpt lat="50.57045" lon="1.86471">
        <ele>70.31</ele>
        <time>2014-05-03T14:38:06Z</time>
      </trkpt>
      <trkpt lat="50.57046" lon="1.86489">
        <ele>71.27</ele>
        <time>2014-05-03T14:38:13Z</time>
      </trkpt>
      <trkpt lat="50.57046" lon="1.86507">
        <ele>71.27</ele>
        <time>2014-05-03T14:38:19Z</time>
      </trkpt>
      <trkpt lat="50.57047" lon="1.86527">
        <ele>71.76</ele>
        <time>2014-05-03T14:38:26Z</time>
      </trkpt>
      <trkpt lat="50.57048" lon="1.86546">
        <ele>72.72</ele>
        <time>2014-05-03T14:38:33Z</time>
      </trkpt>
      <trkpt lat="50.57048" lon="1.86565">
        <ele>72.24</ele>
        <time>2014-05-03T14:38:39Z</time>
      </trkpt>
      <trkpt lat="50.57048" lon="1.86584">
        <ele>73.2</ele>
        <time>2014-05-03T14:38:45Z</time>
      </trkpt>
      <trkpt lat="50.57048" lon="1.86602">
        <ele>73.68</ele>
        <time>2014-05-03T14:38:51Z</time>
      </trkpt>
      <trkpt lat="50.57048" lon="1.86617">
        <ele>74.16</ele>
        <time>2014-05-03T14:38:56Z</time>
      </trkpt>
      <trkpt lat="50.57048" lon="1.86632">
        <ele>74.64</ele>
        <time>2014-05-03T14:39:01Z</time>
      </trkpt>
      <trkpt lat="50.57049" lon="1.86646">
        <ele>74.64</ele>
        <time>2014-05-03T14:39:06Z</time>
      </trkpt>
      <trkpt lat="50.57049" lon="1.86662">
        <ele>75.6</ele>
        <time>2014-05-03T14:39:11Z</time>
      </trkpt>
      <trkpt lat="50.5705" lon="1.86679">
        <ele>76.08</ele>
        <time>2014-05-03T14:39:17Z</time>
      </trkpt>
      <trkpt lat="50.5705" lon="1.86696">
        <ele>77.04</ele>
        <time>2014-05-03T14:39:23Z</time>
      </trkpt>
      <trkpt lat="50.57052" lon="1.86716">
        <ele>77.04</ele>
        <time>2014-05-03T14:39:29Z</time>
      </trkpt>
      <trkpt lat="50.57053" lon="1.86734">
        <ele>77.52</ele>
        <time>2014-05-03T14:39:35Z</time>
      </trkpt>
      <trkpt lat="50.57054" lon="1.86749">
        <ele>78.97</ele>
        <time>2014-05-03T14:39:40Z</time>
      </trkpt>
      <trkpt lat="50.57055" lon="1.86763">
        <ele>78.48</ele>
        <time>2014-05-03T14:39:45Z</time>
      </trkpt>
      <trkpt lat="50.57057" lon="1.86779">
        <ele>78.97</ele>
        <time>2014-05-03T14:39:51Z</time>
      </trkpt>
      <trkpt lat="50.57057" lon="1.86794">
        <ele>78.48</ele>
        <time>2014-05-03T14:39:56Z</time>
      </trkpt>
      <trkpt lat="50.57059" lon="1.86809">
        <ele>78.48</ele>
        <time>2014-05-03T14:40:02Z</time>
      </trkpt>
      <trkpt lat="50.57059" lon="1.86825">
        <ele>78.97</ele>
        <time>2014-05-03T14:40:08Z</time>
      </trkpt>
      <trkpt lat="50.5706" lon="1.86841">
        <ele>78.97</ele>
        <time>2014-05-03T14:40:14Z</time>
      </trkpt>
      <trkpt lat="50.57062" lon="1.86856">
        <ele>79.45</ele>
        <time>2014-05-03T14:40:20Z</time>
      </trkpt>
      <trkpt lat="50.57064" lon="1.86873">
        <ele>78.48</ele>
        <time>2014-05-03T14:40:26Z</time>
      </trkpt>
      <trkpt lat="50.57066" lon="1.86889">
        <ele>79.93</ele>
        <time>2014-05-03T14:40:31Z</time>
      </trkpt>
      <trkpt lat="50.57066" lon="1.86903">
        <ele>79.45</ele>
        <time>2014-05-03T14:40:36Z</time>
      </trkpt>
      <trkpt lat="50.57068" lon="1.8692">
        <ele>79.45</ele>
        <time>2014-05-03T14:40:42Z</time>
      </trkpt>
      <trkpt lat="50.57069" lon="1.86936">
        <ele>79.93</ele>
        <time>2014-05-03T14:40:48Z</time>
      </trkpt>
      <trkpt lat="50.57071" lon="1.86951">
        <ele>80.41</ele>
        <time>2014-05-03T14:40:54Z</time>
      </trkpt>
      <trkpt lat="50.57072" lon="1.86968">
        <ele>80.41</ele>
        <time>2014-05-03T14:41:00Z</time>
      </trkpt>
      <trkpt lat="50.57074" lon="1.86984">
        <ele>80.41</ele>
        <time>2014-05-03T14:41:05Z</time>
      </trkpt>
      <trkpt lat="50.57075" lon="1.87002">
        <ele>79.45</ele>
        <time>2014-05-03T14:41:11Z</time>
      </trkpt>
      <trkpt lat="50.57078" lon="1.87017">
        <ele>79.45</ele>
        <time>2014-05-03T14:41:16Z</time>
      </trkpt>
      <trkpt lat="50.57081" lon="1.87031">
        <ele>79.45</ele>
        <time>2014-05-03T14:41:21Z</time>
      </trkpt>
      <trkpt lat="50.57084" lon="1.87044">
        <ele>79.45</ele>
        <time>2014-05-03T14:41:27Z</time>
      </trkpt>
      <trkpt lat="50.57086" lon="1.87061">
        <ele>78.48</ele>
        <time>2014-05-03T14:41:33Z</time>
      </trkpt>
      <trkpt lat="50.57092" lon="1.87075">
        <ele>78</ele>
        <time>2014-05-03T14:41:39Z</time>
      </trkpt>
      <trkpt lat="50.571" lon="1.87086">
        <ele>77.52</ele>
        <time>2014-05-03T14:41:45Z</time>
      </trkpt>
      <trkpt lat="50.57111" lon="1.87096">
        <ele>77.52</ele>
        <time>2014-05-03T14:41:51Z</time>
      </trkpt>
      <trkpt lat="50.57121" lon="1.871">
        <ele>76.56</ele>
        <time>2014-05-03T14:41:57Z</time>
      </trkpt>
      <trkpt lat="50.57131" lon="1.87103">
        <ele>76.56</ele>
        <time>2014-05-03T14:42:03Z</time>
      </trkpt>
      <trkpt lat="50.57142" lon="1.87109">
        <ele>76.08</ele>
        <time>2014-05-03T14:42:09Z</time>
      </trkpt>
      <trkpt lat="50.57151" lon="1.87121">
        <ele>76.08</ele>
        <time>2014-05-03T14:42:16Z</time>
      </trkpt>
      <trkpt lat="50.57158" lon="1.87133">
        <ele>75.6</ele>
        <time>2014-05-03T14:42:22Z</time>
      </trkpt>
      <trkpt lat="50.57162" lon="1.87149">
        <ele>75.6</ele>
        <time>2014-05-03T14:42:29Z</time>
      </trkpt>
      <trkpt lat="50.57164" lon="1.87168">
        <ele>75.6</ele>
        <time>2014-05-03T14:42:36Z</time>
      </trkpt>
      <trkpt lat="50.57165" lon="1.87184">
        <ele>75.12</ele>
        <time>2014-05-03T14:42:42Z</time>
      </trkpt>
      <trkpt lat="50.57167" lon="1.872">
        <ele>75.12</ele>
        <time>2014-05-03T14:42:48Z</time>
      </trkpt>
      <trkpt lat="50.57169" lon="1.87216">
        <ele>75.12</ele>
        <time>2014-05-03T14:42:53Z</time>
      </trkpt>
      <trkpt lat="50.57171" lon="1.87236">
        <ele>74.64</ele>
        <time>2014-05-03T14:42:59Z</time>
      </trkpt>
      <trkpt lat="50.57173" lon="1.87252">
        <ele>75.12</ele>
        <time>2014-05-03T14:43:05Z</time>
      </trkpt>
      <trkpt lat="50.57174" lon="1.87267">
        <ele>74.16</ele>
        <time>2014-05-03T14:43:11Z</time>
      </trkpt>
      <trkpt lat="50.57174" lon="1.87281">
        <ele>73.68</ele>
        <time>2014-05-03T14:43:16Z</time>
      </trkpt>
      <trkpt lat="50.57177" lon="1.87297">
        <ele>73.2</ele>
        <time>2014-05-03T14:43:22Z</time>
      </trkpt>
      <trkpt lat="50.57177" lon="1.87315">
        <ele>71.76</ele>
        <time>2014-05-03T14:43:29Z</time>
      </trkpt>
      <trkpt lat="50.57179" lon="1.87332">
        <ele>70.79</ele>
        <time>2014-05-03T14:43:35Z</time>
      </trkpt>
      <trkpt lat="50.57177" lon="1.87343">
        <ele>70.31</ele>
        <time>2014-05-03T14:43:55Z</time>
      </trkpt>
      <trkpt lat="50.57178" lon="1.87358">
        <ele>69.83</ele>
        <time>2014-05-03T14:44:28Z</time>
      </trkpt>
      <trkpt lat="50.57178" lon="1.87373">
        <ele>69.35</ele>
        <time>2014-05-03T14:44:36Z</time>
      </trkpt>
      <trkpt lat="50.57179" lon="1.87388">
        <ele>69.35</ele>
        <time>2014-05-03T14:44:43Z</time>
      </trkpt>
      <trkpt lat="50.57179" lon="1.87404">
        <ele>69.35</ele>
        <time>2014-05-03T14:44:50Z</time>
      </trkpt>
      <trkpt lat="50.57178" lon="1.87419">
        <ele>69.35</ele>
        <time>2014-05-03T14:44:56Z</time>
      </trkpt>
      <trkpt lat="50.57178" lon="1.87436">
        <ele>69.35</ele>
        <time>2014-05-03T14:45:03Z</time>
      </trkpt>
      <trkpt lat="50.57178" lon="1.8745">
        <ele>68.87</ele>
        <time>2014-05-03T14:45:09Z</time>
      </trkpt>
      <trkpt lat="50.57178" lon="1.87464">
        <ele>69.35</ele>
        <time>2014-05-03T14:45:15Z</time>
      </trkpt>
      <trkpt lat="50.57177" lon="1.87477">
        <ele>68.87</ele>
        <time>2014-05-03T14:45:22Z</time>
      </trkpt>
      <trkpt lat="50.57176" lon="1.87491">
        <ele>68.87</ele>
        <time>2014-05-03T14:45:29Z</time>
      </trkpt>
      <trkpt lat="50.57175" lon="1.87506">
        <ele>68.39</ele>
        <time>2014-05-03T14:45:36Z</time>
      </trkpt>
      <trkpt lat="50.57175" lon="1.8752">
        <ele>66.95</ele>
        <time>2014-05-03T14:45:43Z</time>
      </trkpt>
      <trkpt lat="50.57176" lon="1.87535">
        <ele>68.87</ele>
        <time>2014-05-03T14:45:50Z</time>
      </trkpt>
      <trkpt lat="50.57175" lon="1.8755">
        <ele>68.39</ele>
        <time>2014-05-03T14:45:57Z</time>
      </trkpt>
      <trkpt lat="50.57174" lon="1.87565">
        <ele>69.35</ele>
        <time>2014-05-03T14:46:04Z</time>
      </trkpt>
    </trkseg>
  </trk>
</gpx>